<?xml version="1.0" encoding="UTF-8" standalone="no" ?>
<gpx xmlns="http://www.topografix.com/GPX/1/1" xmlns:xsi="http://www.w3.org/2001/XMLSchema-instance" xsi:schemaLocation="http://www.topografix.com/GPX/1/1 http://www.topografix.com/GPX/1/1/gpx.xsd" version="1.1" creator="VisuGPX - https://www.visugpx.com">
  <metadata>
    <name>Anlier MARCHE ADEPS 2015 (Juin)</name>
    <desc><![CDATA[MARCHE ADEPS POUR DIMANCHE SYMPA]]></desc>
  </metadata>
  <trk>
    <name><![CDATA[solo scooby]]></name>
    <cmt><![CDATA[AVG 04° MAX 20° MIN 02°]]></cmt>
    <trkseg>
      <trkpt lat="49.77271" lon="5.6207">
        <ele>436</ele>
        <time>2015-02-22T10:57:14Z</time>
      </trkpt>
      <trkpt lat="49.7727" lon="5.6207">
        <ele>436</ele>
        <time>2015-02-22T10:57:19Z</time>
      </trkpt>
      <trkpt lat="49.77265" lon="5.62072">
        <ele>436</ele>
        <time>2015-02-22T10:57:25Z</time>
      </trkpt>
      <trkpt lat="49.77263" lon="5.62073">
        <ele>436</ele>
        <time>2015-02-22T10:57:30Z</time>
      </trkpt>
      <trkpt lat="49.77256" lon="5.62074">
        <ele>436</ele>
        <time>2015-02-22T10:57:36Z</time>
      </trkpt>
      <trkpt lat="49.77252" lon="5.62076">
        <ele>436</ele>
        <time>2015-02-22T10:57:42Z</time>
      </trkpt>
      <trkpt lat="49.77246" lon="5.62076">
        <ele>437</ele>
        <time>2015-02-22T10:57:48Z</time>
      </trkpt>
      <trkpt lat="49.77243" lon="5.62082">
        <ele>437</ele>
        <time>2015-02-22T10:57:53Z</time>
      </trkpt>
      <trkpt lat="49.77245" lon="5.62085">
        <ele>437</ele>
        <time>2015-02-22T10:57:58Z</time>
      </trkpt>
      <trkpt lat="49.77243" lon="5.62093">
        <ele>437</ele>
        <time>2015-02-22T10:58:03Z</time>
      </trkpt>
      <trkpt lat="49.77241" lon="5.62106">
        <ele>437</ele>
        <time>2015-02-22T10:58:08Z</time>
      </trkpt>
      <trkpt lat="49.7724" lon="5.62114">
        <ele>438</ele>
        <time>2015-02-22T10:58:14Z</time>
      </trkpt>
      <trkpt lat="49.77238" lon="5.62126">
        <ele>438</ele>
        <time>2015-02-22T10:58:20Z</time>
      </trkpt>
      <trkpt lat="49.77238" lon="5.62137">
        <ele>438</ele>
        <time>2015-02-22T10:58:26Z</time>
      </trkpt>
      <trkpt lat="49.77235" lon="5.62144">
        <ele>439</ele>
        <time>2015-02-22T10:58:32Z</time>
      </trkpt>
      <trkpt lat="49.77237" lon="5.62155">
        <ele>440</ele>
        <time>2015-02-22T10:58:38Z</time>
      </trkpt>
      <trkpt lat="49.77239" lon="5.62153">
        <ele>441</ele>
        <time>2015-02-22T10:58:44Z</time>
      </trkpt>
      <trkpt lat="49.77242" lon="5.62162">
        <ele>442</ele>
        <time>2015-02-22T10:58:50Z</time>
      </trkpt>
      <trkpt lat="49.77244" lon="5.62174">
        <ele>443</ele>
        <time>2015-02-22T10:58:56Z</time>
      </trkpt>
      <trkpt lat="49.77245" lon="5.62188">
        <ele>443</ele>
        <time>2015-02-22T10:59:02Z</time>
      </trkpt>
      <trkpt lat="49.77246" lon="5.62202">
        <ele>444</ele>
        <time>2015-02-22T10:59:08Z</time>
      </trkpt>
      <trkpt lat="49.77244" lon="5.62213">
        <ele>446</ele>
        <time>2015-02-22T10:59:14Z</time>
      </trkpt>
      <trkpt lat="49.77238" lon="5.62221">
        <ele>446</ele>
        <time>2015-02-22T10:59:20Z</time>
      </trkpt>
      <trkpt lat="49.77232" lon="5.62228">
        <ele>447</ele>
        <time>2015-02-22T10:59:26Z</time>
      </trkpt>
      <trkpt lat="49.77225" lon="5.62234">
        <ele>448</ele>
        <time>2015-02-22T10:59:31Z</time>
      </trkpt>
      <trkpt lat="49.77218" lon="5.62242">
        <ele>449</ele>
        <time>2015-02-22T10:59:37Z</time>
      </trkpt>
      <trkpt lat="49.77212" lon="5.62247">
        <ele>449</ele>
        <time>2015-02-22T10:59:42Z</time>
      </trkpt>
      <trkpt lat="49.77205" lon="5.62253">
        <ele>450</ele>
        <time>2015-02-22T10:59:48Z</time>
      </trkpt>
      <trkpt lat="49.772" lon="5.62258">
        <ele>450</ele>
        <time>2015-02-22T10:59:53Z</time>
      </trkpt>
      <trkpt lat="49.77193" lon="5.62263">
        <ele>451</ele>
        <time>2015-02-22T10:59:59Z</time>
      </trkpt>
      <trkpt lat="49.77187" lon="5.6227">
        <ele>451</ele>
        <time>2015-02-22T11:00:05Z</time>
      </trkpt>
      <trkpt lat="49.77181" lon="5.62278">
        <ele>452</ele>
        <time>2015-02-22T11:00:11Z</time>
      </trkpt>
      <trkpt lat="49.77176" lon="5.62288">
        <ele>453</ele>
        <time>2015-02-22T11:00:17Z</time>
      </trkpt>
      <trkpt lat="49.77173" lon="5.62298">
        <ele>454</ele>
        <time>2015-02-22T11:00:23Z</time>
      </trkpt>
      <trkpt lat="49.77172" lon="5.62305">
        <ele>455</ele>
        <time>2015-02-22T11:00:28Z</time>
      </trkpt>
      <trkpt lat="49.77172" lon="5.62317">
        <ele>456</ele>
        <time>2015-02-22T11:00:34Z</time>
      </trkpt>
      <trkpt lat="49.77172" lon="5.62327">
        <ele>456</ele>
        <time>2015-02-22T11:00:39Z</time>
      </trkpt>
      <trkpt lat="49.77169" lon="5.62341">
        <ele>457</ele>
        <time>2015-02-22T11:00:45Z</time>
      </trkpt>
      <trkpt lat="49.77166" lon="5.62352">
        <ele>457</ele>
        <time>2015-02-22T11:00:50Z</time>
      </trkpt>
      <trkpt lat="49.77161" lon="5.62363">
        <ele>458</ele>
        <time>2015-02-22T11:00:56Z</time>
      </trkpt>
      <trkpt lat="49.77158" lon="5.62372">
        <ele>459</ele>
        <time>2015-02-22T11:01:01Z</time>
      </trkpt>
      <trkpt lat="49.77155" lon="5.62382">
        <ele>459</ele>
        <time>2015-02-22T11:01:07Z</time>
      </trkpt>
      <trkpt lat="49.77153" lon="5.62391">
        <ele>459</ele>
        <time>2015-02-22T11:01:12Z</time>
      </trkpt>
      <trkpt lat="49.7715" lon="5.62401">
        <ele>460</ele>
        <time>2015-02-22T11:01:18Z</time>
      </trkpt>
      <trkpt lat="49.77147" lon="5.62411">
        <ele>461</ele>
        <time>2015-02-22T11:01:24Z</time>
      </trkpt>
      <trkpt lat="49.77144" lon="5.62421">
        <ele>461</ele>
        <time>2015-02-22T11:01:29Z</time>
      </trkpt>
      <trkpt lat="49.7714" lon="5.62433">
        <ele>462</ele>
        <time>2015-02-22T11:01:35Z</time>
      </trkpt>
      <trkpt lat="49.77135" lon="5.62445">
        <ele>463</ele>
        <time>2015-02-22T11:01:41Z</time>
      </trkpt>
      <trkpt lat="49.77129" lon="5.62453">
        <ele>463</ele>
        <time>2015-02-22T11:01:46Z</time>
      </trkpt>
      <trkpt lat="49.77124" lon="5.62461">
        <ele>464</ele>
        <time>2015-02-22T11:01:52Z</time>
      </trkpt>
      <trkpt lat="49.77118" lon="5.62466">
        <ele>464</ele>
        <time>2015-02-22T11:01:58Z</time>
      </trkpt>
      <trkpt lat="49.77111" lon="5.62474">
        <ele>464</ele>
        <time>2015-02-22T11:02:04Z</time>
      </trkpt>
      <trkpt lat="49.77106" lon="5.6248">
        <ele>465</ele>
        <time>2015-02-22T11:02:09Z</time>
      </trkpt>
      <trkpt lat="49.77099" lon="5.62487">
        <ele>465</ele>
        <time>2015-02-22T11:02:15Z</time>
      </trkpt>
      <trkpt lat="49.77092" lon="5.62493">
        <ele>466</ele>
        <time>2015-02-22T11:02:21Z</time>
      </trkpt>
      <trkpt lat="49.77085" lon="5.62499">
        <ele>466</ele>
        <time>2015-02-22T11:02:27Z</time>
      </trkpt>
      <trkpt lat="49.77077" lon="5.62505">
        <ele>466</ele>
        <time>2015-02-22T11:02:33Z</time>
      </trkpt>
      <trkpt lat="49.77068" lon="5.62511">
        <ele>467</ele>
        <time>2015-02-22T11:02:39Z</time>
      </trkpt>
      <trkpt lat="49.77061" lon="5.62515">
        <ele>468</ele>
        <time>2015-02-22T11:02:45Z</time>
      </trkpt>
      <trkpt lat="49.77055" lon="5.62518">
        <ele>468</ele>
        <time>2015-02-22T11:02:50Z</time>
      </trkpt>
      <trkpt lat="49.77048" lon="5.62521">
        <ele>468</ele>
        <time>2015-02-22T11:02:55Z</time>
      </trkpt>
      <trkpt lat="49.7704" lon="5.62527">
        <ele>468</ele>
        <time>2015-02-22T11:03:00Z</time>
      </trkpt>
      <trkpt lat="49.77031" lon="5.62532">
        <ele>468</ele>
        <time>2015-02-22T11:03:05Z</time>
      </trkpt>
      <trkpt lat="49.77025" lon="5.62537">
        <ele>468</ele>
        <time>2015-02-22T11:03:11Z</time>
      </trkpt>
      <trkpt lat="49.77021" lon="5.62541">
        <ele>468</ele>
        <time>2015-02-22T11:03:17Z</time>
      </trkpt>
      <trkpt lat="49.77016" lon="5.62546">
        <ele>468</ele>
        <time>2015-02-22T11:03:23Z</time>
      </trkpt>
      <trkpt lat="49.77011" lon="5.62551">
        <ele>467</ele>
        <time>2015-02-22T11:03:28Z</time>
      </trkpt>
      <trkpt lat="49.77006" lon="5.62557">
        <ele>466</ele>
        <time>2015-02-22T11:03:34Z</time>
      </trkpt>
      <trkpt lat="49.77002" lon="5.62564">
        <ele>466</ele>
        <time>2015-02-22T11:03:39Z</time>
      </trkpt>
      <trkpt lat="49.76997" lon="5.62571">
        <ele>466</ele>
        <time>2015-02-22T11:03:44Z</time>
      </trkpt>
      <trkpt lat="49.76991" lon="5.6258">
        <ele>466</ele>
        <time>2015-02-22T11:03:50Z</time>
      </trkpt>
      <trkpt lat="49.76987" lon="5.62584">
        <ele>466</ele>
        <time>2015-02-22T11:03:55Z</time>
      </trkpt>
      <trkpt lat="49.76983" lon="5.6259">
        <ele>465</ele>
        <time>2015-02-22T11:04:00Z</time>
      </trkpt>
      <trkpt lat="49.76978" lon="5.62599">
        <ele>465</ele>
        <time>2015-02-22T11:04:05Z</time>
      </trkpt>
      <trkpt lat="49.76972" lon="5.62607">
        <ele>465</ele>
        <time>2015-02-22T11:04:11Z</time>
      </trkpt>
      <trkpt lat="49.76965" lon="5.62615">
        <ele>465</ele>
        <time>2015-02-22T11:04:17Z</time>
      </trkpt>
      <trkpt lat="49.76959" lon="5.62624">
        <ele>465</ele>
        <time>2015-02-22T11:04:23Z</time>
      </trkpt>
      <trkpt lat="49.76953" lon="5.62633">
        <ele>465</ele>
        <time>2015-02-22T11:04:28Z</time>
      </trkpt>
      <trkpt lat="49.76949" lon="5.62641">
        <ele>465</ele>
        <time>2015-02-22T11:04:33Z</time>
      </trkpt>
      <trkpt lat="49.76944" lon="5.62648">
        <ele>465</ele>
        <time>2015-02-22T11:04:38Z</time>
      </trkpt>
      <trkpt lat="49.76938" lon="5.62658">
        <ele>465</ele>
        <time>2015-02-22T11:04:44Z</time>
      </trkpt>
      <trkpt lat="49.76932" lon="5.62666">
        <ele>465</ele>
        <time>2015-02-22T11:04:50Z</time>
      </trkpt>
      <trkpt lat="49.76926" lon="5.62672">
        <ele>465</ele>
        <time>2015-02-22T11:04:55Z</time>
      </trkpt>
      <trkpt lat="49.76922" lon="5.62681">
        <ele>465</ele>
        <time>2015-02-22T11:05:00Z</time>
      </trkpt>
      <trkpt lat="49.76918" lon="5.62691">
        <ele>465</ele>
        <time>2015-02-22T11:05:06Z</time>
      </trkpt>
      <trkpt lat="49.76914" lon="5.62701">
        <ele>465</ele>
        <time>2015-02-22T11:05:11Z</time>
      </trkpt>
      <trkpt lat="49.7691" lon="5.62709">
        <ele>465</ele>
        <time>2015-02-22T11:05:16Z</time>
      </trkpt>
      <trkpt lat="49.76904" lon="5.62719">
        <ele>465</ele>
        <time>2015-02-22T11:05:22Z</time>
      </trkpt>
      <trkpt lat="49.76898" lon="5.62729">
        <ele>465</ele>
        <time>2015-02-22T11:05:28Z</time>
      </trkpt>
      <trkpt lat="49.76893" lon="5.6274">
        <ele>465</ele>
        <time>2015-02-22T11:05:34Z</time>
      </trkpt>
      <trkpt lat="49.76889" lon="5.62748">
        <ele>465</ele>
        <time>2015-02-22T11:05:39Z</time>
      </trkpt>
      <trkpt lat="49.76886" lon="5.62754">
        <ele>465</ele>
        <time>2015-02-22T11:05:44Z</time>
      </trkpt>
      <trkpt lat="49.76884" lon="5.62764">
        <ele>465</ele>
        <time>2015-02-22T11:05:49Z</time>
      </trkpt>
      <trkpt lat="49.7688" lon="5.62776">
        <ele>465</ele>
        <time>2015-02-22T11:05:55Z</time>
      </trkpt>
      <trkpt lat="49.76878" lon="5.62786">
        <ele>465</ele>
        <time>2015-02-22T11:06:00Z</time>
      </trkpt>
      <trkpt lat="49.76877" lon="5.62795">
        <ele>465</ele>
        <time>2015-02-22T11:06:06Z</time>
      </trkpt>
      <trkpt lat="49.76878" lon="5.62802">
        <ele>465</ele>
        <time>2015-02-22T11:06:11Z</time>
      </trkpt>
      <trkpt lat="49.76878" lon="5.62808">
        <ele>465</ele>
        <time>2015-02-22T11:06:16Z</time>
      </trkpt>
      <trkpt lat="49.76881" lon="5.62817">
        <ele>465</ele>
        <time>2015-02-22T11:06:22Z</time>
      </trkpt>
      <trkpt lat="49.76883" lon="5.62826">
        <ele>465</ele>
        <time>2015-02-22T11:06:27Z</time>
      </trkpt>
      <trkpt lat="49.76887" lon="5.62836">
        <ele>464</ele>
        <time>2015-02-22T11:06:33Z</time>
      </trkpt>
      <trkpt lat="49.7689" lon="5.62844">
        <ele>464</ele>
        <time>2015-02-22T11:06:38Z</time>
      </trkpt>
      <trkpt lat="49.76893" lon="5.62853">
        <ele>464</ele>
        <time>2015-02-22T11:06:43Z</time>
      </trkpt>
      <trkpt lat="49.76896" lon="5.62863">
        <ele>464</ele>
        <time>2015-02-22T11:06:49Z</time>
      </trkpt>
      <trkpt lat="49.76899" lon="5.62875">
        <ele>463</ele>
        <time>2015-02-22T11:06:55Z</time>
      </trkpt>
      <trkpt lat="49.76902" lon="5.62885">
        <ele>463</ele>
        <time>2015-02-22T11:07:00Z</time>
      </trkpt>
      <trkpt lat="49.76906" lon="5.62894">
        <ele>463</ele>
        <time>2015-02-22T11:07:05Z</time>
      </trkpt>
      <trkpt lat="49.76908" lon="5.62903">
        <ele>463</ele>
        <time>2015-02-22T11:07:10Z</time>
      </trkpt>
      <trkpt lat="49.76911" lon="5.62912">
        <ele>463</ele>
        <time>2015-02-22T11:07:15Z</time>
      </trkpt>
      <trkpt lat="49.76914" lon="5.62924">
        <ele>463</ele>
        <time>2015-02-22T11:07:21Z</time>
      </trkpt>
      <trkpt lat="49.76916" lon="5.62934">
        <ele>462</ele>
        <time>2015-02-22T11:07:27Z</time>
      </trkpt>
      <trkpt lat="49.76918" lon="5.62944">
        <ele>461</ele>
        <time>2015-02-22T11:07:32Z</time>
      </trkpt>
      <trkpt lat="49.76919" lon="5.62959">
        <ele>462</ele>
        <time>2015-02-22T11:07:38Z</time>
      </trkpt>
      <trkpt lat="49.7692" lon="5.62974">
        <ele>462</ele>
        <time>2015-02-22T11:07:44Z</time>
      </trkpt>
      <trkpt lat="49.76921" lon="5.62987">
        <ele>462</ele>
        <time>2015-02-22T11:07:49Z</time>
      </trkpt>
      <trkpt lat="49.76923" lon="5.63001">
        <ele>462</ele>
        <time>2015-02-22T11:07:55Z</time>
      </trkpt>
      <trkpt lat="49.76925" lon="5.63011">
        <ele>462</ele>
        <time>2015-02-22T11:08:00Z</time>
      </trkpt>
      <trkpt lat="49.76926" lon="5.63023">
        <ele>462</ele>
        <time>2015-02-22T11:08:06Z</time>
      </trkpt>
      <trkpt lat="49.76927" lon="5.63034">
        <ele>461</ele>
        <time>2015-02-22T11:08:12Z</time>
      </trkpt>
      <trkpt lat="49.76929" lon="5.63045">
        <ele>461</ele>
        <time>2015-02-22T11:08:18Z</time>
      </trkpt>
      <trkpt lat="49.76929" lon="5.63056">
        <ele>461</ele>
        <time>2015-02-22T11:08:24Z</time>
      </trkpt>
      <trkpt lat="49.76929" lon="5.63064">
        <ele>461</ele>
        <time>2015-02-22T11:08:29Z</time>
      </trkpt>
      <trkpt lat="49.76929" lon="5.63074">
        <ele>461</ele>
        <time>2015-02-22T11:08:34Z</time>
      </trkpt>
      <trkpt lat="49.76929" lon="5.63086">
        <ele>460</ele>
        <time>2015-02-22T11:08:40Z</time>
      </trkpt>
      <trkpt lat="49.76929" lon="5.63096">
        <ele>460</ele>
        <time>2015-02-22T11:08:45Z</time>
      </trkpt>
      <trkpt lat="49.76928" lon="5.63106">
        <ele>460</ele>
        <time>2015-02-22T11:08:50Z</time>
      </trkpt>
      <trkpt lat="49.76926" lon="5.63119">
        <ele>459</ele>
        <time>2015-02-22T11:08:56Z</time>
      </trkpt>
      <trkpt lat="49.76923" lon="5.63129">
        <ele>459</ele>
        <time>2015-02-22T11:09:01Z</time>
      </trkpt>
      <trkpt lat="49.76919" lon="5.63139">
        <ele>459</ele>
        <time>2015-02-22T11:09:06Z</time>
      </trkpt>
      <trkpt lat="49.76917" lon="5.63151">
        <ele>459</ele>
        <time>2015-02-22T11:09:12Z</time>
      </trkpt>
      <trkpt lat="49.76914" lon="5.6316">
        <ele>458</ele>
        <time>2015-02-22T11:09:17Z</time>
      </trkpt>
      <trkpt lat="49.76912" lon="5.63169">
        <ele>458</ele>
        <time>2015-02-22T11:09:22Z</time>
      </trkpt>
      <trkpt lat="49.76909" lon="5.63181">
        <ele>458</ele>
        <time>2015-02-22T11:09:28Z</time>
      </trkpt>
      <trkpt lat="49.76907" lon="5.63192">
        <ele>458</ele>
        <time>2015-02-22T11:09:33Z</time>
      </trkpt>
      <trkpt lat="49.76904" lon="5.63203">
        <ele>458</ele>
        <time>2015-02-22T11:09:39Z</time>
      </trkpt>
      <trkpt lat="49.76903" lon="5.63212">
        <ele>458</ele>
        <time>2015-02-22T11:09:44Z</time>
      </trkpt>
      <trkpt lat="49.76904" lon="5.63218">
        <ele>458</ele>
        <time>2015-02-22T11:09:50Z</time>
      </trkpt>
      <trkpt lat="49.76901" lon="5.63225">
        <ele>458</ele>
        <time>2015-02-22T11:09:56Z</time>
      </trkpt>
      <trkpt lat="49.76898" lon="5.63234">
        <ele>457</ele>
        <time>2015-02-22T11:10:02Z</time>
      </trkpt>
      <trkpt lat="49.76897" lon="5.63243">
        <ele>457</ele>
        <time>2015-02-22T11:10:08Z</time>
      </trkpt>
      <trkpt lat="49.76897" lon="5.63253">
        <ele>457</ele>
        <time>2015-02-22T11:10:14Z</time>
      </trkpt>
      <trkpt lat="49.76897" lon="5.63263">
        <ele>456</ele>
        <time>2015-02-22T11:10:20Z</time>
      </trkpt>
      <trkpt lat="49.76897" lon="5.63271">
        <ele>456</ele>
        <time>2015-02-22T11:10:25Z</time>
      </trkpt>
      <trkpt lat="49.76899" lon="5.63281">
        <ele>456</ele>
        <time>2015-02-22T11:10:31Z</time>
      </trkpt>
      <trkpt lat="49.76901" lon="5.63289">
        <ele>455</ele>
        <time>2015-02-22T11:10:36Z</time>
      </trkpt>
      <trkpt lat="49.76905" lon="5.63297">
        <ele>455</ele>
        <time>2015-02-22T11:10:41Z</time>
      </trkpt>
      <trkpt lat="49.76907" lon="5.63306">
        <ele>455</ele>
        <time>2015-02-22T11:10:46Z</time>
      </trkpt>
      <trkpt lat="49.7691" lon="5.63318">
        <ele>454</ele>
        <time>2015-02-22T11:10:52Z</time>
      </trkpt>
      <trkpt lat="49.76912" lon="5.63328">
        <ele>454</ele>
        <time>2015-02-22T11:10:58Z</time>
      </trkpt>
      <trkpt lat="49.76914" lon="5.63338">
        <ele>454</ele>
        <time>2015-02-22T11:11:04Z</time>
      </trkpt>
      <trkpt lat="49.76916" lon="5.63347">
        <ele>453</ele>
        <time>2015-02-22T11:11:09Z</time>
      </trkpt>
      <trkpt lat="49.76919" lon="5.63357">
        <ele>453</ele>
        <time>2015-02-22T11:11:14Z</time>
      </trkpt>
      <trkpt lat="49.76922" lon="5.63368">
        <ele>453</ele>
        <time>2015-02-22T11:11:19Z</time>
      </trkpt>
      <trkpt lat="49.76926" lon="5.63379">
        <ele>452</ele>
        <time>2015-02-22T11:11:25Z</time>
      </trkpt>
      <trkpt lat="49.7693" lon="5.63389">
        <ele>452</ele>
        <time>2015-02-22T11:11:30Z</time>
      </trkpt>
      <trkpt lat="49.76934" lon="5.634">
        <ele>451</ele>
        <time>2015-02-22T11:11:35Z</time>
      </trkpt>
      <trkpt lat="49.76937" lon="5.63409">
        <ele>451</ele>
        <time>2015-02-22T11:11:40Z</time>
      </trkpt>
      <trkpt lat="49.76938" lon="5.63419">
        <ele>450</ele>
        <time>2015-02-22T11:11:45Z</time>
      </trkpt>
      <trkpt lat="49.76939" lon="5.63433">
        <ele>450</ele>
        <time>2015-02-22T11:11:51Z</time>
      </trkpt>
      <trkpt lat="49.76938" lon="5.63446">
        <ele>451</ele>
        <time>2015-02-22T11:11:56Z</time>
      </trkpt>
      <trkpt lat="49.76939" lon="5.63457">
        <ele>450</ele>
        <time>2015-02-22T11:12:01Z</time>
      </trkpt>
      <trkpt lat="49.76939" lon="5.6347">
        <ele>451</ele>
        <time>2015-02-22T11:12:07Z</time>
      </trkpt>
      <trkpt lat="49.7694" lon="5.6348">
        <ele>450</ele>
        <time>2015-02-22T11:12:12Z</time>
      </trkpt>
      <trkpt lat="49.76941" lon="5.6349">
        <ele>450</ele>
        <time>2015-02-22T11:12:17Z</time>
      </trkpt>
      <trkpt lat="49.76943" lon="5.63503">
        <ele>450</ele>
        <time>2015-02-22T11:12:23Z</time>
      </trkpt>
      <trkpt lat="49.76942" lon="5.63516">
        <ele>450</ele>
        <time>2015-02-22T11:12:29Z</time>
      </trkpt>
      <trkpt lat="49.76942" lon="5.63529">
        <ele>450</ele>
        <time>2015-02-22T11:12:35Z</time>
      </trkpt>
      <trkpt lat="49.76941" lon="5.63544">
        <ele>450</ele>
        <time>2015-02-22T11:12:41Z</time>
      </trkpt>
      <trkpt lat="49.7694" lon="5.63555">
        <ele>449</ele>
        <time>2015-02-22T11:12:47Z</time>
      </trkpt>
      <trkpt lat="49.76939" lon="5.63566">
        <ele>449</ele>
        <time>2015-02-22T11:12:53Z</time>
      </trkpt>
      <trkpt lat="49.76938" lon="5.63576">
        <ele>449</ele>
        <time>2015-02-22T11:12:59Z</time>
      </trkpt>
      <trkpt lat="49.76937" lon="5.63587">
        <ele>449</ele>
        <time>2015-02-22T11:13:05Z</time>
      </trkpt>
      <trkpt lat="49.76937" lon="5.63596">
        <ele>449</ele>
        <time>2015-02-22T11:13:11Z</time>
      </trkpt>
      <trkpt lat="49.76934" lon="5.63606">
        <ele>448</ele>
        <time>2015-02-22T11:13:17Z</time>
      </trkpt>
      <trkpt lat="49.76933" lon="5.63617">
        <ele>448</ele>
        <time>2015-02-22T11:13:22Z</time>
      </trkpt>
      <trkpt lat="49.76931" lon="5.63628">
        <ele>448</ele>
        <time>2015-02-22T11:13:28Z</time>
      </trkpt>
      <trkpt lat="49.76929" lon="5.63639">
        <ele>447</ele>
        <time>2015-02-22T11:13:34Z</time>
      </trkpt>
      <trkpt lat="49.76927" lon="5.6365">
        <ele>447</ele>
        <time>2015-02-22T11:13:40Z</time>
      </trkpt>
      <trkpt lat="49.76928" lon="5.63659">
        <ele>447</ele>
        <time>2015-02-22T11:13:45Z</time>
      </trkpt>
      <trkpt lat="49.76929" lon="5.6367">
        <ele>446</ele>
        <time>2015-02-22T11:13:51Z</time>
      </trkpt>
      <trkpt lat="49.76932" lon="5.63679">
        <ele>446</ele>
        <time>2015-02-22T11:13:57Z</time>
      </trkpt>
      <trkpt lat="49.76934" lon="5.63686">
        <ele>446</ele>
        <time>2015-02-22T11:14:03Z</time>
      </trkpt>
      <trkpt lat="49.76935" lon="5.63693">
        <ele>446</ele>
        <time>2015-02-22T11:14:09Z</time>
      </trkpt>
      <trkpt lat="49.76935" lon="5.63699">
        <ele>446</ele>
        <time>2015-02-22T11:14:15Z</time>
      </trkpt>
      <trkpt lat="49.76938" lon="5.63707">
        <ele>446</ele>
        <time>2015-02-22T11:14:21Z</time>
      </trkpt>
      <trkpt lat="49.76941" lon="5.63717">
        <ele>446</ele>
        <time>2015-02-22T11:14:27Z</time>
      </trkpt>
      <trkpt lat="49.76943" lon="5.63726">
        <ele>446</ele>
        <time>2015-02-22T11:14:33Z</time>
      </trkpt>
      <trkpt lat="49.76947" lon="5.63736">
        <ele>447</ele>
        <time>2015-02-22T11:14:39Z</time>
      </trkpt>
      <trkpt lat="49.76949" lon="5.63746">
        <ele>448</ele>
        <time>2015-02-22T11:14:45Z</time>
      </trkpt>
      <trkpt lat="49.76951" lon="5.63758">
        <ele>448</ele>
        <time>2015-02-22T11:14:51Z</time>
      </trkpt>
      <trkpt lat="49.7695" lon="5.63767">
        <ele>449</ele>
        <time>2015-02-22T11:14:56Z</time>
      </trkpt>
      <trkpt lat="49.76945" lon="5.63772">
        <ele>449</ele>
        <time>2015-02-22T11:15:01Z</time>
      </trkpt>
      <trkpt lat="49.76941" lon="5.63777">
        <ele>448</ele>
        <time>2015-02-22T11:15:07Z</time>
      </trkpt>
      <trkpt lat="49.76936" lon="5.63781">
        <ele>448</ele>
        <time>2015-02-22T11:15:12Z</time>
      </trkpt>
      <trkpt lat="49.76931" lon="5.63785">
        <ele>448</ele>
        <time>2015-02-22T11:15:18Z</time>
      </trkpt>
      <trkpt lat="49.76926" lon="5.63789">
        <ele>448</ele>
        <time>2015-02-22T11:15:24Z</time>
      </trkpt>
      <trkpt lat="49.76921" lon="5.63791">
        <ele>448</ele>
        <time>2015-02-22T11:15:29Z</time>
      </trkpt>
      <trkpt lat="49.76914" lon="5.63793">
        <ele>448</ele>
        <time>2015-02-22T11:15:35Z</time>
      </trkpt>
      <trkpt lat="49.76909" lon="5.63794">
        <ele>447</ele>
        <time>2015-02-22T11:15:40Z</time>
      </trkpt>
      <trkpt lat="49.76903" lon="5.63796">
        <ele>447</ele>
        <time>2015-02-22T11:15:45Z</time>
      </trkpt>
      <trkpt lat="49.76895" lon="5.638">
        <ele>447</ele>
        <time>2015-02-22T11:15:51Z</time>
      </trkpt>
      <trkpt lat="49.76888" lon="5.63802">
        <ele>447</ele>
        <time>2015-02-22T11:15:56Z</time>
      </trkpt>
      <trkpt lat="49.7688" lon="5.63806">
        <ele>446</ele>
        <time>2015-02-22T11:16:02Z</time>
      </trkpt>
      <trkpt lat="49.76874" lon="5.63809">
        <ele>447</ele>
        <time>2015-02-22T11:16:07Z</time>
      </trkpt>
      <trkpt lat="49.76868" lon="5.63811">
        <ele>447</ele>
        <time>2015-02-22T11:16:12Z</time>
      </trkpt>
      <trkpt lat="49.76861" lon="5.63812">
        <ele>446</ele>
        <time>2015-02-22T11:16:18Z</time>
      </trkpt>
      <trkpt lat="49.76856" lon="5.63812">
        <ele>446</ele>
        <time>2015-02-22T11:16:23Z</time>
      </trkpt>
      <trkpt lat="49.7685" lon="5.63812">
        <ele>445</ele>
        <time>2015-02-22T11:16:28Z</time>
      </trkpt>
      <trkpt lat="49.76844" lon="5.63812">
        <ele>445</ele>
        <time>2015-02-22T11:16:34Z</time>
      </trkpt>
      <trkpt lat="49.76839" lon="5.63812">
        <ele>445</ele>
        <time>2015-02-22T11:16:39Z</time>
      </trkpt>
      <trkpt lat="49.76833" lon="5.6381">
        <ele>445</ele>
        <time>2015-02-22T11:16:45Z</time>
      </trkpt>
      <trkpt lat="49.76828" lon="5.63807">
        <ele>444</ele>
        <time>2015-02-22T11:16:51Z</time>
      </trkpt>
      <trkpt lat="49.76822" lon="5.63806">
        <ele>444</ele>
        <time>2015-02-22T11:16:57Z</time>
      </trkpt>
      <trkpt lat="49.76815" lon="5.63803">
        <ele>444</ele>
        <time>2015-02-22T11:17:03Z</time>
      </trkpt>
      <trkpt lat="49.76809" lon="5.63799">
        <ele>444</ele>
        <time>2015-02-22T11:17:09Z</time>
      </trkpt>
      <trkpt lat="49.76805" lon="5.63796">
        <ele>444</ele>
        <time>2015-02-22T11:17:15Z</time>
      </trkpt>
      <trkpt lat="49.76801" lon="5.63793">
        <ele>444</ele>
        <time>2015-02-22T11:17:20Z</time>
      </trkpt>
      <trkpt lat="49.76796" lon="5.63791">
        <ele>444</ele>
        <time>2015-02-22T11:17:25Z</time>
      </trkpt>
      <trkpt lat="49.76792" lon="5.63788">
        <ele>444</ele>
        <time>2015-02-22T11:17:31Z</time>
      </trkpt>
      <trkpt lat="49.76788" lon="5.63787">
        <ele>444</ele>
        <time>2015-02-22T11:17:37Z</time>
      </trkpt>
      <trkpt lat="49.76787" lon="5.63787">
        <ele>444</ele>
        <time>2015-02-22T11:17:42Z</time>
      </trkpt>
      <trkpt lat="49.76787" lon="5.63784">
        <ele>444</ele>
        <time>2015-02-22T11:17:48Z</time>
      </trkpt>
      <trkpt lat="49.76787" lon="5.63785">
        <ele>444</ele>
        <time>2015-02-22T11:17:54Z</time>
      </trkpt>
      <trkpt lat="49.76786" lon="5.63785">
        <ele>444</ele>
        <time>2015-02-22T11:17:59Z</time>
      </trkpt>
      <trkpt lat="49.76783" lon="5.63785">
        <ele>444</ele>
        <time>2015-02-22T11:18:04Z</time>
      </trkpt>
      <trkpt lat="49.76779" lon="5.63784">
        <ele>444</ele>
        <time>2015-02-22T11:18:10Z</time>
      </trkpt>
      <trkpt lat="49.76774" lon="5.63788">
        <ele>443</ele>
        <time>2015-02-22T11:18:16Z</time>
      </trkpt>
      <trkpt lat="49.7677" lon="5.6379">
        <ele>443</ele>
        <time>2015-02-22T11:18:21Z</time>
      </trkpt>
      <trkpt lat="49.76764" lon="5.63793">
        <ele>442</ele>
        <time>2015-02-22T11:18:27Z</time>
      </trkpt>
      <trkpt lat="49.76759" lon="5.63795">
        <ele>442</ele>
        <time>2015-02-22T11:18:32Z</time>
      </trkpt>
      <trkpt lat="49.76754" lon="5.63799">
        <ele>442</ele>
        <time>2015-02-22T11:18:38Z</time>
      </trkpt>
      <trkpt lat="49.76748" lon="5.63805">
        <ele>442</ele>
        <time>2015-02-22T11:18:44Z</time>
      </trkpt>
      <trkpt lat="49.76742" lon="5.63811">
        <ele>442</ele>
        <time>2015-02-22T11:18:50Z</time>
      </trkpt>
      <trkpt lat="49.76735" lon="5.63818">
        <ele>441</ele>
        <time>2015-02-22T11:18:55Z</time>
      </trkpt>
      <trkpt lat="49.76727" lon="5.63826">
        <ele>441</ele>
        <time>2015-02-22T11:19:01Z</time>
      </trkpt>
      <trkpt lat="49.76721" lon="5.63831">
        <ele>441</ele>
        <time>2015-02-22T11:19:07Z</time>
      </trkpt>
      <trkpt lat="49.76714" lon="5.63836">
        <ele>441</ele>
        <time>2015-02-22T11:19:13Z</time>
      </trkpt>
      <trkpt lat="49.76708" lon="5.63839">
        <ele>441</ele>
        <time>2015-02-22T11:19:18Z</time>
      </trkpt>
      <trkpt lat="49.76704" lon="5.63843">
        <ele>440</ele>
        <time>2015-02-22T11:19:23Z</time>
      </trkpt>
      <trkpt lat="49.76701" lon="5.63846">
        <ele>440</ele>
        <time>2015-02-22T11:19:29Z</time>
      </trkpt>
      <trkpt lat="49.76698" lon="5.6385">
        <ele>440</ele>
        <time>2015-02-22T11:19:35Z</time>
      </trkpt>
      <trkpt lat="49.76693" lon="5.63855">
        <ele>440</ele>
        <time>2015-02-22T11:19:40Z</time>
      </trkpt>
      <trkpt lat="49.76688" lon="5.63861">
        <ele>440</ele>
        <time>2015-02-22T11:19:46Z</time>
      </trkpt>
      <trkpt lat="49.76683" lon="5.63864">
        <ele>439</ele>
        <time>2015-02-22T11:19:51Z</time>
      </trkpt>
      <trkpt lat="49.76677" lon="5.63869">
        <ele>440</ele>
        <time>2015-02-22T11:19:57Z</time>
      </trkpt>
      <trkpt lat="49.76671" lon="5.63877">
        <ele>439</ele>
        <time>2015-02-22T11:20:03Z</time>
      </trkpt>
      <trkpt lat="49.76669" lon="5.63881">
        <ele>439</ele>
        <time>2015-02-22T11:20:09Z</time>
      </trkpt>
      <trkpt lat="49.76666" lon="5.63883">
        <ele>439</ele>
        <time>2015-02-22T11:20:14Z</time>
      </trkpt>
      <trkpt lat="49.76659" lon="5.6389">
        <ele>438</ele>
        <time>2015-02-22T11:20:20Z</time>
      </trkpt>
      <trkpt lat="49.7665" lon="5.63896">
        <ele>438</ele>
        <time>2015-02-22T11:20:26Z</time>
      </trkpt>
      <trkpt lat="49.76641" lon="5.63902">
        <ele>437</ele>
        <time>2015-02-22T11:20:31Z</time>
      </trkpt>
      <trkpt lat="49.76634" lon="5.63908">
        <ele>437</ele>
        <time>2015-02-22T11:20:36Z</time>
      </trkpt>
      <trkpt lat="49.76627" lon="5.63916">
        <ele>437</ele>
        <time>2015-02-22T11:20:42Z</time>
      </trkpt>
      <trkpt lat="49.7662" lon="5.63923">
        <ele>437</ele>
        <time>2015-02-22T11:20:48Z</time>
      </trkpt>
      <trkpt lat="49.76611" lon="5.63929">
        <ele>437</ele>
        <time>2015-02-22T11:20:54Z</time>
      </trkpt>
      <trkpt lat="49.76603" lon="5.63936">
        <ele>436</ele>
        <time>2015-02-22T11:21:00Z</time>
      </trkpt>
      <trkpt lat="49.76595" lon="5.63941">
        <ele>436</ele>
        <time>2015-02-22T11:21:06Z</time>
      </trkpt>
      <trkpt lat="49.76589" lon="5.63945">
        <ele>436</ele>
        <time>2015-02-22T11:21:12Z</time>
      </trkpt>
      <trkpt lat="49.76583" lon="5.63948">
        <ele>436</ele>
        <time>2015-02-22T11:21:17Z</time>
      </trkpt>
      <trkpt lat="49.76579" lon="5.6395">
        <ele>435</ele>
        <time>2015-02-22T11:21:23Z</time>
      </trkpt>
      <trkpt lat="49.76574" lon="5.63954">
        <ele>435</ele>
        <time>2015-02-22T11:21:28Z</time>
      </trkpt>
      <trkpt lat="49.76566" lon="5.6396">
        <ele>435</ele>
        <time>2015-02-22T11:21:34Z</time>
      </trkpt>
      <trkpt lat="49.76559" lon="5.63965">
        <ele>435</ele>
        <time>2015-02-22T11:21:40Z</time>
      </trkpt>
      <trkpt lat="49.76551" lon="5.6397">
        <ele>434</ele>
        <time>2015-02-22T11:21:46Z</time>
      </trkpt>
      <trkpt lat="49.76544" lon="5.63977">
        <ele>434</ele>
        <time>2015-02-22T11:21:52Z</time>
      </trkpt>
      <trkpt lat="49.76539" lon="5.6398">
        <ele>434</ele>
        <time>2015-02-22T11:21:57Z</time>
      </trkpt>
      <trkpt lat="49.76533" lon="5.63985">
        <ele>434</ele>
        <time>2015-02-22T11:22:03Z</time>
      </trkpt>
      <trkpt lat="49.76526" lon="5.6399">
        <ele>434</ele>
        <time>2015-02-22T11:22:09Z</time>
      </trkpt>
      <trkpt lat="49.76521" lon="5.63996">
        <ele>433</ele>
        <time>2015-02-22T11:22:15Z</time>
      </trkpt>
      <trkpt lat="49.76517" lon="5.64002">
        <ele>433</ele>
        <time>2015-02-22T11:22:20Z</time>
      </trkpt>
      <trkpt lat="49.76516" lon="5.64009">
        <ele>433</ele>
        <time>2015-02-22T11:22:25Z</time>
      </trkpt>
      <trkpt lat="49.76514" lon="5.64013">
        <ele>433</ele>
        <time>2015-02-22T11:22:31Z</time>
      </trkpt>
      <trkpt lat="49.76512" lon="5.64015">
        <ele>432</ele>
        <time>2015-02-22T11:22:36Z</time>
      </trkpt>
      <trkpt lat="49.7651" lon="5.64015">
        <ele>432</ele>
        <time>2015-02-22T11:22:43Z</time>
      </trkpt>
      <trkpt lat="49.76508" lon="5.64015">
        <ele>432</ele>
        <time>2015-02-22T11:22:49Z</time>
      </trkpt>
      <trkpt lat="49.76507" lon="5.64016">
        <ele>432</ele>
        <time>2015-02-22T11:22:55Z</time>
      </trkpt>
      <trkpt lat="49.76506" lon="5.64016">
        <ele>432</ele>
        <time>2015-02-22T11:23:00Z</time>
      </trkpt>
      <trkpt lat="49.76505" lon="5.64015">
        <ele>432</ele>
        <time>2015-02-22T11:23:05Z</time>
      </trkpt>
      <trkpt lat="49.76503" lon="5.64012">
        <ele>432</ele>
        <time>2015-02-22T11:23:11Z</time>
      </trkpt>
      <trkpt lat="49.76503" lon="5.64009">
        <ele>432</ele>
        <time>2015-02-22T11:23:17Z</time>
      </trkpt>
      <trkpt lat="49.76503" lon="5.64009">
        <ele>432</ele>
        <time>2015-02-22T11:23:23Z</time>
      </trkpt>
      <trkpt lat="49.76503" lon="5.6401">
        <ele>433</ele>
        <time>2015-02-22T11:23:29Z</time>
      </trkpt>
      <trkpt lat="49.76502" lon="5.64013">
        <ele>432</ele>
        <time>2015-02-22T11:23:34Z</time>
      </trkpt>
      <trkpt lat="49.76501" lon="5.64016">
        <ele>432</ele>
        <time>2015-02-22T11:23:40Z</time>
      </trkpt>
      <trkpt lat="49.765" lon="5.64019">
        <ele>433</ele>
        <time>2015-02-22T11:23:46Z</time>
      </trkpt>
      <trkpt lat="49.76499" lon="5.64022">
        <ele>432</ele>
        <time>2015-02-22T11:23:51Z</time>
      </trkpt>
      <trkpt lat="49.76499" lon="5.64024">
        <ele>432</ele>
        <time>2015-02-22T11:23:57Z</time>
      </trkpt>
      <trkpt lat="49.76498" lon="5.64026">
        <ele>432</ele>
        <time>2015-02-22T11:24:03Z</time>
      </trkpt>
      <trkpt lat="49.76498" lon="5.6403">
        <ele>432</ele>
        <time>2015-02-22T11:24:09Z</time>
      </trkpt>
      <trkpt lat="49.76499" lon="5.64034">
        <ele>432</ele>
        <time>2015-02-22T11:24:14Z</time>
      </trkpt>
      <trkpt lat="49.76499" lon="5.64039">
        <ele>432</ele>
        <time>2015-02-22T11:24:19Z</time>
      </trkpt>
      <trkpt lat="49.76498" lon="5.6404">
        <ele>432</ele>
        <time>2015-02-22T11:24:25Z</time>
      </trkpt>
      <trkpt lat="49.765" lon="5.64038">
        <ele>432</ele>
        <time>2015-02-22T11:24:31Z</time>
      </trkpt>
      <trkpt lat="49.76502" lon="5.64035">
        <ele>432</ele>
        <time>2015-02-22T11:24:36Z</time>
      </trkpt>
      <trkpt lat="49.76505" lon="5.64027">
        <ele>432</ele>
        <time>2015-02-22T11:24:42Z</time>
      </trkpt>
      <trkpt lat="49.76506" lon="5.64022">
        <ele>432</ele>
        <time>2015-02-22T11:24:48Z</time>
      </trkpt>
      <trkpt lat="49.76506" lon="5.64021">
        <ele>432</ele>
        <time>2015-02-22T11:24:53Z</time>
      </trkpt>
      <trkpt lat="49.76505" lon="5.64021">
        <ele>433</ele>
        <time>2015-02-22T11:24:59Z</time>
      </trkpt>
      <trkpt lat="49.76505" lon="5.64022">
        <ele>433</ele>
        <time>2015-02-22T11:25:04Z</time>
      </trkpt>
      <trkpt lat="49.76505" lon="5.64024">
        <ele>433</ele>
        <time>2015-02-22T11:25:09Z</time>
      </trkpt>
      <trkpt lat="49.76506" lon="5.64028">
        <ele>433</ele>
        <time>2015-02-22T11:25:15Z</time>
      </trkpt>
      <trkpt lat="49.76508" lon="5.64032">
        <ele>432</ele>
        <time>2015-02-22T11:25:20Z</time>
      </trkpt>
      <trkpt lat="49.7651" lon="5.64033">
        <ele>432</ele>
        <time>2015-02-22T11:25:26Z</time>
      </trkpt>
      <trkpt lat="49.76512" lon="5.64034">
        <ele>432</ele>
        <time>2015-02-22T11:25:31Z</time>
      </trkpt>
      <trkpt lat="49.76513" lon="5.64034">
        <ele>432</ele>
        <time>2015-02-22T11:25:37Z</time>
      </trkpt>
      <trkpt lat="49.76511" lon="5.64036">
        <ele>432</ele>
        <time>2015-02-22T11:25:43Z</time>
      </trkpt>
      <trkpt lat="49.76508" lon="5.64036">
        <ele>432</ele>
        <time>2015-02-22T11:25:49Z</time>
      </trkpt>
      <trkpt lat="49.76506" lon="5.64036">
        <ele>433</ele>
        <time>2015-02-22T11:25:54Z</time>
      </trkpt>
      <trkpt lat="49.76503" lon="5.64036">
        <ele>432</ele>
        <time>2015-02-22T11:25:59Z</time>
      </trkpt>
      <trkpt lat="49.765" lon="5.64037">
        <ele>432</ele>
        <time>2015-02-22T11:26:05Z</time>
      </trkpt>
      <trkpt lat="49.765" lon="5.64036">
        <ele>433</ele>
        <time>2015-02-22T11:26:10Z</time>
      </trkpt>
      <trkpt lat="49.765" lon="5.64034">
        <ele>432</ele>
        <time>2015-02-22T11:26:15Z</time>
      </trkpt>
      <trkpt lat="49.765" lon="5.64035">
        <ele>432</ele>
        <time>2015-02-22T11:26:21Z</time>
      </trkpt>
      <trkpt lat="49.76499" lon="5.64036">
        <ele>432</ele>
        <time>2015-02-22T11:26:26Z</time>
      </trkpt>
      <trkpt lat="49.76498" lon="5.64038">
        <ele>433</ele>
        <time>2015-02-22T11:26:32Z</time>
      </trkpt>
      <trkpt lat="49.76496" lon="5.64041">
        <ele>433</ele>
        <time>2015-02-22T11:26:37Z</time>
      </trkpt>
      <trkpt lat="49.76496" lon="5.64041">
        <ele>433</ele>
        <time>2015-02-22T11:26:42Z</time>
      </trkpt>
      <trkpt lat="49.76497" lon="5.64036">
        <ele>432</ele>
        <time>2015-02-22T11:26:48Z</time>
      </trkpt>
      <trkpt lat="49.765" lon="5.64034">
        <ele>432</ele>
        <time>2015-02-22T11:26:53Z</time>
      </trkpt>
      <trkpt lat="49.76503" lon="5.6403">
        <ele>432</ele>
        <time>2015-02-22T11:26:59Z</time>
      </trkpt>
      <trkpt lat="49.76504" lon="5.64027">
        <ele>432</ele>
        <time>2015-02-22T11:27:04Z</time>
      </trkpt>
      <trkpt lat="49.76505" lon="5.64024">
        <ele>432</ele>
        <time>2015-02-22T11:27:10Z</time>
      </trkpt>
      <trkpt lat="49.76505" lon="5.64023">
        <ele>432</ele>
        <time>2015-02-22T11:27:15Z</time>
      </trkpt>
      <trkpt lat="49.76505" lon="5.64021">
        <ele>432</ele>
        <time>2015-02-22T11:27:21Z</time>
      </trkpt>
      <trkpt lat="49.76505" lon="5.6402">
        <ele>432</ele>
        <time>2015-02-22T11:27:27Z</time>
      </trkpt>
      <trkpt lat="49.76506" lon="5.64019">
        <ele>432</ele>
        <time>2015-02-22T11:27:33Z</time>
      </trkpt>
      <trkpt lat="49.76507" lon="5.64018">
        <ele>432</ele>
        <time>2015-02-22T11:27:38Z</time>
      </trkpt>
      <trkpt lat="49.76507" lon="5.64019">
        <ele>432</ele>
        <time>2015-02-22T11:27:43Z</time>
      </trkpt>
      <trkpt lat="49.76508" lon="5.64019">
        <ele>432</ele>
        <time>2015-02-22T11:27:48Z</time>
      </trkpt>
      <trkpt lat="49.76509" lon="5.64019">
        <ele>432</ele>
        <time>2015-02-22T11:27:54Z</time>
      </trkpt>
      <trkpt lat="49.7651" lon="5.6402">
        <ele>432</ele>
        <time>2015-02-22T11:27:59Z</time>
      </trkpt>
      <trkpt lat="49.76509" lon="5.6402">
        <ele>432</ele>
        <time>2015-02-22T11:28:04Z</time>
      </trkpt>
      <trkpt lat="49.76505" lon="5.64024">
        <ele>432</ele>
        <time>2015-02-22T11:28:10Z</time>
      </trkpt>
      <trkpt lat="49.76501" lon="5.64026">
        <ele>432</ele>
        <time>2015-02-22T11:28:15Z</time>
      </trkpt>
      <trkpt lat="49.76497" lon="5.6403">
        <ele>431</ele>
        <time>2015-02-22T11:28:21Z</time>
      </trkpt>
      <trkpt lat="49.76492" lon="5.64032">
        <ele>431</ele>
        <time>2015-02-22T11:28:26Z</time>
      </trkpt>
      <trkpt lat="49.76487" lon="5.64034">
        <ele>431</ele>
        <time>2015-02-22T11:28:32Z</time>
      </trkpt>
      <trkpt lat="49.76485" lon="5.64033">
        <ele>431</ele>
        <time>2015-02-22T11:28:37Z</time>
      </trkpt>
      <trkpt lat="49.76486" lon="5.64026">
        <ele>431</ele>
        <time>2015-02-22T11:28:42Z</time>
      </trkpt>
      <trkpt lat="49.76487" lon="5.64017">
        <ele>431</ele>
        <time>2015-02-22T11:28:48Z</time>
      </trkpt>
      <trkpt lat="49.76488" lon="5.6401">
        <ele>431</ele>
        <time>2015-02-22T11:28:53Z</time>
      </trkpt>
      <trkpt lat="49.7649" lon="5.64006">
        <ele>431</ele>
        <time>2015-02-22T11:28:58Z</time>
      </trkpt>
      <trkpt lat="49.76494" lon="5.64002">
        <ele>431</ele>
        <time>2015-02-22T11:29:04Z</time>
      </trkpt>
      <trkpt lat="49.76495" lon="5.64003">
        <ele>431</ele>
        <time>2015-02-22T11:29:10Z</time>
      </trkpt>
      <trkpt lat="49.76496" lon="5.64005">
        <ele>431</ele>
        <time>2015-02-22T11:29:16Z</time>
      </trkpt>
      <trkpt lat="49.76496" lon="5.64005">
        <ele>431</ele>
        <time>2015-02-22T11:29:21Z</time>
      </trkpt>
      <trkpt lat="49.76497" lon="5.64005">
        <ele>431</ele>
        <time>2015-02-22T11:29:27Z</time>
      </trkpt>
      <trkpt lat="49.76497" lon="5.64005">
        <ele>431</ele>
        <time>2015-02-22T11:29:33Z</time>
      </trkpt>
      <trkpt lat="49.76498" lon="5.64005">
        <ele>431</ele>
        <time>2015-02-22T11:29:39Z</time>
      </trkpt>
      <trkpt lat="49.76499" lon="5.64007">
        <ele>431</ele>
        <time>2015-02-22T11:29:45Z</time>
      </trkpt>
      <trkpt lat="49.76496" lon="5.64011">
        <ele>431</ele>
        <time>2015-02-22T11:29:50Z</time>
      </trkpt>
      <trkpt lat="49.76491" lon="5.64014">
        <ele>431</ele>
        <time>2015-02-22T11:29:55Z</time>
      </trkpt>
      <trkpt lat="49.76487" lon="5.64017">
        <ele>430</ele>
        <time>2015-02-22T11:30:01Z</time>
      </trkpt>
      <trkpt lat="49.76482" lon="5.64021">
        <ele>430</ele>
        <time>2015-02-22T11:30:06Z</time>
      </trkpt>
      <trkpt lat="49.76477" lon="5.64028">
        <ele>431</ele>
        <time>2015-02-22T11:30:12Z</time>
      </trkpt>
      <trkpt lat="49.76472" lon="5.64033">
        <ele>430</ele>
        <time>2015-02-22T11:30:17Z</time>
      </trkpt>
      <trkpt lat="49.76466" lon="5.64039">
        <ele>430</ele>
        <time>2015-02-22T11:30:22Z</time>
      </trkpt>
      <trkpt lat="49.76459" lon="5.64045">
        <ele>430</ele>
        <time>2015-02-22T11:30:28Z</time>
      </trkpt>
      <trkpt lat="49.76453" lon="5.6405">
        <ele>429</ele>
        <time>2015-02-22T11:30:33Z</time>
      </trkpt>
      <trkpt lat="49.76446" lon="5.64054">
        <ele>428</ele>
        <time>2015-02-22T11:30:39Z</time>
      </trkpt>
      <trkpt lat="49.7644" lon="5.64058">
        <ele>428</ele>
        <time>2015-02-22T11:30:44Z</time>
      </trkpt>
      <trkpt lat="49.76436" lon="5.64062">
        <ele>428</ele>
        <time>2015-02-22T11:30:49Z</time>
      </trkpt>
      <trkpt lat="49.7643" lon="5.64065">
        <ele>428</ele>
        <time>2015-02-22T11:30:55Z</time>
      </trkpt>
      <trkpt lat="49.76424" lon="5.64068">
        <ele>428</ele>
        <time>2015-02-22T11:31:00Z</time>
      </trkpt>
      <trkpt lat="49.76418" lon="5.6407">
        <ele>428</ele>
        <time>2015-02-22T11:31:06Z</time>
      </trkpt>
      <trkpt lat="49.76413" lon="5.64072">
        <ele>427</ele>
        <time>2015-02-22T11:31:11Z</time>
      </trkpt>
      <trkpt lat="49.76406" lon="5.64076">
        <ele>428</ele>
        <time>2015-02-22T11:31:16Z</time>
      </trkpt>
      <trkpt lat="49.76397" lon="5.6408">
        <ele>427</ele>
        <time>2015-02-22T11:31:22Z</time>
      </trkpt>
      <trkpt lat="49.7639" lon="5.64083">
        <ele>427</ele>
        <time>2015-02-22T11:31:27Z</time>
      </trkpt>
      <trkpt lat="49.76381" lon="5.64088">
        <ele>427</ele>
        <time>2015-02-22T11:31:33Z</time>
      </trkpt>
      <trkpt lat="49.76375" lon="5.64094">
        <ele>426</ele>
        <time>2015-02-22T11:31:39Z</time>
      </trkpt>
      <trkpt lat="49.7637" lon="5.64095">
        <ele>426</ele>
        <time>2015-02-22T11:31:45Z</time>
      </trkpt>
      <trkpt lat="49.76364" lon="5.64096">
        <ele>426</ele>
        <time>2015-02-22T11:31:50Z</time>
      </trkpt>
      <trkpt lat="49.7636" lon="5.64096">
        <ele>425</ele>
        <time>2015-02-22T11:31:55Z</time>
      </trkpt>
      <trkpt lat="49.76354" lon="5.64096">
        <ele>425</ele>
        <time>2015-02-22T11:32:00Z</time>
      </trkpt>
      <trkpt lat="49.76348" lon="5.64095">
        <ele>425</ele>
        <time>2015-02-22T11:32:06Z</time>
      </trkpt>
      <trkpt lat="49.76342" lon="5.64095">
        <ele>425</ele>
        <time>2015-02-22T11:32:11Z</time>
      </trkpt>
      <trkpt lat="49.76335" lon="5.64097">
        <ele>425</ele>
        <time>2015-02-22T11:32:17Z</time>
      </trkpt>
      <trkpt lat="49.76328" lon="5.64098">
        <ele>424</ele>
        <time>2015-02-22T11:32:22Z</time>
      </trkpt>
      <trkpt lat="49.76322" lon="5.64097">
        <ele>424</ele>
        <time>2015-02-22T11:32:27Z</time>
      </trkpt>
      <trkpt lat="49.76313" lon="5.64099">
        <ele>424</ele>
        <time>2015-02-22T11:32:33Z</time>
      </trkpt>
      <trkpt lat="49.76306" lon="5.64101">
        <ele>424</ele>
        <time>2015-02-22T11:32:39Z</time>
      </trkpt>
      <trkpt lat="49.76299" lon="5.64101">
        <ele>424</ele>
        <time>2015-02-22T11:32:44Z</time>
      </trkpt>
      <trkpt lat="49.76292" lon="5.64103">
        <ele>424</ele>
        <time>2015-02-22T11:32:49Z</time>
      </trkpt>
      <trkpt lat="49.76285" lon="5.64104">
        <ele>424</ele>
        <time>2015-02-22T11:32:54Z</time>
      </trkpt>
      <trkpt lat="49.76277" lon="5.64107">
        <ele>423</ele>
        <time>2015-02-22T11:33:00Z</time>
      </trkpt>
      <trkpt lat="49.76272" lon="5.6411">
        <ele>422</ele>
        <time>2015-02-22T11:33:05Z</time>
      </trkpt>
      <trkpt lat="49.76267" lon="5.64114">
        <ele>423</ele>
        <time>2015-02-22T11:33:10Z</time>
      </trkpt>
      <trkpt lat="49.76261" lon="5.64116">
        <ele>423</ele>
        <time>2015-02-22T11:33:15Z</time>
      </trkpt>
      <trkpt lat="49.76255" lon="5.6412">
        <ele>422</ele>
        <time>2015-02-22T11:33:21Z</time>
      </trkpt>
      <trkpt lat="49.7625" lon="5.64127">
        <ele>421</ele>
        <time>2015-02-22T11:33:27Z</time>
      </trkpt>
      <trkpt lat="49.76245" lon="5.64132">
        <ele>421</ele>
        <time>2015-02-22T11:33:33Z</time>
      </trkpt>
      <trkpt lat="49.76241" lon="5.64139">
        <ele>421</ele>
        <time>2015-02-22T11:33:39Z</time>
      </trkpt>
      <trkpt lat="49.76234" lon="5.64143">
        <ele>421</ele>
        <time>2015-02-22T11:33:44Z</time>
      </trkpt>
      <trkpt lat="49.76227" lon="5.64148">
        <ele>421</ele>
        <time>2015-02-22T11:33:49Z</time>
      </trkpt>
      <trkpt lat="49.76222" lon="5.64153">
        <ele>421</ele>
        <time>2015-02-22T11:33:54Z</time>
      </trkpt>
      <trkpt lat="49.76218" lon="5.64159">
        <ele>421</ele>
        <time>2015-02-22T11:34:00Z</time>
      </trkpt>
      <trkpt lat="49.76213" lon="5.64169">
        <ele>420</ele>
        <time>2015-02-22T11:34:05Z</time>
      </trkpt>
      <trkpt lat="49.76206" lon="5.64177">
        <ele>420</ele>
        <time>2015-02-22T11:34:11Z</time>
      </trkpt>
      <trkpt lat="49.76201" lon="5.64183">
        <ele>419</ele>
        <time>2015-02-22T11:34:16Z</time>
      </trkpt>
      <trkpt lat="49.76196" lon="5.64191">
        <ele>419</ele>
        <time>2015-02-22T11:34:22Z</time>
      </trkpt>
      <trkpt lat="49.76192" lon="5.64198">
        <ele>419</ele>
        <time>2015-02-22T11:34:27Z</time>
      </trkpt>
      <trkpt lat="49.76187" lon="5.64204">
        <ele>419</ele>
        <time>2015-02-22T11:34:33Z</time>
      </trkpt>
      <trkpt lat="49.76182" lon="5.64212">
        <ele>419</ele>
        <time>2015-02-22T11:34:38Z</time>
      </trkpt>
      <trkpt lat="49.76178" lon="5.64217">
        <ele>418</ele>
        <time>2015-02-22T11:34:43Z</time>
      </trkpt>
      <trkpt lat="49.76173" lon="5.64223">
        <ele>418</ele>
        <time>2015-02-22T11:34:49Z</time>
      </trkpt>
      <trkpt lat="49.76168" lon="5.6423">
        <ele>418</ele>
        <time>2015-02-22T11:34:55Z</time>
      </trkpt>
      <trkpt lat="49.76165" lon="5.64236">
        <ele>418</ele>
        <time>2015-02-22T11:35:00Z</time>
      </trkpt>
      <trkpt lat="49.76159" lon="5.64245">
        <ele>418</ele>
        <time>2015-02-22T11:35:06Z</time>
      </trkpt>
      <trkpt lat="49.76154" lon="5.64255">
        <ele>417</ele>
        <time>2015-02-22T11:35:12Z</time>
      </trkpt>
      <trkpt lat="49.76148" lon="5.64264">
        <ele>417</ele>
        <time>2015-02-22T11:35:18Z</time>
      </trkpt>
      <trkpt lat="49.76143" lon="5.64272">
        <ele>417</ele>
        <time>2015-02-22T11:35:23Z</time>
      </trkpt>
      <trkpt lat="49.76138" lon="5.6428">
        <ele>416</ele>
        <time>2015-02-22T11:35:29Z</time>
      </trkpt>
      <trkpt lat="49.76132" lon="5.64287">
        <ele>416</ele>
        <time>2015-02-22T11:35:34Z</time>
      </trkpt>
      <trkpt lat="49.76126" lon="5.64293">
        <ele>416</ele>
        <time>2015-02-22T11:35:39Z</time>
      </trkpt>
      <trkpt lat="49.76119" lon="5.64299">
        <ele>416</ele>
        <time>2015-02-22T11:35:45Z</time>
      </trkpt>
      <trkpt lat="49.76112" lon="5.64306">
        <ele>415</ele>
        <time>2015-02-22T11:35:51Z</time>
      </trkpt>
      <trkpt lat="49.76105" lon="5.64313">
        <ele>415</ele>
        <time>2015-02-22T11:35:57Z</time>
      </trkpt>
      <trkpt lat="49.76099" lon="5.64317">
        <ele>414</ele>
        <time>2015-02-22T11:36:02Z</time>
      </trkpt>
      <trkpt lat="49.76094" lon="5.64322">
        <ele>414</ele>
        <time>2015-02-22T11:36:08Z</time>
      </trkpt>
      <trkpt lat="49.76087" lon="5.64326">
        <ele>413</ele>
        <time>2015-02-22T11:36:14Z</time>
      </trkpt>
      <trkpt lat="49.7608" lon="5.6433">
        <ele>413</ele>
        <time>2015-02-22T11:36:19Z</time>
      </trkpt>
      <trkpt lat="49.76072" lon="5.64332">
        <ele>413</ele>
        <time>2015-02-22T11:36:25Z</time>
      </trkpt>
      <trkpt lat="49.76067" lon="5.64336">
        <ele>413</ele>
        <time>2015-02-22T11:36:30Z</time>
      </trkpt>
      <trkpt lat="49.76062" lon="5.64337">
        <ele>412</ele>
        <time>2015-02-22T11:36:35Z</time>
      </trkpt>
      <trkpt lat="49.76057" lon="5.64337">
        <ele>412</ele>
        <time>2015-02-22T11:36:40Z</time>
      </trkpt>
      <trkpt lat="49.76049" lon="5.64335">
        <ele>411</ele>
        <time>2015-02-22T11:36:46Z</time>
      </trkpt>
      <trkpt lat="49.76042" lon="5.64334">
        <ele>411</ele>
        <time>2015-02-22T11:36:52Z</time>
      </trkpt>
      <trkpt lat="49.76035" lon="5.64335">
        <ele>411</ele>
        <time>2015-02-22T11:36:57Z</time>
      </trkpt>
      <trkpt lat="49.76028" lon="5.64337">
        <ele>411</ele>
        <time>2015-02-22T11:37:02Z</time>
      </trkpt>
      <trkpt lat="49.76023" lon="5.64341">
        <ele>410</ele>
        <time>2015-02-22T11:37:07Z</time>
      </trkpt>
      <trkpt lat="49.76019" lon="5.64346">
        <ele>410</ele>
        <time>2015-02-22T11:37:12Z</time>
      </trkpt>
      <trkpt lat="49.76014" lon="5.64354">
        <ele>410</ele>
        <time>2015-02-22T11:37:18Z</time>
      </trkpt>
      <trkpt lat="49.76009" lon="5.64363">
        <ele>409</ele>
        <time>2015-02-22T11:37:24Z</time>
      </trkpt>
      <trkpt lat="49.76006" lon="5.64374">
        <ele>408</ele>
        <time>2015-02-22T11:37:30Z</time>
      </trkpt>
      <trkpt lat="49.76004" lon="5.64385">
        <ele>408</ele>
        <time>2015-02-22T11:37:35Z</time>
      </trkpt>
      <trkpt lat="49.76003" lon="5.64397">
        <ele>407</ele>
        <time>2015-02-22T11:37:41Z</time>
      </trkpt>
      <trkpt lat="49.76003" lon="5.64408">
        <ele>407</ele>
        <time>2015-02-22T11:37:47Z</time>
      </trkpt>
      <trkpt lat="49.76002" lon="5.64418">
        <ele>407</ele>
        <time>2015-02-22T11:37:53Z</time>
      </trkpt>
      <trkpt lat="49.76001" lon="5.64429">
        <ele>407</ele>
        <time>2015-02-22T11:37:59Z</time>
      </trkpt>
      <trkpt lat="49.76001" lon="5.6444">
        <ele>406</ele>
        <time>2015-02-22T11:38:05Z</time>
      </trkpt>
      <trkpt lat="49.75999" lon="5.6445">
        <ele>406</ele>
        <time>2015-02-22T11:38:10Z</time>
      </trkpt>
      <trkpt lat="49.75997" lon="5.64459">
        <ele>406</ele>
        <time>2015-02-22T11:38:15Z</time>
      </trkpt>
      <trkpt lat="49.75995" lon="5.64468">
        <ele>405</ele>
        <time>2015-02-22T11:38:20Z</time>
      </trkpt>
      <trkpt lat="49.75991" lon="5.64477">
        <ele>405</ele>
        <time>2015-02-22T11:38:26Z</time>
      </trkpt>
      <trkpt lat="49.75986" lon="5.64484">
        <ele>404</ele>
        <time>2015-02-22T11:38:31Z</time>
      </trkpt>
      <trkpt lat="49.75982" lon="5.64489">
        <ele>404</ele>
        <time>2015-02-22T11:38:36Z</time>
      </trkpt>
      <trkpt lat="49.75976" lon="5.64496">
        <ele>405</ele>
        <time>2015-02-22T11:38:42Z</time>
      </trkpt>
      <trkpt lat="49.7597" lon="5.64502">
        <ele>405</ele>
        <time>2015-02-22T11:38:48Z</time>
      </trkpt>
      <trkpt lat="49.75964" lon="5.64507">
        <ele>404</ele>
        <time>2015-02-22T11:38:53Z</time>
      </trkpt>
      <trkpt lat="49.75956" lon="5.64509">
        <ele>404</ele>
        <time>2015-02-22T11:38:59Z</time>
      </trkpt>
      <trkpt lat="49.75948" lon="5.6451">
        <ele>404</ele>
        <time>2015-02-22T11:39:04Z</time>
      </trkpt>
      <trkpt lat="49.75943" lon="5.64512">
        <ele>404</ele>
        <time>2015-02-22T11:39:10Z</time>
      </trkpt>
      <trkpt lat="49.75936" lon="5.64511">
        <ele>404</ele>
        <time>2015-02-22T11:39:16Z</time>
      </trkpt>
      <trkpt lat="49.75931" lon="5.64511">
        <ele>403</ele>
        <time>2015-02-22T11:39:21Z</time>
      </trkpt>
      <trkpt lat="49.75924" lon="5.6451">
        <ele>403</ele>
        <time>2015-02-22T11:39:27Z</time>
      </trkpt>
      <trkpt lat="49.75916" lon="5.64509">
        <ele>403</ele>
        <time>2015-02-22T11:39:33Z</time>
      </trkpt>
      <trkpt lat="49.75909" lon="5.64507">
        <ele>403</ele>
        <time>2015-02-22T11:39:38Z</time>
      </trkpt>
      <trkpt lat="49.75902" lon="5.64507">
        <ele>402</ele>
        <time>2015-02-22T11:39:44Z</time>
      </trkpt>
      <trkpt lat="49.75895" lon="5.64507">
        <ele>402</ele>
        <time>2015-02-22T11:39:49Z</time>
      </trkpt>
      <trkpt lat="49.75888" lon="5.64506">
        <ele>402</ele>
        <time>2015-02-22T11:39:55Z</time>
      </trkpt>
      <trkpt lat="49.7588" lon="5.64502">
        <ele>402</ele>
        <time>2015-02-22T11:40:01Z</time>
      </trkpt>
      <trkpt lat="49.75871" lon="5.64501">
        <ele>403</ele>
        <time>2015-02-22T11:40:06Z</time>
      </trkpt>
      <trkpt lat="49.75865" lon="5.64502">
        <ele>402</ele>
        <time>2015-02-22T11:40:12Z</time>
      </trkpt>
      <trkpt lat="49.75858" lon="5.64501">
        <ele>402</ele>
        <time>2015-02-22T11:40:17Z</time>
      </trkpt>
      <trkpt lat="49.75852" lon="5.64501">
        <ele>402</ele>
        <time>2015-02-22T11:40:23Z</time>
      </trkpt>
      <trkpt lat="49.75845" lon="5.64501">
        <ele>402</ele>
        <time>2015-02-22T11:40:28Z</time>
      </trkpt>
      <trkpt lat="49.75838" lon="5.645">
        <ele>402</ele>
        <time>2015-02-22T11:40:33Z</time>
      </trkpt>
      <trkpt lat="49.75832" lon="5.645">
        <ele>402</ele>
        <time>2015-02-22T11:40:38Z</time>
      </trkpt>
      <trkpt lat="49.75827" lon="5.64498">
        <ele>402</ele>
        <time>2015-02-22T11:40:43Z</time>
      </trkpt>
      <trkpt lat="49.75822" lon="5.64496">
        <ele>402</ele>
        <time>2015-02-22T11:40:48Z</time>
      </trkpt>
      <trkpt lat="49.75815" lon="5.64495">
        <ele>402</ele>
        <time>2015-02-22T11:40:54Z</time>
      </trkpt>
      <trkpt lat="49.75808" lon="5.64493">
        <ele>402</ele>
        <time>2015-02-22T11:41:00Z</time>
      </trkpt>
      <trkpt lat="49.758" lon="5.64492">
        <ele>402</ele>
        <time>2015-02-22T11:41:06Z</time>
      </trkpt>
      <trkpt lat="49.75792" lon="5.64491">
        <ele>402</ele>
        <time>2015-02-22T11:41:11Z</time>
      </trkpt>
      <trkpt lat="49.75785" lon="5.64491">
        <ele>402</ele>
        <time>2015-02-22T11:41:17Z</time>
      </trkpt>
      <trkpt lat="49.75778" lon="5.64491">
        <ele>402</ele>
        <time>2015-02-22T11:41:22Z</time>
      </trkpt>
      <trkpt lat="49.75772" lon="5.6449">
        <ele>402</ele>
        <time>2015-02-22T11:41:28Z</time>
      </trkpt>
      <trkpt lat="49.75766" lon="5.64489">
        <ele>402</ele>
        <time>2015-02-22T11:41:33Z</time>
      </trkpt>
      <trkpt lat="49.75761" lon="5.64491">
        <ele>402</ele>
        <time>2015-02-22T11:41:38Z</time>
      </trkpt>
      <trkpt lat="49.75755" lon="5.64491">
        <ele>402</ele>
        <time>2015-02-22T11:41:44Z</time>
      </trkpt>
      <trkpt lat="49.75749" lon="5.6449">
        <ele>402</ele>
        <time>2015-02-22T11:41:49Z</time>
      </trkpt>
      <trkpt lat="49.75742" lon="5.64492">
        <ele>401</ele>
        <time>2015-02-22T11:41:55Z</time>
      </trkpt>
      <trkpt lat="49.75734" lon="5.64493">
        <ele>401</ele>
        <time>2015-02-22T11:42:01Z</time>
      </trkpt>
      <trkpt lat="49.75728" lon="5.64493">
        <ele>401</ele>
        <time>2015-02-22T11:42:06Z</time>
      </trkpt>
      <trkpt lat="49.75721" lon="5.64491">
        <ele>402</ele>
        <time>2015-02-22T11:42:11Z</time>
      </trkpt>
      <trkpt lat="49.75716" lon="5.64489">
        <ele>401</ele>
        <time>2015-02-22T11:42:17Z</time>
      </trkpt>
      <trkpt lat="49.7571" lon="5.64489">
        <ele>401</ele>
        <time>2015-02-22T11:42:22Z</time>
      </trkpt>
      <trkpt lat="49.75705" lon="5.64489">
        <ele>401</ele>
        <time>2015-02-22T11:42:28Z</time>
      </trkpt>
      <trkpt lat="49.75698" lon="5.64491">
        <ele>401</ele>
        <time>2015-02-22T11:42:34Z</time>
      </trkpt>
      <trkpt lat="49.75692" lon="5.64492">
        <ele>401</ele>
        <time>2015-02-22T11:42:39Z</time>
      </trkpt>
      <trkpt lat="49.75683" lon="5.6449">
        <ele>401</ele>
        <time>2015-02-22T11:42:45Z</time>
      </trkpt>
      <trkpt lat="49.75677" lon="5.64491">
        <ele>401</ele>
        <time>2015-02-22T11:42:50Z</time>
      </trkpt>
      <trkpt lat="49.75671" lon="5.64489">
        <ele>401</ele>
        <time>2015-02-22T11:42:55Z</time>
      </trkpt>
      <trkpt lat="49.75663" lon="5.64487">
        <ele>401</ele>
        <time>2015-02-22T11:43:01Z</time>
      </trkpt>
      <trkpt lat="49.75658" lon="5.64482">
        <ele>401</ele>
        <time>2015-02-22T11:43:06Z</time>
      </trkpt>
      <trkpt lat="49.75654" lon="5.64475">
        <ele>401</ele>
        <time>2015-02-22T11:43:11Z</time>
      </trkpt>
      <trkpt lat="49.75648" lon="5.64466">
        <ele>401</ele>
        <time>2015-02-22T11:43:17Z</time>
      </trkpt>
      <trkpt lat="49.75642" lon="5.64458">
        <ele>401</ele>
        <time>2015-02-22T11:43:23Z</time>
      </trkpt>
      <trkpt lat="49.75639" lon="5.6445">
        <ele>401</ele>
        <time>2015-02-22T11:43:28Z</time>
      </trkpt>
      <trkpt lat="49.75636" lon="5.64439">
        <ele>401</ele>
        <time>2015-02-22T11:43:33Z</time>
      </trkpt>
      <trkpt lat="49.75633" lon="5.64429">
        <ele>401</ele>
        <time>2015-02-22T11:43:39Z</time>
      </trkpt>
      <trkpt lat="49.7563" lon="5.64417">
        <ele>401</ele>
        <time>2015-02-22T11:43:44Z</time>
      </trkpt>
      <trkpt lat="49.75628" lon="5.64407">
        <ele>401</ele>
        <time>2015-02-22T11:43:49Z</time>
      </trkpt>
      <trkpt lat="49.75626" lon="5.64398">
        <ele>400</ele>
        <time>2015-02-22T11:43:55Z</time>
      </trkpt>
      <trkpt lat="49.75623" lon="5.64388">
        <ele>400</ele>
        <time>2015-02-22T11:44:00Z</time>
      </trkpt>
      <trkpt lat="49.75622" lon="5.64378">
        <ele>400</ele>
        <time>2015-02-22T11:44:06Z</time>
      </trkpt>
      <trkpt lat="49.75621" lon="5.64368">
        <ele>400</ele>
        <time>2015-02-22T11:44:11Z</time>
      </trkpt>
      <trkpt lat="49.75618" lon="5.64359">
        <ele>400</ele>
        <time>2015-02-22T11:44:17Z</time>
      </trkpt>
      <trkpt lat="49.75615" lon="5.64349">
        <ele>400</ele>
        <time>2015-02-22T11:44:23Z</time>
      </trkpt>
      <trkpt lat="49.75613" lon="5.64338">
        <ele>401</ele>
        <time>2015-02-22T11:44:29Z</time>
      </trkpt>
      <trkpt lat="49.75609" lon="5.64328">
        <ele>400</ele>
        <time>2015-02-22T11:44:34Z</time>
      </trkpt>
      <trkpt lat="49.75605" lon="5.64323">
        <ele>400</ele>
        <time>2015-02-22T11:44:40Z</time>
      </trkpt>
      <trkpt lat="49.75601" lon="5.64316">
        <ele>400</ele>
        <time>2015-02-22T11:44:45Z</time>
      </trkpt>
      <trkpt lat="49.75597" lon="5.64309">
        <ele>400</ele>
        <time>2015-02-22T11:44:51Z</time>
      </trkpt>
      <trkpt lat="49.75592" lon="5.643">
        <ele>400</ele>
        <time>2015-02-22T11:44:57Z</time>
      </trkpt>
      <trkpt lat="49.75588" lon="5.64293">
        <ele>400</ele>
        <time>2015-02-22T11:45:02Z</time>
      </trkpt>
      <trkpt lat="49.75583" lon="5.64284">
        <ele>400</ele>
        <time>2015-02-22T11:45:08Z</time>
      </trkpt>
      <trkpt lat="49.75577" lon="5.64277">
        <ele>400</ele>
        <time>2015-02-22T11:45:13Z</time>
      </trkpt>
      <trkpt lat="49.75573" lon="5.64272">
        <ele>399</ele>
        <time>2015-02-22T11:45:19Z</time>
      </trkpt>
      <trkpt lat="49.75567" lon="5.64267">
        <ele>400</ele>
        <time>2015-02-22T11:45:24Z</time>
      </trkpt>
      <trkpt lat="49.75562" lon="5.64264">
        <ele>399</ele>
        <time>2015-02-22T11:45:30Z</time>
      </trkpt>
      <trkpt lat="49.75555" lon="5.64262">
        <ele>399</ele>
        <time>2015-02-22T11:45:36Z</time>
      </trkpt>
      <trkpt lat="49.75549" lon="5.64261">
        <ele>399</ele>
        <time>2015-02-22T11:45:41Z</time>
      </trkpt>
      <trkpt lat="49.75541" lon="5.64261">
        <ele>399</ele>
        <time>2015-02-22T11:45:47Z</time>
      </trkpt>
      <trkpt lat="49.75535" lon="5.64262">
        <ele>400</ele>
        <time>2015-02-22T11:45:52Z</time>
      </trkpt>
      <trkpt lat="49.75527" lon="5.64261">
        <ele>399</ele>
        <time>2015-02-22T11:45:57Z</time>
      </trkpt>
      <trkpt lat="49.7552" lon="5.64261">
        <ele>400</ele>
        <time>2015-02-22T11:46:03Z</time>
      </trkpt>
      <trkpt lat="49.75514" lon="5.64263">
        <ele>399</ele>
        <time>2015-02-22T11:46:09Z</time>
      </trkpt>
      <trkpt lat="49.75509" lon="5.64261">
        <ele>400</ele>
        <time>2015-02-22T11:46:15Z</time>
      </trkpt>
      <trkpt lat="49.75502" lon="5.64261">
        <ele>400</ele>
        <time>2015-02-22T11:46:21Z</time>
      </trkpt>
      <trkpt lat="49.75497" lon="5.64263">
        <ele>400</ele>
        <time>2015-02-22T11:46:27Z</time>
      </trkpt>
      <trkpt lat="49.75491" lon="5.64267">
        <ele>401</ele>
        <time>2015-02-22T11:46:33Z</time>
      </trkpt>
      <trkpt lat="49.75486" lon="5.64271">
        <ele>401</ele>
        <time>2015-02-22T11:46:38Z</time>
      </trkpt>
      <trkpt lat="49.75482" lon="5.64276">
        <ele>401</ele>
        <time>2015-02-22T11:46:43Z</time>
      </trkpt>
      <trkpt lat="49.75482" lon="5.64277">
        <ele>401</ele>
        <time>2015-02-22T11:46:49Z</time>
      </trkpt>
      <trkpt lat="49.75483" lon="5.64278">
        <ele>401</ele>
        <time>2015-02-22T11:46:55Z</time>
      </trkpt>
      <trkpt lat="49.75486" lon="5.64278">
        <ele>401</ele>
        <time>2015-02-22T11:47:01Z</time>
      </trkpt>
      <trkpt lat="49.75489" lon="5.64277">
        <ele>401</ele>
        <time>2015-02-22T11:47:06Z</time>
      </trkpt>
      <trkpt lat="49.75491" lon="5.64277">
        <ele>402</ele>
        <time>2015-02-22T11:47:12Z</time>
      </trkpt>
      <trkpt lat="49.75493" lon="5.64276">
        <ele>401</ele>
        <time>2015-02-22T11:47:17Z</time>
      </trkpt>
      <trkpt lat="49.75494" lon="5.64274">
        <ele>401</ele>
        <time>2015-02-22T11:47:22Z</time>
      </trkpt>
      <trkpt lat="49.75494" lon="5.64274">
        <ele>401</ele>
        <time>2015-02-22T11:47:28Z</time>
      </trkpt>
      <trkpt lat="49.75492" lon="5.64274">
        <ele>401</ele>
        <time>2015-02-22T11:47:33Z</time>
      </trkpt>
      <trkpt lat="49.75489" lon="5.64272">
        <ele>401</ele>
        <time>2015-02-22T11:47:38Z</time>
      </trkpt>
      <trkpt lat="49.75486" lon="5.64271">
        <ele>401</ele>
        <time>2015-02-22T11:47:44Z</time>
      </trkpt>
      <trkpt lat="49.75483" lon="5.64271">
        <ele>401</ele>
        <time>2015-02-22T11:47:49Z</time>
      </trkpt>
      <trkpt lat="49.75481" lon="5.64271">
        <ele>401</ele>
        <time>2015-02-22T11:47:55Z</time>
      </trkpt>
      <trkpt lat="49.7548" lon="5.6427">
        <ele>401</ele>
        <time>2015-02-22T11:48:00Z</time>
      </trkpt>
      <trkpt lat="49.7548" lon="5.64268">
        <ele>401</ele>
        <time>2015-02-22T11:48:06Z</time>
      </trkpt>
      <trkpt lat="49.75479" lon="5.64266">
        <ele>401</ele>
        <time>2015-02-22T11:48:11Z</time>
      </trkpt>
      <trkpt lat="49.75478" lon="5.64263">
        <ele>401</ele>
        <time>2015-02-22T11:48:16Z</time>
      </trkpt>
      <trkpt lat="49.75478" lon="5.6426">
        <ele>401</ele>
        <time>2015-02-22T11:48:22Z</time>
      </trkpt>
      <trkpt lat="49.75479" lon="5.64257">
        <ele>401</ele>
        <time>2015-02-22T11:48:28Z</time>
      </trkpt>
      <trkpt lat="49.75479" lon="5.64256">
        <ele>401</ele>
        <time>2015-02-22T11:48:33Z</time>
      </trkpt>
      <trkpt lat="49.75479" lon="5.64255">
        <ele>401</ele>
        <time>2015-02-22T11:48:38Z</time>
      </trkpt>
      <trkpt lat="49.75479" lon="5.64255">
        <ele>401</ele>
        <time>2015-02-22T11:48:44Z</time>
      </trkpt>
      <trkpt lat="49.75479" lon="5.64255">
        <ele>401</ele>
        <time>2015-02-22T11:48:50Z</time>
      </trkpt>
      <trkpt lat="49.75478" lon="5.64255">
        <ele>401</ele>
        <time>2015-02-22T11:48:57Z</time>
      </trkpt>
      <trkpt lat="49.75477" lon="5.64256">
        <ele>401</ele>
        <time>2015-02-22T11:49:04Z</time>
      </trkpt>
      <trkpt lat="49.75478" lon="5.64255">
        <ele>401</ele>
        <time>2015-02-22T11:49:09Z</time>
      </trkpt>
      <trkpt lat="49.75479" lon="5.64255">
        <ele>401</ele>
        <time>2015-02-22T11:49:14Z</time>
      </trkpt>
      <trkpt lat="49.75482" lon="5.64255">
        <ele>401</ele>
        <time>2015-02-22T11:49:21Z</time>
      </trkpt>
      <trkpt lat="49.75483" lon="5.64254">
        <ele>401</ele>
        <time>2015-02-22T11:49:26Z</time>
      </trkpt>
      <trkpt lat="49.75483" lon="5.64252">
        <ele>401</ele>
        <time>2015-02-22T11:49:31Z</time>
      </trkpt>
      <trkpt lat="49.75482" lon="5.64251">
        <ele>401</ele>
        <time>2015-02-22T11:49:37Z</time>
      </trkpt>
      <trkpt lat="49.75481" lon="5.64251">
        <ele>401</ele>
        <time>2015-02-22T11:49:43Z</time>
      </trkpt>
      <trkpt lat="49.75479" lon="5.64249">
        <ele>401</ele>
        <time>2015-02-22T11:49:48Z</time>
      </trkpt>
      <trkpt lat="49.75478" lon="5.64247">
        <ele>401</ele>
        <time>2015-02-22T11:49:53Z</time>
      </trkpt>
      <trkpt lat="49.75477" lon="5.64245">
        <ele>401</ele>
        <time>2015-02-22T11:49:59Z</time>
      </trkpt>
      <trkpt lat="49.75475" lon="5.64244">
        <ele>401</ele>
        <time>2015-02-22T11:50:04Z</time>
      </trkpt>
      <trkpt lat="49.75473" lon="5.64243">
        <ele>401</ele>
        <time>2015-02-22T11:50:09Z</time>
      </trkpt>
      <trkpt lat="49.75472" lon="5.64243">
        <ele>401</ele>
        <time>2015-02-22T11:50:15Z</time>
      </trkpt>
      <trkpt lat="49.75472" lon="5.64242">
        <ele>401</ele>
        <time>2015-02-22T11:50:20Z</time>
      </trkpt>
      <trkpt lat="49.75471" lon="5.64242">
        <ele>401</ele>
        <time>2015-02-22T11:50:27Z</time>
      </trkpt>
      <trkpt lat="49.75472" lon="5.64242">
        <ele>401</ele>
        <time>2015-02-22T11:50:32Z</time>
      </trkpt>
      <trkpt lat="49.75475" lon="5.64242">
        <ele>401</ele>
        <time>2015-02-22T11:50:37Z</time>
      </trkpt>
      <trkpt lat="49.75479" lon="5.64242">
        <ele>401</ele>
        <time>2015-02-22T11:50:43Z</time>
      </trkpt>
      <trkpt lat="49.75482" lon="5.64242">
        <ele>401</ele>
        <time>2015-02-22T11:50:49Z</time>
      </trkpt>
      <trkpt lat="49.75483" lon="5.64244">
        <ele>400</ele>
        <time>2015-02-22T11:50:55Z</time>
      </trkpt>
      <trkpt lat="49.75481" lon="5.64245">
        <ele>401</ele>
        <time>2015-02-22T11:51:00Z</time>
      </trkpt>
      <trkpt lat="49.75481" lon="5.64247">
        <ele>401</ele>
        <time>2015-02-22T11:51:05Z</time>
      </trkpt>
      <trkpt lat="49.75479" lon="5.64249">
        <ele>401</ele>
        <time>2015-02-22T11:51:10Z</time>
      </trkpt>
      <trkpt lat="49.75476" lon="5.64251">
        <ele>401</ele>
        <time>2015-02-22T11:51:15Z</time>
      </trkpt>
      <trkpt lat="49.7547" lon="5.64255">
        <ele>401</ele>
        <time>2015-02-22T11:51:21Z</time>
      </trkpt>
      <trkpt lat="49.75467" lon="5.64259">
        <ele>401</ele>
        <time>2015-02-22T11:51:26Z</time>
      </trkpt>
      <trkpt lat="49.75462" lon="5.64263">
        <ele>402</ele>
        <time>2015-02-22T11:51:32Z</time>
      </trkpt>
      <trkpt lat="49.75456" lon="5.6427">
        <ele>401</ele>
        <time>2015-02-22T11:51:38Z</time>
      </trkpt>
      <trkpt lat="49.75449" lon="5.64277">
        <ele>401</ele>
        <time>2015-02-22T11:51:44Z</time>
      </trkpt>
      <trkpt lat="49.75441" lon="5.64285">
        <ele>401</ele>
        <time>2015-02-22T11:51:50Z</time>
      </trkpt>
      <trkpt lat="49.75434" lon="5.64288">
        <ele>401</ele>
        <time>2015-02-22T11:51:55Z</time>
      </trkpt>
      <trkpt lat="49.75425" lon="5.64292">
        <ele>401</ele>
        <time>2015-02-22T11:52:01Z</time>
      </trkpt>
      <trkpt lat="49.75417" lon="5.64299">
        <ele>400</ele>
        <time>2015-02-22T11:52:06Z</time>
      </trkpt>
      <trkpt lat="49.75409" lon="5.64303">
        <ele>400</ele>
        <time>2015-02-22T11:52:13Z</time>
      </trkpt>
      <trkpt lat="49.75403" lon="5.64307">
        <ele>400</ele>
        <time>2015-02-22T11:52:18Z</time>
      </trkpt>
      <trkpt lat="49.75396" lon="5.6431">
        <ele>400</ele>
        <time>2015-02-22T11:52:24Z</time>
      </trkpt>
      <trkpt lat="49.75389" lon="5.64311">
        <ele>399</ele>
        <time>2015-02-22T11:52:29Z</time>
      </trkpt>
      <trkpt lat="49.75382" lon="5.64312">
        <ele>399</ele>
        <time>2015-02-22T11:52:34Z</time>
      </trkpt>
      <trkpt lat="49.75376" lon="5.6431">
        <ele>399</ele>
        <time>2015-02-22T11:52:39Z</time>
      </trkpt>
      <trkpt lat="49.7537" lon="5.64308">
        <ele>399</ele>
        <time>2015-02-22T11:52:44Z</time>
      </trkpt>
      <trkpt lat="49.75364" lon="5.64305">
        <ele>399</ele>
        <time>2015-02-22T11:52:50Z</time>
      </trkpt>
      <trkpt lat="49.75357" lon="5.64302">
        <ele>399</ele>
        <time>2015-02-22T11:52:55Z</time>
      </trkpt>
      <trkpt lat="49.75351" lon="5.64297">
        <ele>399</ele>
        <time>2015-02-22T11:53:00Z</time>
      </trkpt>
      <trkpt lat="49.75344" lon="5.64291">
        <ele>399</ele>
        <time>2015-02-22T11:53:06Z</time>
      </trkpt>
      <trkpt lat="49.75337" lon="5.64284">
        <ele>398</ele>
        <time>2015-02-22T11:53:12Z</time>
      </trkpt>
      <trkpt lat="49.75331" lon="5.64277">
        <ele>398</ele>
        <time>2015-02-22T11:53:17Z</time>
      </trkpt>
      <trkpt lat="49.75325" lon="5.64267">
        <ele>397</ele>
        <time>2015-02-22T11:53:24Z</time>
      </trkpt>
      <trkpt lat="49.75317" lon="5.64258">
        <ele>397</ele>
        <time>2015-02-22T11:53:30Z</time>
      </trkpt>
      <trkpt lat="49.75312" lon="5.64249">
        <ele>397</ele>
        <time>2015-02-22T11:53:35Z</time>
      </trkpt>
      <trkpt lat="49.75308" lon="5.6424">
        <ele>397</ele>
        <time>2015-02-22T11:53:41Z</time>
      </trkpt>
      <trkpt lat="49.75302" lon="5.64229">
        <ele>396</ele>
        <time>2015-02-22T11:53:47Z</time>
      </trkpt>
      <trkpt lat="49.75296" lon="5.64222">
        <ele>396</ele>
        <time>2015-02-22T11:53:52Z</time>
      </trkpt>
      <trkpt lat="49.7529" lon="5.64217">
        <ele>396</ele>
        <time>2015-02-22T11:53:57Z</time>
      </trkpt>
      <trkpt lat="49.75283" lon="5.64214">
        <ele>396</ele>
        <time>2015-02-22T11:54:02Z</time>
      </trkpt>
      <trkpt lat="49.75277" lon="5.64209">
        <ele>396</ele>
        <time>2015-02-22T11:54:07Z</time>
      </trkpt>
      <trkpt lat="49.75269" lon="5.64204">
        <ele>396</ele>
        <time>2015-02-22T11:54:14Z</time>
      </trkpt>
      <trkpt lat="49.7526" lon="5.64198">
        <ele>395</ele>
        <time>2015-02-22T11:54:19Z</time>
      </trkpt>
      <trkpt lat="49.75253" lon="5.64195">
        <ele>395</ele>
        <time>2015-02-22T11:54:24Z</time>
      </trkpt>
      <trkpt lat="49.75246" lon="5.64192">
        <ele>395</ele>
        <time>2015-02-22T11:54:30Z</time>
      </trkpt>
      <trkpt lat="49.75238" lon="5.64187">
        <ele>394</ele>
        <time>2015-02-22T11:54:35Z</time>
      </trkpt>
      <trkpt lat="49.75231" lon="5.64185">
        <ele>394</ele>
        <time>2015-02-22T11:54:40Z</time>
      </trkpt>
      <trkpt lat="49.75224" lon="5.64186">
        <ele>394</ele>
        <time>2015-02-22T11:54:45Z</time>
      </trkpt>
      <trkpt lat="49.75215" lon="5.64186">
        <ele>394</ele>
        <time>2015-02-22T11:54:51Z</time>
      </trkpt>
      <trkpt lat="49.75208" lon="5.64187">
        <ele>394</ele>
        <time>2015-02-22T11:54:56Z</time>
      </trkpt>
      <trkpt lat="49.75201" lon="5.64186">
        <ele>394</ele>
        <time>2015-02-22T11:55:02Z</time>
      </trkpt>
      <trkpt lat="49.75192" lon="5.64184">
        <ele>393</ele>
        <time>2015-02-22T11:55:08Z</time>
      </trkpt>
      <trkpt lat="49.75185" lon="5.64182">
        <ele>393</ele>
        <time>2015-02-22T11:55:13Z</time>
      </trkpt>
      <trkpt lat="49.75179" lon="5.64177">
        <ele>393</ele>
        <time>2015-02-22T11:55:18Z</time>
      </trkpt>
      <trkpt lat="49.75172" lon="5.64172">
        <ele>393</ele>
        <time>2015-02-22T11:55:24Z</time>
      </trkpt>
      <trkpt lat="49.75166" lon="5.64166">
        <ele>393</ele>
        <time>2015-02-22T11:55:29Z</time>
      </trkpt>
      <trkpt lat="49.7516" lon="5.64161">
        <ele>393</ele>
        <time>2015-02-22T11:55:35Z</time>
      </trkpt>
      <trkpt lat="49.75152" lon="5.64155">
        <ele>392</ele>
        <time>2015-02-22T11:55:40Z</time>
      </trkpt>
      <trkpt lat="49.75146" lon="5.6415">
        <ele>392</ele>
        <time>2015-02-22T11:55:46Z</time>
      </trkpt>
      <trkpt lat="49.7514" lon="5.64142">
        <ele>391</ele>
        <time>2015-02-22T11:55:51Z</time>
      </trkpt>
      <trkpt lat="49.75133" lon="5.64135">
        <ele>391</ele>
        <time>2015-02-22T11:55:58Z</time>
      </trkpt>
      <trkpt lat="49.75125" lon="5.64129">
        <ele>391</ele>
        <time>2015-02-22T11:56:03Z</time>
      </trkpt>
      <trkpt lat="49.75119" lon="5.64124">
        <ele>391</ele>
        <time>2015-02-22T11:56:09Z</time>
      </trkpt>
      <trkpt lat="49.75112" lon="5.64115">
        <ele>391</ele>
        <time>2015-02-22T11:56:15Z</time>
      </trkpt>
      <trkpt lat="49.75104" lon="5.64109">
        <ele>390</ele>
        <time>2015-02-22T11:56:21Z</time>
      </trkpt>
      <trkpt lat="49.75097" lon="5.64106">
        <ele>390</ele>
        <time>2015-02-22T11:56:26Z</time>
      </trkpt>
      <trkpt lat="49.75092" lon="5.64103">
        <ele>390</ele>
        <time>2015-02-22T11:56:31Z</time>
      </trkpt>
      <trkpt lat="49.75086" lon="5.64103">
        <ele>390</ele>
        <time>2015-02-22T11:56:36Z</time>
      </trkpt>
      <trkpt lat="49.75079" lon="5.64103">
        <ele>390</ele>
        <time>2015-02-22T11:56:42Z</time>
      </trkpt>
      <trkpt lat="49.75073" lon="5.64101">
        <ele>390</ele>
        <time>2015-02-22T11:56:47Z</time>
      </trkpt>
      <trkpt lat="49.7507" lon="5.64104">
        <ele>390</ele>
        <time>2015-02-22T11:56:53Z</time>
      </trkpt>
      <trkpt lat="49.75071" lon="5.64111">
        <ele>391</ele>
        <time>2015-02-22T11:56:59Z</time>
      </trkpt>
      <trkpt lat="49.75074" lon="5.64118">
        <ele>391</ele>
        <time>2015-02-22T11:57:04Z</time>
      </trkpt>
      <trkpt lat="49.75077" lon="5.64124">
        <ele>391</ele>
        <time>2015-02-22T11:57:10Z</time>
      </trkpt>
      <trkpt lat="49.75084" lon="5.6413">
        <ele>392</ele>
        <time>2015-02-22T11:57:15Z</time>
      </trkpt>
      <trkpt lat="49.75089" lon="5.64139">
        <ele>392</ele>
        <time>2015-02-22T11:57:22Z</time>
      </trkpt>
      <trkpt lat="49.75094" lon="5.64147">
        <ele>393</ele>
        <time>2015-02-22T11:57:28Z</time>
      </trkpt>
      <trkpt lat="49.75099" lon="5.64155">
        <ele>394</ele>
        <time>2015-02-22T11:57:34Z</time>
      </trkpt>
      <trkpt lat="49.75103" lon="5.64161">
        <ele>393</ele>
        <time>2015-02-22T11:57:39Z</time>
      </trkpt>
      <trkpt lat="49.75107" lon="5.64169">
        <ele>393</ele>
        <time>2015-02-22T11:57:45Z</time>
      </trkpt>
      <trkpt lat="49.75111" lon="5.64176">
        <ele>394</ele>
        <time>2015-02-22T11:57:50Z</time>
      </trkpt>
      <trkpt lat="49.75115" lon="5.64182">
        <ele>394</ele>
        <time>2015-02-22T11:57:55Z</time>
      </trkpt>
      <trkpt lat="49.75119" lon="5.64188">
        <ele>394</ele>
        <time>2015-02-22T11:58:01Z</time>
      </trkpt>
      <trkpt lat="49.75124" lon="5.64194">
        <ele>394</ele>
        <time>2015-02-22T11:58:07Z</time>
      </trkpt>
      <trkpt lat="49.7513" lon="5.64197">
        <ele>394</ele>
        <time>2015-02-22T11:58:12Z</time>
      </trkpt>
      <trkpt lat="49.75134" lon="5.64202">
        <ele>394</ele>
        <time>2015-02-22T11:58:19Z</time>
      </trkpt>
      <trkpt lat="49.75141" lon="5.64206">
        <ele>393</ele>
        <time>2015-02-22T11:58:24Z</time>
      </trkpt>
      <trkpt lat="49.75147" lon="5.6421">
        <ele>393</ele>
        <time>2015-02-22T11:58:30Z</time>
      </trkpt>
      <trkpt lat="49.75153" lon="5.64213">
        <ele>392</ele>
        <time>2015-02-22T11:58:36Z</time>
      </trkpt>
      <trkpt lat="49.75161" lon="5.64216">
        <ele>393</ele>
        <time>2015-02-22T11:58:42Z</time>
      </trkpt>
      <trkpt lat="49.75169" lon="5.64219">
        <ele>392</ele>
        <time>2015-02-22T11:58:48Z</time>
      </trkpt>
      <trkpt lat="49.75177" lon="5.64222">
        <ele>392</ele>
        <time>2015-02-22T11:58:53Z</time>
      </trkpt>
      <trkpt lat="49.75183" lon="5.64224">
        <ele>392</ele>
        <time>2015-02-22T11:58:59Z</time>
      </trkpt>
      <trkpt lat="49.7519" lon="5.64228">
        <ele>393</ele>
        <time>2015-02-22T11:59:04Z</time>
      </trkpt>
      <trkpt lat="49.75195" lon="5.64232">
        <ele>392</ele>
        <time>2015-02-22T11:59:10Z</time>
      </trkpt>
      <trkpt lat="49.75201" lon="5.64238">
        <ele>392</ele>
        <time>2015-02-22T11:59:16Z</time>
      </trkpt>
      <trkpt lat="49.75207" lon="5.64244">
        <ele>393</ele>
        <time>2015-02-22T11:59:22Z</time>
      </trkpt>
      <trkpt lat="49.75214" lon="5.64249">
        <ele>392</ele>
        <time>2015-02-22T11:59:27Z</time>
      </trkpt>
      <trkpt lat="49.75224" lon="5.64255">
        <ele>393</ele>
        <time>2015-02-22T11:59:33Z</time>
      </trkpt>
      <trkpt lat="49.75233" lon="5.64258">
        <ele>393</ele>
        <time>2015-02-22T11:59:38Z</time>
      </trkpt>
      <trkpt lat="49.7524" lon="5.64261">
        <ele>393</ele>
        <time>2015-02-22T11:59:45Z</time>
      </trkpt>
      <trkpt lat="49.75246" lon="5.64266">
        <ele>393</ele>
        <time>2015-02-22T11:59:50Z</time>
      </trkpt>
      <trkpt lat="49.75253" lon="5.64271">
        <ele>393</ele>
        <time>2015-02-22T11:59:56Z</time>
      </trkpt>
      <trkpt lat="49.75259" lon="5.64277">
        <ele>393</ele>
        <time>2015-02-22T12:00:02Z</time>
      </trkpt>
      <trkpt lat="49.75264" lon="5.6428">
        <ele>394</ele>
        <time>2015-02-22T12:00:08Z</time>
      </trkpt>
      <trkpt lat="49.75269" lon="5.64287">
        <ele>394</ele>
        <time>2015-02-22T12:00:13Z</time>
      </trkpt>
      <trkpt lat="49.75273" lon="5.64293">
        <ele>394</ele>
        <time>2015-02-22T12:00:18Z</time>
      </trkpt>
      <trkpt lat="49.75277" lon="5.64298">
        <ele>394</ele>
        <time>2015-02-22T12:00:24Z</time>
      </trkpt>
      <trkpt lat="49.7528" lon="5.64299">
        <ele>394</ele>
        <time>2015-02-22T12:00:29Z</time>
      </trkpt>
      <trkpt lat="49.7528" lon="5.64303">
        <ele>394</ele>
        <time>2015-02-22T12:00:35Z</time>
      </trkpt>
      <trkpt lat="49.7528" lon="5.64308">
        <ele>395</ele>
        <time>2015-02-22T12:00:40Z</time>
      </trkpt>
      <trkpt lat="49.75281" lon="5.64316">
        <ele>395</ele>
        <time>2015-02-22T12:00:46Z</time>
      </trkpt>
      <trkpt lat="49.75287" lon="5.64322">
        <ele>395</ele>
        <time>2015-02-22T12:00:52Z</time>
      </trkpt>
      <trkpt lat="49.75292" lon="5.64329">
        <ele>396</ele>
        <time>2015-02-22T12:00:57Z</time>
      </trkpt>
      <trkpt lat="49.75296" lon="5.64335">
        <ele>396</ele>
        <time>2015-02-22T12:01:03Z</time>
      </trkpt>
      <trkpt lat="49.75301" lon="5.6434">
        <ele>396</ele>
        <time>2015-02-22T12:01:08Z</time>
      </trkpt>
      <trkpt lat="49.75306" lon="5.64346">
        <ele>396</ele>
        <time>2015-02-22T12:01:15Z</time>
      </trkpt>
      <trkpt lat="49.75309" lon="5.64351">
        <ele>395</ele>
        <time>2015-02-22T12:01:21Z</time>
      </trkpt>
      <trkpt lat="49.75314" lon="5.64354">
        <ele>394</ele>
        <time>2015-02-22T12:01:27Z</time>
      </trkpt>
      <trkpt lat="49.75319" lon="5.64359">
        <ele>395</ele>
        <time>2015-02-22T12:01:32Z</time>
      </trkpt>
      <trkpt lat="49.75322" lon="5.64364">
        <ele>395</ele>
        <time>2015-02-22T12:01:38Z</time>
      </trkpt>
      <trkpt lat="49.75327" lon="5.64367">
        <ele>395</ele>
        <time>2015-02-22T12:01:43Z</time>
      </trkpt>
      <trkpt lat="49.75332" lon="5.64369">
        <ele>395</ele>
        <time>2015-02-22T12:01:48Z</time>
      </trkpt>
      <trkpt lat="49.75338" lon="5.64373">
        <ele>395</ele>
        <time>2015-02-22T12:01:53Z</time>
      </trkpt>
      <trkpt lat="49.75343" lon="5.64377">
        <ele>395</ele>
        <time>2015-02-22T12:01:59Z</time>
      </trkpt>
      <trkpt lat="49.7535" lon="5.64381">
        <ele>395</ele>
        <time>2015-02-22T12:02:04Z</time>
      </trkpt>
      <trkpt lat="49.75357" lon="5.64382">
        <ele>395</ele>
        <time>2015-02-22T12:02:10Z</time>
      </trkpt>
      <trkpt lat="49.75362" lon="5.64383">
        <ele>395</ele>
        <time>2015-02-22T12:02:16Z</time>
      </trkpt>
      <trkpt lat="49.75368" lon="5.64385">
        <ele>395</ele>
        <time>2015-02-22T12:02:21Z</time>
      </trkpt>
      <trkpt lat="49.75377" lon="5.64386">
        <ele>394</ele>
        <time>2015-02-22T12:02:27Z</time>
      </trkpt>
      <trkpt lat="49.75385" lon="5.64386">
        <ele>394</ele>
        <time>2015-02-22T12:02:32Z</time>
      </trkpt>
      <trkpt lat="49.75392" lon="5.64385">
        <ele>394</ele>
        <time>2015-02-22T12:02:39Z</time>
      </trkpt>
      <trkpt lat="49.75396" lon="5.64384">
        <ele>394</ele>
        <time>2015-02-22T12:02:44Z</time>
      </trkpt>
      <trkpt lat="49.75402" lon="5.64383">
        <ele>394</ele>
        <time>2015-02-22T12:02:49Z</time>
      </trkpt>
      <trkpt lat="49.75409" lon="5.64382">
        <ele>394</ele>
        <time>2015-02-22T12:02:56Z</time>
      </trkpt>
      <trkpt lat="49.75416" lon="5.64381">
        <ele>394</ele>
        <time>2015-02-22T12:03:01Z</time>
      </trkpt>
      <trkpt lat="49.75424" lon="5.6438">
        <ele>394</ele>
        <time>2015-02-22T12:03:08Z</time>
      </trkpt>
      <trkpt lat="49.75431" lon="5.64378">
        <ele>394</ele>
        <time>2015-02-22T12:03:14Z</time>
      </trkpt>
      <trkpt lat="49.75437" lon="5.64376">
        <ele>394</ele>
        <time>2015-02-22T12:03:19Z</time>
      </trkpt>
      <trkpt lat="49.75442" lon="5.64373">
        <ele>394</ele>
        <time>2015-02-22T12:03:24Z</time>
      </trkpt>
      <trkpt lat="49.75448" lon="5.64372">
        <ele>394</ele>
        <time>2015-02-22T12:03:31Z</time>
      </trkpt>
      <trkpt lat="49.75456" lon="5.64371">
        <ele>394</ele>
        <time>2015-02-22T12:03:36Z</time>
      </trkpt>
      <trkpt lat="49.75462" lon="5.64371">
        <ele>395</ele>
        <time>2015-02-22T12:03:41Z</time>
      </trkpt>
      <trkpt lat="49.75468" lon="5.64371">
        <ele>395</ele>
        <time>2015-02-22T12:03:47Z</time>
      </trkpt>
      <trkpt lat="49.75475" lon="5.64371">
        <ele>395</ele>
        <time>2015-02-22T12:03:52Z</time>
      </trkpt>
      <trkpt lat="49.7548" lon="5.64373">
        <ele>395</ele>
        <time>2015-02-22T12:03:58Z</time>
      </trkpt>
      <trkpt lat="49.75487" lon="5.64375">
        <ele>395</ele>
        <time>2015-02-22T12:04:04Z</time>
      </trkpt>
      <trkpt lat="49.75492" lon="5.64377">
        <ele>395</ele>
        <time>2015-02-22T12:04:09Z</time>
      </trkpt>
      <trkpt lat="49.75498" lon="5.64381">
        <ele>395</ele>
        <time>2015-02-22T12:04:14Z</time>
      </trkpt>
      <trkpt lat="49.75504" lon="5.64383">
        <ele>395</ele>
        <time>2015-02-22T12:04:19Z</time>
      </trkpt>
      <trkpt lat="49.75507" lon="5.64385">
        <ele>395</ele>
        <time>2015-02-22T12:04:25Z</time>
      </trkpt>
      <trkpt lat="49.7551" lon="5.64389">
        <ele>396</ele>
        <time>2015-02-22T12:04:31Z</time>
      </trkpt>
      <trkpt lat="49.75511" lon="5.64394">
        <ele>396</ele>
        <time>2015-02-22T12:04:37Z</time>
      </trkpt>
      <trkpt lat="49.75511" lon="5.64397">
        <ele>396</ele>
        <time>2015-02-22T12:04:42Z</time>
      </trkpt>
      <trkpt lat="49.75509" lon="5.64402">
        <ele>397</ele>
        <time>2015-02-22T12:04:48Z</time>
      </trkpt>
      <trkpt lat="49.75508" lon="5.64406">
        <ele>396</ele>
        <time>2015-02-22T12:04:53Z</time>
      </trkpt>
      <trkpt lat="49.75509" lon="5.64408">
        <ele>396</ele>
        <time>2015-02-22T12:04:59Z</time>
      </trkpt>
      <trkpt lat="49.7551" lon="5.64409">
        <ele>397</ele>
        <time>2015-02-22T12:05:04Z</time>
      </trkpt>
      <trkpt lat="49.75511" lon="5.6441">
        <ele>397</ele>
        <time>2015-02-22T12:05:09Z</time>
      </trkpt>
      <trkpt lat="49.75511" lon="5.64409">
        <ele>397</ele>
        <time>2015-02-22T12:05:14Z</time>
      </trkpt>
      <trkpt lat="49.75511" lon="5.64408">
        <ele>396</ele>
        <time>2015-02-22T12:05:20Z</time>
      </trkpt>
      <trkpt lat="49.75512" lon="5.6441">
        <ele>396</ele>
        <time>2015-02-22T12:05:25Z</time>
      </trkpt>
      <trkpt lat="49.7551" lon="5.64417">
        <ele>396</ele>
        <time>2015-02-22T12:05:30Z</time>
      </trkpt>
      <trkpt lat="49.7551" lon="5.64415">
        <ele>395</ele>
        <time>2015-02-22T12:05:35Z</time>
      </trkpt>
      <trkpt lat="49.7551" lon="5.64413">
        <ele>395</ele>
        <time>2015-02-22T12:05:41Z</time>
      </trkpt>
      <trkpt lat="49.7551" lon="5.64411">
        <ele>395</ele>
        <time>2015-02-22T12:05:46Z</time>
      </trkpt>
      <trkpt lat="49.75509" lon="5.64409">
        <ele>395</ele>
        <time>2015-02-22T12:05:51Z</time>
      </trkpt>
      <trkpt lat="49.75508" lon="5.64407">
        <ele>395</ele>
        <time>2015-02-22T12:05:57Z</time>
      </trkpt>
      <trkpt lat="49.75507" lon="5.64406">
        <ele>395</ele>
        <time>2015-02-22T12:06:03Z</time>
      </trkpt>
      <trkpt lat="49.75505" lon="5.64405">
        <ele>396</ele>
        <time>2015-02-22T12:06:08Z</time>
      </trkpt>
      <trkpt lat="49.75504" lon="5.64403">
        <ele>395</ele>
        <time>2015-02-22T12:06:15Z</time>
      </trkpt>
      <trkpt lat="49.75503" lon="5.64403">
        <ele>395</ele>
        <time>2015-02-22T12:06:21Z</time>
      </trkpt>
      <trkpt lat="49.75502" lon="5.64401">
        <ele>396</ele>
        <time>2015-02-22T12:06:26Z</time>
      </trkpt>
      <trkpt lat="49.75504" lon="5.644">
        <ele>395</ele>
        <time>2015-02-22T12:06:32Z</time>
      </trkpt>
      <trkpt lat="49.75504" lon="5.64399">
        <ele>395</ele>
        <time>2015-02-22T12:06:38Z</time>
      </trkpt>
      <trkpt lat="49.75505" lon="5.64399">
        <ele>395</ele>
        <time>2015-02-22T12:06:43Z</time>
      </trkpt>
      <trkpt lat="49.75505" lon="5.64399">
        <ele>396</ele>
        <time>2015-02-22T12:06:50Z</time>
      </trkpt>
      <trkpt lat="49.75505" lon="5.64398">
        <ele>395</ele>
        <time>2015-02-22T12:06:55Z</time>
      </trkpt>
      <trkpt lat="49.75505" lon="5.64398">
        <ele>395</ele>
        <time>2015-02-22T12:07:00Z</time>
      </trkpt>
      <trkpt lat="49.75506" lon="5.64397">
        <ele>395</ele>
        <time>2015-02-22T12:07:06Z</time>
      </trkpt>
      <trkpt lat="49.75506" lon="5.64398">
        <ele>395</ele>
        <time>2015-02-22T12:07:11Z</time>
      </trkpt>
      <trkpt lat="49.75507" lon="5.644">
        <ele>400</ele>
        <time>2015-02-22T12:07:18Z</time>
      </trkpt>
      <trkpt lat="49.75507" lon="5.644">
        <ele>396</ele>
        <time>2015-02-22T12:07:23Z</time>
      </trkpt>
      <trkpt lat="49.75511" lon="5.64397">
        <ele>396</ele>
        <time>2015-02-22T12:07:29Z</time>
      </trkpt>
      <trkpt lat="49.75517" lon="5.644">
        <ele>396</ele>
        <time>2015-02-22T12:07:34Z</time>
      </trkpt>
      <trkpt lat="49.75522" lon="5.64401">
        <ele>396</ele>
        <time>2015-02-22T12:07:40Z</time>
      </trkpt>
      <trkpt lat="49.75528" lon="5.64403">
        <ele>395</ele>
        <time>2015-02-22T12:07:45Z</time>
      </trkpt>
      <trkpt lat="49.75532" lon="5.64405">
        <ele>395</ele>
        <time>2015-02-22T12:07:51Z</time>
      </trkpt>
      <trkpt lat="49.75536" lon="5.64407">
        <ele>395</ele>
        <time>2015-02-22T12:07:56Z</time>
      </trkpt>
      <trkpt lat="49.75541" lon="5.64411">
        <ele>396</ele>
        <time>2015-02-22T12:08:01Z</time>
      </trkpt>
      <trkpt lat="49.75544" lon="5.64414">
        <ele>396</ele>
        <time>2015-02-22T12:08:06Z</time>
      </trkpt>
      <trkpt lat="49.75549" lon="5.64419">
        <ele>396</ele>
        <time>2015-02-22T12:08:11Z</time>
      </trkpt>
      <trkpt lat="49.75553" lon="5.64423">
        <ele>396</ele>
        <time>2015-02-22T12:08:16Z</time>
      </trkpt>
      <trkpt lat="49.75557" lon="5.64429">
        <ele>396</ele>
        <time>2015-02-22T12:08:22Z</time>
      </trkpt>
      <trkpt lat="49.75565" lon="5.64435">
        <ele>396</ele>
        <time>2015-02-22T12:08:27Z</time>
      </trkpt>
      <trkpt lat="49.75571" lon="5.64442">
        <ele>397</ele>
        <time>2015-02-22T12:08:33Z</time>
      </trkpt>
      <trkpt lat="49.75576" lon="5.64447">
        <ele>397</ele>
        <time>2015-02-22T12:08:38Z</time>
      </trkpt>
      <trkpt lat="49.75581" lon="5.64454">
        <ele>397</ele>
        <time>2015-02-22T12:08:44Z</time>
      </trkpt>
      <trkpt lat="49.75586" lon="5.64461">
        <ele>398</ele>
        <time>2015-02-22T12:08:49Z</time>
      </trkpt>
      <trkpt lat="49.7559" lon="5.64467">
        <ele>398</ele>
        <time>2015-02-22T12:08:55Z</time>
      </trkpt>
      <trkpt lat="49.75594" lon="5.64476">
        <ele>398</ele>
        <time>2015-02-22T12:09:00Z</time>
      </trkpt>
      <trkpt lat="49.75599" lon="5.64483">
        <ele>399</ele>
        <time>2015-02-22T12:09:05Z</time>
      </trkpt>
      <trkpt lat="49.75603" lon="5.64491">
        <ele>399</ele>
        <time>2015-02-22T12:09:11Z</time>
      </trkpt>
      <trkpt lat="49.75607" lon="5.64499">
        <ele>399</ele>
        <time>2015-02-22T12:09:17Z</time>
      </trkpt>
      <trkpt lat="49.75613" lon="5.64505">
        <ele>399</ele>
        <time>2015-02-22T12:09:22Z</time>
      </trkpt>
      <trkpt lat="49.75616" lon="5.64512">
        <ele>400</ele>
        <time>2015-02-22T12:09:29Z</time>
      </trkpt>
      <trkpt lat="49.75622" lon="5.64518">
        <ele>399</ele>
        <time>2015-02-22T12:09:34Z</time>
      </trkpt>
      <trkpt lat="49.75627" lon="5.64528">
        <ele>399</ele>
        <time>2015-02-22T12:09:40Z</time>
      </trkpt>
      <trkpt lat="49.75629" lon="5.64533">
        <ele>399</ele>
        <time>2015-02-22T12:09:46Z</time>
      </trkpt>
      <trkpt lat="49.7563" lon="5.64536">
        <ele>399</ele>
        <time>2015-02-22T12:09:51Z</time>
      </trkpt>
      <trkpt lat="49.75632" lon="5.64536">
        <ele>399</ele>
        <time>2015-02-22T12:09:57Z</time>
      </trkpt>
      <trkpt lat="49.75634" lon="5.64537">
        <ele>399</ele>
        <time>2015-02-22T12:10:02Z</time>
      </trkpt>
      <trkpt lat="49.75634" lon="5.64538">
        <ele>399</ele>
        <time>2015-02-22T12:10:07Z</time>
      </trkpt>
      <trkpt lat="49.75632" lon="5.64537">
        <ele>399</ele>
        <time>2015-02-22T12:10:13Z</time>
      </trkpt>
      <trkpt lat="49.75631" lon="5.64538">
        <ele>399</ele>
        <time>2015-02-22T12:10:18Z</time>
      </trkpt>
      <trkpt lat="49.75629" lon="5.64533">
        <ele>399</ele>
        <time>2015-02-22T12:10:23Z</time>
      </trkpt>
      <trkpt lat="49.7563" lon="5.64531">
        <ele>399</ele>
        <time>2015-02-22T12:10:29Z</time>
      </trkpt>
      <trkpt lat="49.75631" lon="5.64531">
        <ele>399</ele>
        <time>2015-02-22T12:10:34Z</time>
      </trkpt>
      <trkpt lat="49.75632" lon="5.64529">
        <ele>399</ele>
        <time>2015-02-22T12:10:39Z</time>
      </trkpt>
      <trkpt lat="49.75633" lon="5.64527">
        <ele>399</ele>
        <time>2015-02-22T12:10:44Z</time>
      </trkpt>
      <trkpt lat="49.75632" lon="5.64524">
        <ele>399</ele>
        <time>2015-02-22T12:10:49Z</time>
      </trkpt>
      <trkpt lat="49.75631" lon="5.64521">
        <ele>399</ele>
        <time>2015-02-22T12:10:55Z</time>
      </trkpt>
      <trkpt lat="49.7563" lon="5.64516">
        <ele>399</ele>
        <time>2015-02-22T12:11:00Z</time>
      </trkpt>
      <trkpt lat="49.75629" lon="5.64512">
        <ele>399</ele>
        <time>2015-02-22T12:11:05Z</time>
      </trkpt>
      <trkpt lat="49.75629" lon="5.6451">
        <ele>399</ele>
        <time>2015-02-22T12:11:11Z</time>
      </trkpt>
      <trkpt lat="49.7563" lon="5.64509">
        <ele>399</ele>
        <time>2015-02-22T12:11:17Z</time>
      </trkpt>
      <trkpt lat="49.7563" lon="5.6451">
        <ele>399</ele>
        <time>2015-02-22T12:11:22Z</time>
      </trkpt>
      <trkpt lat="49.75631" lon="5.64511">
        <ele>400</ele>
        <time>2015-02-22T12:11:27Z</time>
      </trkpt>
      <trkpt lat="49.75632" lon="5.64512">
        <ele>399</ele>
        <time>2015-02-22T12:11:32Z</time>
      </trkpt>
      <trkpt lat="49.75631" lon="5.64513">
        <ele>399</ele>
        <time>2015-02-22T12:11:37Z</time>
      </trkpt>
      <trkpt lat="49.75629" lon="5.64515">
        <ele>399</ele>
        <time>2015-02-22T12:11:43Z</time>
      </trkpt>
      <trkpt lat="49.75627" lon="5.64515">
        <ele>399</ele>
        <time>2015-02-22T12:11:48Z</time>
      </trkpt>
      <trkpt lat="49.75625" lon="5.64515">
        <ele>399</ele>
        <time>2015-02-22T12:11:53Z</time>
      </trkpt>
      <trkpt lat="49.75623" lon="5.64513">
        <ele>399</ele>
        <time>2015-02-22T12:11:58Z</time>
      </trkpt>
      <trkpt lat="49.75621" lon="5.64511">
        <ele>399</ele>
        <time>2015-02-22T12:12:04Z</time>
      </trkpt>
      <trkpt lat="49.7562" lon="5.6451">
        <ele>400</ele>
        <time>2015-02-22T12:12:09Z</time>
      </trkpt>
      <trkpt lat="49.75619" lon="5.64511">
        <ele>399</ele>
        <time>2015-02-22T12:12:16Z</time>
      </trkpt>
      <trkpt lat="49.75619" lon="5.64513">
        <ele>399</ele>
        <time>2015-02-22T12:12:21Z</time>
      </trkpt>
      <trkpt lat="49.75619" lon="5.64515">
        <ele>399</ele>
        <time>2015-02-22T12:12:27Z</time>
      </trkpt>
      <trkpt lat="49.75619" lon="5.64517">
        <ele>399</ele>
        <time>2015-02-22T12:12:32Z</time>
      </trkpt>
      <trkpt lat="49.75619" lon="5.64519">
        <ele>399</ele>
        <time>2015-02-22T12:12:38Z</time>
      </trkpt>
      <trkpt lat="49.7562" lon="5.64522">
        <ele>399</ele>
        <time>2015-02-22T12:12:44Z</time>
      </trkpt>
      <trkpt lat="49.75623" lon="5.64526">
        <ele>399</ele>
        <time>2015-02-22T12:12:49Z</time>
      </trkpt>
      <trkpt lat="49.75629" lon="5.6453">
        <ele>399</ele>
        <time>2015-02-22T12:12:55Z</time>
      </trkpt>
      <trkpt lat="49.75634" lon="5.64534">
        <ele>399</ele>
        <time>2015-02-22T12:13:00Z</time>
      </trkpt>
      <trkpt lat="49.75641" lon="5.64537">
        <ele>400</ele>
        <time>2015-02-22T12:13:05Z</time>
      </trkpt>
      <trkpt lat="49.75647" lon="5.6454">
        <ele>399</ele>
        <time>2015-02-22T12:13:10Z</time>
      </trkpt>
      <trkpt lat="49.75653" lon="5.64543">
        <ele>399</ele>
        <time>2015-02-22T12:13:15Z</time>
      </trkpt>
      <trkpt lat="49.7566" lon="5.64546">
        <ele>399</ele>
        <time>2015-02-22T12:13:20Z</time>
      </trkpt>
      <trkpt lat="49.75667" lon="5.64549">
        <ele>399</ele>
        <time>2015-02-22T12:13:26Z</time>
      </trkpt>
      <trkpt lat="49.75672" lon="5.64551">
        <ele>400</ele>
        <time>2015-02-22T12:13:31Z</time>
      </trkpt>
      <trkpt lat="49.7568" lon="5.6455">
        <ele>400</ele>
        <time>2015-02-22T12:13:37Z</time>
      </trkpt>
      <trkpt lat="49.75689" lon="5.6455">
        <ele>399</ele>
        <time>2015-02-22T12:13:43Z</time>
      </trkpt>
      <trkpt lat="49.75697" lon="5.64548">
        <ele>399</ele>
        <time>2015-02-22T12:13:49Z</time>
      </trkpt>
      <trkpt lat="49.75704" lon="5.64547">
        <ele>398</ele>
        <time>2015-02-22T12:13:54Z</time>
      </trkpt>
      <trkpt lat="49.75711" lon="5.64545">
        <ele>398</ele>
        <time>2015-02-22T12:14:00Z</time>
      </trkpt>
      <trkpt lat="49.75717" lon="5.64544">
        <ele>398</ele>
        <time>2015-02-22T12:14:05Z</time>
      </trkpt>
      <trkpt lat="49.75724" lon="5.64545">
        <ele>398</ele>
        <time>2015-02-22T12:14:11Z</time>
      </trkpt>
      <trkpt lat="49.75731" lon="5.64546">
        <ele>398</ele>
        <time>2015-02-22T12:14:16Z</time>
      </trkpt>
      <trkpt lat="49.75739" lon="5.64547">
        <ele>398</ele>
        <time>2015-02-22T12:14:22Z</time>
      </trkpt>
      <trkpt lat="49.75746" lon="5.64548">
        <ele>398</ele>
        <time>2015-02-22T12:14:28Z</time>
      </trkpt>
      <trkpt lat="49.75755" lon="5.6455">
        <ele>398</ele>
        <time>2015-02-22T12:14:33Z</time>
      </trkpt>
      <trkpt lat="49.75762" lon="5.64551">
        <ele>399</ele>
        <time>2015-02-22T12:14:39Z</time>
      </trkpt>
      <trkpt lat="49.7577" lon="5.64553">
        <ele>399</ele>
        <time>2015-02-22T12:14:45Z</time>
      </trkpt>
      <trkpt lat="49.75777" lon="5.64555">
        <ele>399</ele>
        <time>2015-02-22T12:14:51Z</time>
      </trkpt>
      <trkpt lat="49.75784" lon="5.64557">
        <ele>400</ele>
        <time>2015-02-22T12:14:56Z</time>
      </trkpt>
      <trkpt lat="49.7579" lon="5.6456">
        <ele>399</ele>
        <time>2015-02-22T12:15:01Z</time>
      </trkpt>
      <trkpt lat="49.75798" lon="5.64563">
        <ele>400</ele>
        <time>2015-02-22T12:15:07Z</time>
      </trkpt>
      <trkpt lat="49.75805" lon="5.64566">
        <ele>400</ele>
        <time>2015-02-22T12:15:12Z</time>
      </trkpt>
      <trkpt lat="49.75812" lon="5.64568">
        <ele>400</ele>
        <time>2015-02-22T12:15:18Z</time>
      </trkpt>
      <trkpt lat="49.75818" lon="5.64569">
        <ele>401</ele>
        <time>2015-02-22T12:15:23Z</time>
      </trkpt>
      <trkpt lat="49.75826" lon="5.64571">
        <ele>401</ele>
        <time>2015-02-22T12:15:29Z</time>
      </trkpt>
      <trkpt lat="49.75835" lon="5.64571">
        <ele>401</ele>
        <time>2015-02-22T12:15:35Z</time>
      </trkpt>
      <trkpt lat="49.75842" lon="5.64573">
        <ele>401</ele>
        <time>2015-02-22T12:15:40Z</time>
      </trkpt>
      <trkpt lat="49.75849" lon="5.64574">
        <ele>401</ele>
        <time>2015-02-22T12:15:45Z</time>
      </trkpt>
      <trkpt lat="49.75857" lon="5.64575">
        <ele>401</ele>
        <time>2015-02-22T12:15:51Z</time>
      </trkpt>
      <trkpt lat="49.75864" lon="5.64575">
        <ele>401</ele>
        <time>2015-02-22T12:15:56Z</time>
      </trkpt>
      <trkpt lat="49.75871" lon="5.64577">
        <ele>401</ele>
        <time>2015-02-22T12:16:02Z</time>
      </trkpt>
      <trkpt lat="49.75877" lon="5.64579">
        <ele>401</ele>
        <time>2015-02-22T12:16:08Z</time>
      </trkpt>
      <trkpt lat="49.75884" lon="5.64583">
        <ele>402</ele>
        <time>2015-02-22T12:16:13Z</time>
      </trkpt>
      <trkpt lat="49.7589" lon="5.6459">
        <ele>402</ele>
        <time>2015-02-22T12:16:19Z</time>
      </trkpt>
      <trkpt lat="49.75897" lon="5.64596">
        <ele>402</ele>
        <time>2015-02-22T12:16:25Z</time>
      </trkpt>
      <trkpt lat="49.75904" lon="5.64603">
        <ele>402</ele>
        <time>2015-02-22T12:16:32Z</time>
      </trkpt>
      <trkpt lat="49.7591" lon="5.64608">
        <ele>402</ele>
        <time>2015-02-22T12:16:37Z</time>
      </trkpt>
      <trkpt lat="49.75917" lon="5.64613">
        <ele>403</ele>
        <time>2015-02-22T12:16:43Z</time>
      </trkpt>
      <trkpt lat="49.75924" lon="5.64616">
        <ele>403</ele>
        <time>2015-02-22T12:16:49Z</time>
      </trkpt>
      <trkpt lat="49.7593" lon="5.64619">
        <ele>403</ele>
        <time>2015-02-22T12:16:55Z</time>
      </trkpt>
      <trkpt lat="49.75933" lon="5.64621">
        <ele>404</ele>
        <time>2015-02-22T12:17:00Z</time>
      </trkpt>
      <trkpt lat="49.75937" lon="5.64622">
        <ele>404</ele>
        <time>2015-02-22T12:17:06Z</time>
      </trkpt>
      <trkpt lat="49.75941" lon="5.64626">
        <ele>404</ele>
        <time>2015-02-22T12:17:11Z</time>
      </trkpt>
      <trkpt lat="49.75943" lon="5.64628">
        <ele>404</ele>
        <time>2015-02-22T12:17:16Z</time>
      </trkpt>
      <trkpt lat="49.75945" lon="5.6463">
        <ele>404</ele>
        <time>2015-02-22T12:17:21Z</time>
      </trkpt>
      <trkpt lat="49.7595" lon="5.64633">
        <ele>404</ele>
        <time>2015-02-22T12:17:26Z</time>
      </trkpt>
      <trkpt lat="49.75956" lon="5.64638">
        <ele>405</ele>
        <time>2015-02-22T12:17:32Z</time>
      </trkpt>
      <trkpt lat="49.75962" lon="5.64638">
        <ele>405</ele>
        <time>2015-02-22T12:17:37Z</time>
      </trkpt>
      <trkpt lat="49.75969" lon="5.64638">
        <ele>404</ele>
        <time>2015-02-22T12:17:43Z</time>
      </trkpt>
      <trkpt lat="49.75975" lon="5.64636">
        <ele>403</ele>
        <time>2015-02-22T12:17:49Z</time>
      </trkpt>
      <trkpt lat="49.75981" lon="5.64633">
        <ele>403</ele>
        <time>2015-02-22T12:17:55Z</time>
      </trkpt>
      <trkpt lat="49.75986" lon="5.64631">
        <ele>402</ele>
        <time>2015-02-22T12:18:01Z</time>
      </trkpt>
      <trkpt lat="49.75993" lon="5.64628">
        <ele>402</ele>
        <time>2015-02-22T12:18:07Z</time>
      </trkpt>
      <trkpt lat="49.75998" lon="5.64625">
        <ele>401</ele>
        <time>2015-02-22T12:18:12Z</time>
      </trkpt>
      <trkpt lat="49.76002" lon="5.6462">
        <ele>402</ele>
        <time>2015-02-22T12:18:18Z</time>
      </trkpt>
      <trkpt lat="49.76006" lon="5.64619">
        <ele>402</ele>
        <time>2015-02-22T12:18:23Z</time>
      </trkpt>
      <trkpt lat="49.76013" lon="5.64619">
        <ele>402</ele>
        <time>2015-02-22T12:18:28Z</time>
      </trkpt>
      <trkpt lat="49.7602" lon="5.64623">
        <ele>402</ele>
        <time>2015-02-22T12:18:34Z</time>
      </trkpt>
      <trkpt lat="49.76026" lon="5.64628">
        <ele>402</ele>
        <time>2015-02-22T12:18:39Z</time>
      </trkpt>
      <trkpt lat="49.76032" lon="5.64635">
        <ele>402</ele>
        <time>2015-02-22T12:18:45Z</time>
      </trkpt>
      <trkpt lat="49.76036" lon="5.64641">
        <ele>402</ele>
        <time>2015-02-22T12:18:50Z</time>
      </trkpt>
      <trkpt lat="49.76041" lon="5.64648">
        <ele>402</ele>
        <time>2015-02-22T12:18:56Z</time>
      </trkpt>
      <trkpt lat="49.76045" lon="5.64653">
        <ele>402</ele>
        <time>2015-02-22T12:19:01Z</time>
      </trkpt>
      <trkpt lat="49.76051" lon="5.6466">
        <ele>403</ele>
        <time>2015-02-22T12:19:07Z</time>
      </trkpt>
      <trkpt lat="49.76055" lon="5.64669">
        <ele>404</ele>
        <time>2015-02-22T12:19:12Z</time>
      </trkpt>
      <trkpt lat="49.76061" lon="5.64678">
        <ele>403</ele>
        <time>2015-02-22T12:19:18Z</time>
      </trkpt>
      <trkpt lat="49.76065" lon="5.64687">
        <ele>403</ele>
        <time>2015-02-22T12:19:23Z</time>
      </trkpt>
      <trkpt lat="49.76069" lon="5.64698">
        <ele>403</ele>
        <time>2015-02-22T12:19:29Z</time>
      </trkpt>
      <trkpt lat="49.76072" lon="5.64707">
        <ele>403</ele>
        <time>2015-02-22T12:19:34Z</time>
      </trkpt>
      <trkpt lat="49.76074" lon="5.64718">
        <ele>403</ele>
        <time>2015-02-22T12:19:40Z</time>
      </trkpt>
      <trkpt lat="49.76075" lon="5.64729">
        <ele>404</ele>
        <time>2015-02-22T12:19:46Z</time>
      </trkpt>
      <trkpt lat="49.76075" lon="5.64737">
        <ele>404</ele>
        <time>2015-02-22T12:19:52Z</time>
      </trkpt>
      <trkpt lat="49.76075" lon="5.64748">
        <ele>404</ele>
        <time>2015-02-22T12:19:57Z</time>
      </trkpt>
      <trkpt lat="49.76075" lon="5.64755">
        <ele>405</ele>
        <time>2015-02-22T12:20:02Z</time>
      </trkpt>
      <trkpt lat="49.76075" lon="5.64765">
        <ele>405</ele>
        <time>2015-02-22T12:20:07Z</time>
      </trkpt>
      <trkpt lat="49.76075" lon="5.64775">
        <ele>406</ele>
        <time>2015-02-22T12:20:13Z</time>
      </trkpt>
      <trkpt lat="49.76075" lon="5.64785">
        <ele>407</ele>
        <time>2015-02-22T12:20:19Z</time>
      </trkpt>
      <trkpt lat="49.76075" lon="5.64794">
        <ele>407</ele>
        <time>2015-02-22T12:20:25Z</time>
      </trkpt>
      <trkpt lat="49.76075" lon="5.64805">
        <ele>408</ele>
        <time>2015-02-22T12:20:30Z</time>
      </trkpt>
      <trkpt lat="49.76074" lon="5.64814">
        <ele>409</ele>
        <time>2015-02-22T12:20:35Z</time>
      </trkpt>
      <trkpt lat="49.76074" lon="5.64822">
        <ele>409</ele>
        <time>2015-02-22T12:20:41Z</time>
      </trkpt>
      <trkpt lat="49.76073" lon="5.64829">
        <ele>409</ele>
        <time>2015-02-22T12:20:46Z</time>
      </trkpt>
      <trkpt lat="49.76072" lon="5.64837">
        <ele>409</ele>
        <time>2015-02-22T12:20:52Z</time>
      </trkpt>
      <trkpt lat="49.7607" lon="5.64841">
        <ele>409</ele>
        <time>2015-02-22T12:20:57Z</time>
      </trkpt>
      <trkpt lat="49.76069" lon="5.64844">
        <ele>409</ele>
        <time>2015-02-22T12:21:03Z</time>
      </trkpt>
      <trkpt lat="49.7607" lon="5.64844">
        <ele>409</ele>
        <time>2015-02-22T12:21:08Z</time>
      </trkpt>
      <trkpt lat="49.76069" lon="5.64842">
        <ele>408</ele>
        <time>2015-02-22T12:21:13Z</time>
      </trkpt>
      <trkpt lat="49.76067" lon="5.64841">
        <ele>409</ele>
        <time>2015-02-22T12:21:19Z</time>
      </trkpt>
      <trkpt lat="49.76066" lon="5.64839">
        <ele>408</ele>
        <time>2015-02-22T12:21:24Z</time>
      </trkpt>
      <trkpt lat="49.76063" lon="5.64839">
        <ele>408</ele>
        <time>2015-02-22T12:21:29Z</time>
      </trkpt>
      <trkpt lat="49.76061" lon="5.64837">
        <ele>408</ele>
        <time>2015-02-22T12:21:35Z</time>
      </trkpt>
      <trkpt lat="49.76059" lon="5.64835">
        <ele>408</ele>
        <time>2015-02-22T12:21:40Z</time>
      </trkpt>
      <trkpt lat="49.76058" lon="5.64832">
        <ele>408</ele>
        <time>2015-02-22T12:21:45Z</time>
      </trkpt>
      <trkpt lat="49.76058" lon="5.6483">
        <ele>408</ele>
        <time>2015-02-22T12:21:50Z</time>
      </trkpt>
      <trkpt lat="49.76058" lon="5.64827">
        <ele>409</ele>
        <time>2015-02-22T12:21:56Z</time>
      </trkpt>
      <trkpt lat="49.76057" lon="5.64823">
        <ele>408</ele>
        <time>2015-02-22T12:22:02Z</time>
      </trkpt>
      <trkpt lat="49.76057" lon="5.64821">
        <ele>408</ele>
        <time>2015-02-22T12:22:07Z</time>
      </trkpt>
      <trkpt lat="49.76058" lon="5.64819">
        <ele>408</ele>
        <time>2015-02-22T12:22:13Z</time>
      </trkpt>
      <trkpt lat="49.7606" lon="5.64821">
        <ele>407</ele>
        <time>2015-02-22T12:22:18Z</time>
      </trkpt>
      <trkpt lat="49.76061" lon="5.64822">
        <ele>408</ele>
        <time>2015-02-22T12:22:24Z</time>
      </trkpt>
      <trkpt lat="49.76062" lon="5.64823">
        <ele>413</ele>
        <time>2015-02-22T12:22:31Z</time>
      </trkpt>
      <trkpt lat="49.7606" lon="5.64822">
        <ele>412</ele>
        <time>2015-02-22T12:22:36Z</time>
      </trkpt>
      <trkpt lat="49.76059" lon="5.6482">
        <ele>411</ele>
        <time>2015-02-22T12:22:42Z</time>
      </trkpt>
      <trkpt lat="49.76058" lon="5.64819">
        <ele>409</ele>
        <time>2015-02-22T12:22:48Z</time>
      </trkpt>
      <trkpt lat="49.76058" lon="5.64817">
        <ele>409</ele>
        <time>2015-02-22T12:22:53Z</time>
      </trkpt>
      <trkpt lat="49.76058" lon="5.64817">
        <ele>408</ele>
        <time>2015-02-22T12:23:00Z</time>
      </trkpt>
      <trkpt lat="49.76059" lon="5.64817">
        <ele>408</ele>
        <time>2015-02-22T12:23:05Z</time>
      </trkpt>
      <trkpt lat="49.7606" lon="5.64817">
        <ele>408</ele>
        <time>2015-02-22T12:23:11Z</time>
      </trkpt>
      <trkpt lat="49.76061" lon="5.64818">
        <ele>408</ele>
        <time>2015-02-22T12:23:17Z</time>
      </trkpt>
      <trkpt lat="49.76062" lon="5.64819">
        <ele>407</ele>
        <time>2015-02-22T12:23:27Z</time>
      </trkpt>
      <trkpt lat="49.76061" lon="5.64818">
        <ele>407</ele>
        <time>2015-02-22T12:23:33Z</time>
      </trkpt>
      <trkpt lat="49.76062" lon="5.64819">
        <ele>407</ele>
        <time>2015-02-22T12:23:38Z</time>
      </trkpt>
      <trkpt lat="49.76062" lon="5.6482">
        <ele>407</ele>
        <time>2015-02-22T12:23:44Z</time>
      </trkpt>
      <trkpt lat="49.76061" lon="5.64821">
        <ele>407</ele>
        <time>2015-02-22T12:23:50Z</time>
      </trkpt>
      <trkpt lat="49.76061" lon="5.64822">
        <ele>407</ele>
        <time>2015-02-22T12:23:56Z</time>
      </trkpt>
      <trkpt lat="49.76058" lon="5.64822">
        <ele>407</ele>
        <time>2015-02-22T12:24:01Z</time>
      </trkpt>
      <trkpt lat="49.76057" lon="5.64823">
        <ele>407</ele>
        <time>2015-02-22T12:24:06Z</time>
      </trkpt>
      <trkpt lat="49.76057" lon="5.64824">
        <ele>406</ele>
        <time>2015-02-22T12:24:12Z</time>
      </trkpt>
      <trkpt lat="49.76058" lon="5.64825">
        <ele>407</ele>
        <time>2015-02-22T12:24:19Z</time>
      </trkpt>
      <trkpt lat="49.76059" lon="5.64826">
        <ele>407</ele>
        <time>2015-02-22T12:24:24Z</time>
      </trkpt>
      <trkpt lat="49.76059" lon="5.64826">
        <ele>407</ele>
        <time>2015-02-22T12:24:30Z</time>
      </trkpt>
      <trkpt lat="49.7606" lon="5.64826">
        <ele>407</ele>
        <time>2015-02-22T12:24:35Z</time>
      </trkpt>
      <trkpt lat="49.7606" lon="5.64827">
        <ele>407</ele>
        <time>2015-02-22T12:24:41Z</time>
      </trkpt>
      <trkpt lat="49.7606" lon="5.64826">
        <ele>406</ele>
        <time>2015-02-22T12:24:47Z</time>
      </trkpt>
      <trkpt lat="49.7606" lon="5.64827">
        <ele>406</ele>
        <time>2015-02-22T12:24:53Z</time>
      </trkpt>
      <trkpt lat="49.7606" lon="5.64827">
        <ele>407</ele>
        <time>2015-02-22T12:25:00Z</time>
      </trkpt>
      <trkpt lat="49.76061" lon="5.64827">
        <ele>407</ele>
        <time>2015-02-22T12:25:05Z</time>
      </trkpt>
      <trkpt lat="49.76062" lon="5.64827">
        <ele>406</ele>
        <time>2015-02-22T12:25:10Z</time>
      </trkpt>
      <trkpt lat="49.76062" lon="5.64826">
        <ele>406</ele>
        <time>2015-02-22T12:25:15Z</time>
      </trkpt>
      <trkpt lat="49.76062" lon="5.64824">
        <ele>405</ele>
        <time>2015-02-22T12:25:21Z</time>
      </trkpt>
      <trkpt lat="49.76061" lon="5.64823">
        <ele>404</ele>
        <time>2015-02-22T12:25:26Z</time>
      </trkpt>
      <trkpt lat="49.76061" lon="5.64823">
        <ele>405</ele>
        <time>2015-02-22T12:25:32Z</time>
      </trkpt>
      <trkpt lat="49.7606" lon="5.64822">
        <ele>405</ele>
        <time>2015-02-22T12:25:37Z</time>
      </trkpt>
      <trkpt lat="49.7606" lon="5.64821">
        <ele>404</ele>
        <time>2015-02-22T12:25:42Z</time>
      </trkpt>
      <trkpt lat="49.76059" lon="5.64822">
        <ele>404</ele>
        <time>2015-02-22T12:25:48Z</time>
      </trkpt>
      <trkpt lat="49.76059" lon="5.64822">
        <ele>404</ele>
        <time>2015-02-22T12:25:55Z</time>
      </trkpt>
      <trkpt lat="49.76059" lon="5.64822">
        <ele>404</ele>
        <time>2015-02-22T12:26:00Z</time>
      </trkpt>
      <trkpt lat="49.76059" lon="5.64822">
        <ele>404</ele>
        <time>2015-02-22T12:26:06Z</time>
      </trkpt>
      <trkpt lat="49.7606" lon="5.64823">
        <ele>404</ele>
        <time>2015-02-22T12:26:12Z</time>
      </trkpt>
      <trkpt lat="49.7606" lon="5.64822">
        <ele>404</ele>
        <time>2015-02-22T12:26:20Z</time>
      </trkpt>
      <trkpt lat="49.76059" lon="5.64822">
        <ele>403</ele>
        <time>2015-02-22T12:26:26Z</time>
      </trkpt>
      <trkpt lat="49.7606" lon="5.64821">
        <ele>405</ele>
        <time>2015-02-22T12:26:32Z</time>
      </trkpt>
      <trkpt lat="49.7606" lon="5.6482">
        <ele>405</ele>
        <time>2015-02-22T12:26:37Z</time>
      </trkpt>
      <trkpt lat="49.76061" lon="5.6482">
        <ele>406</ele>
        <time>2015-02-22T12:26:44Z</time>
      </trkpt>
      <trkpt lat="49.76063" lon="5.64821">
        <ele>406</ele>
        <time>2015-02-22T12:26:49Z</time>
      </trkpt>
      <trkpt lat="49.76064" lon="5.64821">
        <ele>404</ele>
        <time>2015-02-22T12:26:54Z</time>
      </trkpt>
      <trkpt lat="49.76064" lon="5.64822">
        <ele>411</ele>
        <time>2015-02-22T12:27:00Z</time>
      </trkpt>
      <trkpt lat="49.76064" lon="5.64823">
        <ele>411</ele>
        <time>2015-02-22T12:27:06Z</time>
      </trkpt>
      <trkpt lat="49.76063" lon="5.64825">
        <ele>409</ele>
        <time>2015-02-22T12:27:11Z</time>
      </trkpt>
      <trkpt lat="49.76061" lon="5.6483">
        <ele>409</ele>
        <time>2015-02-22T12:27:17Z</time>
      </trkpt>
      <trkpt lat="49.76061" lon="5.64838">
        <ele>409</ele>
        <time>2015-02-22T12:27:23Z</time>
      </trkpt>
      <trkpt lat="49.76062" lon="5.64849">
        <ele>409</ele>
        <time>2015-02-22T12:27:28Z</time>
      </trkpt>
      <trkpt lat="49.76065" lon="5.64858">
        <ele>408</ele>
        <time>2015-02-22T12:27:33Z</time>
      </trkpt>
      <trkpt lat="49.76069" lon="5.64868">
        <ele>409</ele>
        <time>2015-02-22T12:27:39Z</time>
      </trkpt>
      <trkpt lat="49.7607" lon="5.6488">
        <ele>408</ele>
        <time>2015-02-22T12:27:45Z</time>
      </trkpt>
      <trkpt lat="49.76071" lon="5.64889">
        <ele>408</ele>
        <time>2015-02-22T12:27:50Z</time>
      </trkpt>
      <trkpt lat="49.76073" lon="5.64898">
        <ele>408</ele>
        <time>2015-02-22T12:27:56Z</time>
      </trkpt>
      <trkpt lat="49.76074" lon="5.64906">
        <ele>408</ele>
        <time>2015-02-22T12:28:01Z</time>
      </trkpt>
      <trkpt lat="49.76076" lon="5.64917">
        <ele>407</ele>
        <time>2015-02-22T12:28:07Z</time>
      </trkpt>
      <trkpt lat="49.76079" lon="5.64925">
        <ele>408</ele>
        <time>2015-02-22T12:28:13Z</time>
      </trkpt>
      <trkpt lat="49.76083" lon="5.64932">
        <ele>408</ele>
        <time>2015-02-22T12:28:18Z</time>
      </trkpt>
      <trkpt lat="49.76086" lon="5.64939">
        <ele>409</ele>
        <time>2015-02-22T12:28:24Z</time>
      </trkpt>
      <trkpt lat="49.7609" lon="5.64947">
        <ele>410</ele>
        <time>2015-02-22T12:28:29Z</time>
      </trkpt>
      <trkpt lat="49.76094" lon="5.64955">
        <ele>411</ele>
        <time>2015-02-22T12:28:34Z</time>
      </trkpt>
      <trkpt lat="49.76097" lon="5.64962">
        <ele>412</ele>
        <time>2015-02-22T12:28:39Z</time>
      </trkpt>
      <trkpt lat="49.761" lon="5.6497">
        <ele>412</ele>
        <time>2015-02-22T12:28:45Z</time>
      </trkpt>
      <trkpt lat="49.76104" lon="5.64981">
        <ele>412</ele>
        <time>2015-02-22T12:28:51Z</time>
      </trkpt>
      <trkpt lat="49.76109" lon="5.64991">
        <ele>413</ele>
        <time>2015-02-22T12:28:57Z</time>
      </trkpt>
      <trkpt lat="49.76112" lon="5.65">
        <ele>413</ele>
        <time>2015-02-22T12:29:02Z</time>
      </trkpt>
      <trkpt lat="49.76116" lon="5.65009">
        <ele>414</ele>
        <time>2015-02-22T12:29:08Z</time>
      </trkpt>
      <trkpt lat="49.7612" lon="5.65017">
        <ele>415</ele>
        <time>2015-02-22T12:29:14Z</time>
      </trkpt>
      <trkpt lat="49.76123" lon="5.65024">
        <ele>415</ele>
        <time>2015-02-22T12:29:19Z</time>
      </trkpt>
      <trkpt lat="49.76126" lon="5.65029">
        <ele>416</ele>
        <time>2015-02-22T12:29:24Z</time>
      </trkpt>
      <trkpt lat="49.7613" lon="5.65034">
        <ele>416</ele>
        <time>2015-02-22T12:29:29Z</time>
      </trkpt>
      <trkpt lat="49.76133" lon="5.65041">
        <ele>417</ele>
        <time>2015-02-22T12:29:34Z</time>
      </trkpt>
      <trkpt lat="49.76139" lon="5.6505">
        <ele>418</ele>
        <time>2015-02-22T12:29:40Z</time>
      </trkpt>
      <trkpt lat="49.76142" lon="5.65058">
        <ele>418</ele>
        <time>2015-02-22T12:29:45Z</time>
      </trkpt>
      <trkpt lat="49.76145" lon="5.65065">
        <ele>419</ele>
        <time>2015-02-22T12:29:51Z</time>
      </trkpt>
      <trkpt lat="49.7615" lon="5.65074">
        <ele>420</ele>
        <time>2015-02-22T12:29:56Z</time>
      </trkpt>
      <trkpt lat="49.76156" lon="5.65082">
        <ele>421</ele>
        <time>2015-02-22T12:30:02Z</time>
      </trkpt>
      <trkpt lat="49.7616" lon="5.65091">
        <ele>421</ele>
        <time>2015-02-22T12:30:08Z</time>
      </trkpt>
      <trkpt lat="49.76164" lon="5.65099">
        <ele>421</ele>
        <time>2015-02-22T12:30:14Z</time>
      </trkpt>
      <trkpt lat="49.76167" lon="5.65105">
        <ele>421</ele>
        <time>2015-02-22T12:30:19Z</time>
      </trkpt>
      <trkpt lat="49.76171" lon="5.65114">
        <ele>421</ele>
        <time>2015-02-22T12:30:25Z</time>
      </trkpt>
      <trkpt lat="49.76176" lon="5.65121">
        <ele>422</ele>
        <time>2015-02-22T12:30:31Z</time>
      </trkpt>
      <trkpt lat="49.76181" lon="5.65126">
        <ele>422</ele>
        <time>2015-02-22T12:30:36Z</time>
      </trkpt>
      <trkpt lat="49.76186" lon="5.65133">
        <ele>422</ele>
        <time>2015-02-22T12:30:42Z</time>
      </trkpt>
      <trkpt lat="49.76192" lon="5.65138">
        <ele>422</ele>
        <time>2015-02-22T12:30:48Z</time>
      </trkpt>
      <trkpt lat="49.76197" lon="5.65143">
        <ele>422</ele>
        <time>2015-02-22T12:30:53Z</time>
      </trkpt>
      <trkpt lat="49.76202" lon="5.65146">
        <ele>422</ele>
        <time>2015-02-22T12:30:58Z</time>
      </trkpt>
      <trkpt lat="49.76207" lon="5.65148">
        <ele>421</ele>
        <time>2015-02-22T12:31:04Z</time>
      </trkpt>
      <trkpt lat="49.76212" lon="5.65152">
        <ele>421</ele>
        <time>2015-02-22T12:31:09Z</time>
      </trkpt>
      <trkpt lat="49.76217" lon="5.65155">
        <ele>421</ele>
        <time>2015-02-22T12:31:15Z</time>
      </trkpt>
      <trkpt lat="49.7622" lon="5.65158">
        <ele>421</ele>
        <time>2015-02-22T12:31:20Z</time>
      </trkpt>
      <trkpt lat="49.76226" lon="5.65163">
        <ele>421</ele>
        <time>2015-02-22T12:31:26Z</time>
      </trkpt>
      <trkpt lat="49.7623" lon="5.65166">
        <ele>421</ele>
        <time>2015-02-22T12:31:32Z</time>
      </trkpt>
      <trkpt lat="49.76235" lon="5.65169">
        <ele>421</ele>
        <time>2015-02-22T12:31:37Z</time>
      </trkpt>
      <trkpt lat="49.76242" lon="5.65173">
        <ele>421</ele>
        <time>2015-02-22T12:31:42Z</time>
      </trkpt>
      <trkpt lat="49.76248" lon="5.65178">
        <ele>421</ele>
        <time>2015-02-22T12:31:48Z</time>
      </trkpt>
      <trkpt lat="49.76254" lon="5.65182">
        <ele>421</ele>
        <time>2015-02-22T12:31:53Z</time>
      </trkpt>
      <trkpt lat="49.7626" lon="5.65188">
        <ele>421</ele>
        <time>2015-02-22T12:31:59Z</time>
      </trkpt>
      <trkpt lat="49.76265" lon="5.6519">
        <ele>420</ele>
        <time>2015-02-22T12:32:04Z</time>
      </trkpt>
      <trkpt lat="49.76268" lon="5.65192">
        <ele>420</ele>
        <time>2015-02-22T12:32:10Z</time>
      </trkpt>
      <trkpt lat="49.76271" lon="5.65194">
        <ele>421</ele>
        <time>2015-02-22T12:32:15Z</time>
      </trkpt>
      <trkpt lat="49.76276" lon="5.65198">
        <ele>420</ele>
        <time>2015-02-22T12:32:20Z</time>
      </trkpt>
      <trkpt lat="49.76279" lon="5.65201">
        <ele>420</ele>
        <time>2015-02-22T12:32:25Z</time>
      </trkpt>
      <trkpt lat="49.76284" lon="5.65204">
        <ele>420</ele>
        <time>2015-02-22T12:32:31Z</time>
      </trkpt>
      <trkpt lat="49.7629" lon="5.65206">
        <ele>420</ele>
        <time>2015-02-22T12:32:36Z</time>
      </trkpt>
      <trkpt lat="49.76295" lon="5.65208">
        <ele>420</ele>
        <time>2015-02-22T12:32:41Z</time>
      </trkpt>
      <trkpt lat="49.76301" lon="5.6521">
        <ele>420</ele>
        <time>2015-02-22T12:32:46Z</time>
      </trkpt>
      <trkpt lat="49.76308" lon="5.65212">
        <ele>420</ele>
        <time>2015-02-22T12:32:52Z</time>
      </trkpt>
      <trkpt lat="49.76313" lon="5.65213">
        <ele>420</ele>
        <time>2015-02-22T12:32:57Z</time>
      </trkpt>
      <trkpt lat="49.7632" lon="5.65216">
        <ele>420</ele>
        <time>2015-02-22T12:33:03Z</time>
      </trkpt>
      <trkpt lat="49.76328" lon="5.65218">
        <ele>420</ele>
        <time>2015-02-22T12:33:09Z</time>
      </trkpt>
      <trkpt lat="49.76332" lon="5.65221">
        <ele>421</ele>
        <time>2015-02-22T12:33:16Z</time>
      </trkpt>
      <trkpt lat="49.76338" lon="5.65223">
        <ele>420</ele>
        <time>2015-02-22T12:33:21Z</time>
      </trkpt>
      <trkpt lat="49.76345" lon="5.65227">
        <ele>420</ele>
        <time>2015-02-22T12:33:27Z</time>
      </trkpt>
      <trkpt lat="49.76349" lon="5.65228">
        <ele>420</ele>
        <time>2015-02-22T12:33:32Z</time>
      </trkpt>
      <trkpt lat="49.76355" lon="5.65229">
        <ele>420</ele>
        <time>2015-02-22T12:33:37Z</time>
      </trkpt>
      <trkpt lat="49.76361" lon="5.65231">
        <ele>420</ele>
        <time>2015-02-22T12:33:43Z</time>
      </trkpt>
      <trkpt lat="49.76363" lon="5.65231">
        <ele>420</ele>
        <time>2015-02-22T12:33:49Z</time>
      </trkpt>
      <trkpt lat="49.76368" lon="5.65234">
        <ele>420</ele>
        <time>2015-02-22T12:33:55Z</time>
      </trkpt>
      <trkpt lat="49.76373" lon="5.65238">
        <ele>420</ele>
        <time>2015-02-22T12:34:01Z</time>
      </trkpt>
      <trkpt lat="49.76378" lon="5.65242">
        <ele>420</ele>
        <time>2015-02-22T12:34:06Z</time>
      </trkpt>
      <trkpt lat="49.76384" lon="5.65248">
        <ele>419</ele>
        <time>2015-02-22T12:34:12Z</time>
      </trkpt>
      <trkpt lat="49.76389" lon="5.65255">
        <ele>419</ele>
        <time>2015-02-22T12:34:17Z</time>
      </trkpt>
      <trkpt lat="49.76394" lon="5.65261">
        <ele>420</ele>
        <time>2015-02-22T12:34:22Z</time>
      </trkpt>
      <trkpt lat="49.76399" lon="5.65267">
        <ele>419</ele>
        <time>2015-02-22T12:34:28Z</time>
      </trkpt>
      <trkpt lat="49.76404" lon="5.65273">
        <ele>419</ele>
        <time>2015-02-22T12:34:34Z</time>
      </trkpt>
      <trkpt lat="49.76408" lon="5.65277">
        <ele>419</ele>
        <time>2015-02-22T12:34:39Z</time>
      </trkpt>
      <trkpt lat="49.76414" lon="5.65282">
        <ele>419</ele>
        <time>2015-02-22T12:34:44Z</time>
      </trkpt>
      <trkpt lat="49.7642" lon="5.65286">
        <ele>419</ele>
        <time>2015-02-22T12:34:50Z</time>
      </trkpt>
      <trkpt lat="49.76426" lon="5.6529">
        <ele>419</ele>
        <time>2015-02-22T12:34:56Z</time>
      </trkpt>
      <trkpt lat="49.76433" lon="5.65295">
        <ele>419</ele>
        <time>2015-02-22T12:35:02Z</time>
      </trkpt>
      <trkpt lat="49.76437" lon="5.65298">
        <ele>419</ele>
        <time>2015-02-22T12:35:07Z</time>
      </trkpt>
      <trkpt lat="49.76442" lon="5.65303">
        <ele>419</ele>
        <time>2015-02-22T12:35:13Z</time>
      </trkpt>
      <trkpt lat="49.76445" lon="5.65306">
        <ele>420</ele>
        <time>2015-02-22T12:35:18Z</time>
      </trkpt>
      <trkpt lat="49.76449" lon="5.65308">
        <ele>420</ele>
        <time>2015-02-22T12:35:23Z</time>
      </trkpt>
      <trkpt lat="49.76454" lon="5.65309">
        <ele>420</ele>
        <time>2015-02-22T12:35:29Z</time>
      </trkpt>
      <trkpt lat="49.76458" lon="5.65312">
        <ele>420</ele>
        <time>2015-02-22T12:35:35Z</time>
      </trkpt>
      <trkpt lat="49.76463" lon="5.65315">
        <ele>421</ele>
        <time>2015-02-22T12:35:40Z</time>
      </trkpt>
      <trkpt lat="49.76468" lon="5.65317">
        <ele>421</ele>
        <time>2015-02-22T12:35:46Z</time>
      </trkpt>
      <trkpt lat="49.76472" lon="5.65319">
        <ele>422</ele>
        <time>2015-02-22T12:35:52Z</time>
      </trkpt>
      <trkpt lat="49.76478" lon="5.6532">
        <ele>422</ele>
        <time>2015-02-22T12:35:58Z</time>
      </trkpt>
      <trkpt lat="49.76483" lon="5.65322">
        <ele>422</ele>
        <time>2015-02-22T12:36:03Z</time>
      </trkpt>
      <trkpt lat="49.76488" lon="5.65322">
        <ele>422</ele>
        <time>2015-02-22T12:36:08Z</time>
      </trkpt>
      <trkpt lat="49.76495" lon="5.65324">
        <ele>422</ele>
        <time>2015-02-22T12:36:13Z</time>
      </trkpt>
      <trkpt lat="49.76502" lon="5.65325">
        <ele>422</ele>
        <time>2015-02-22T12:36:19Z</time>
      </trkpt>
      <trkpt lat="49.76506" lon="5.65325">
        <ele>422</ele>
        <time>2015-02-22T12:36:24Z</time>
      </trkpt>
      <trkpt lat="49.76508" lon="5.65323">
        <ele>423</ele>
        <time>2015-02-22T12:36:29Z</time>
      </trkpt>
      <trkpt lat="49.76509" lon="5.65323">
        <ele>423</ele>
        <time>2015-02-22T12:36:35Z</time>
      </trkpt>
      <trkpt lat="49.76514" lon="5.65325">
        <ele>423</ele>
        <time>2015-02-22T12:36:41Z</time>
      </trkpt>
      <trkpt lat="49.76517" lon="5.65325">
        <ele>423</ele>
        <time>2015-02-22T12:36:46Z</time>
      </trkpt>
      <trkpt lat="49.76522" lon="5.65326">
        <ele>423</ele>
        <time>2015-02-22T12:36:51Z</time>
      </trkpt>
      <trkpt lat="49.7653" lon="5.6533">
        <ele>423</ele>
        <time>2015-02-22T12:36:57Z</time>
      </trkpt>
      <trkpt lat="49.76536" lon="5.65333">
        <ele>423</ele>
        <time>2015-02-22T12:37:02Z</time>
      </trkpt>
      <trkpt lat="49.76541" lon="5.65335">
        <ele>423</ele>
        <time>2015-02-22T12:37:07Z</time>
      </trkpt>
      <trkpt lat="49.76549" lon="5.65336">
        <ele>423</ele>
        <time>2015-02-22T12:37:13Z</time>
      </trkpt>
      <trkpt lat="49.76555" lon="5.65338">
        <ele>423</ele>
        <time>2015-02-22T12:37:19Z</time>
      </trkpt>
      <trkpt lat="49.76561" lon="5.6534">
        <ele>424</ele>
        <time>2015-02-22T12:37:24Z</time>
      </trkpt>
      <trkpt lat="49.76566" lon="5.65341">
        <ele>424</ele>
        <time>2015-02-22T12:37:29Z</time>
      </trkpt>
      <trkpt lat="49.76571" lon="5.65342">
        <ele>424</ele>
        <time>2015-02-22T12:37:35Z</time>
      </trkpt>
      <trkpt lat="49.76577" lon="5.65342">
        <ele>424</ele>
        <time>2015-02-22T12:37:40Z</time>
      </trkpt>
      <trkpt lat="49.76582" lon="5.65341">
        <ele>424</ele>
        <time>2015-02-22T12:37:45Z</time>
      </trkpt>
      <trkpt lat="49.76587" lon="5.65339">
        <ele>423</ele>
        <time>2015-02-22T12:37:50Z</time>
      </trkpt>
      <trkpt lat="49.76593" lon="5.65335">
        <ele>424</ele>
        <time>2015-02-22T12:37:56Z</time>
      </trkpt>
      <trkpt lat="49.76599" lon="5.65333">
        <ele>424</ele>
        <time>2015-02-22T12:38:02Z</time>
      </trkpt>
      <trkpt lat="49.76603" lon="5.65328">
        <ele>424</ele>
        <time>2015-02-22T12:38:07Z</time>
      </trkpt>
      <trkpt lat="49.76609" lon="5.65324">
        <ele>424</ele>
        <time>2015-02-22T12:38:13Z</time>
      </trkpt>
      <trkpt lat="49.76613" lon="5.6532">
        <ele>424</ele>
        <time>2015-02-22T12:38:18Z</time>
      </trkpt>
      <trkpt lat="49.76619" lon="5.65316">
        <ele>424</ele>
        <time>2015-02-22T12:38:24Z</time>
      </trkpt>
      <trkpt lat="49.76625" lon="5.65312">
        <ele>425</ele>
        <time>2015-02-22T12:38:29Z</time>
      </trkpt>
      <trkpt lat="49.7663" lon="5.65308">
        <ele>425</ele>
        <time>2015-02-22T12:38:34Z</time>
      </trkpt>
      <trkpt lat="49.76636" lon="5.65303">
        <ele>425</ele>
        <time>2015-02-22T12:38:40Z</time>
      </trkpt>
      <trkpt lat="49.76641" lon="5.65298">
        <ele>425</ele>
        <time>2015-02-22T12:38:46Z</time>
      </trkpt>
      <trkpt lat="49.76648" lon="5.65295">
        <ele>425</ele>
        <time>2015-02-22T12:38:52Z</time>
      </trkpt>
      <trkpt lat="49.76653" lon="5.65291">
        <ele>425</ele>
        <time>2015-02-22T12:38:57Z</time>
      </trkpt>
      <trkpt lat="49.7666" lon="5.65286">
        <ele>425</ele>
        <time>2015-02-22T12:39:03Z</time>
      </trkpt>
      <trkpt lat="49.76667" lon="5.6528">
        <ele>425</ele>
        <time>2015-02-22T12:39:09Z</time>
      </trkpt>
      <trkpt lat="49.76671" lon="5.65276">
        <ele>425</ele>
        <time>2015-02-22T12:39:14Z</time>
      </trkpt>
      <trkpt lat="49.76677" lon="5.65272">
        <ele>425</ele>
        <time>2015-02-22T12:39:20Z</time>
      </trkpt>
      <trkpt lat="49.76681" lon="5.65271">
        <ele>425</ele>
        <time>2015-02-22T12:39:26Z</time>
      </trkpt>
      <trkpt lat="49.76686" lon="5.65267">
        <ele>425</ele>
        <time>2015-02-22T12:39:31Z</time>
      </trkpt>
      <trkpt lat="49.76691" lon="5.65262">
        <ele>426</ele>
        <time>2015-02-22T12:39:37Z</time>
      </trkpt>
      <trkpt lat="49.76697" lon="5.6526">
        <ele>426</ele>
        <time>2015-02-22T12:39:43Z</time>
      </trkpt>
      <trkpt lat="49.76703" lon="5.65257">
        <ele>426</ele>
        <time>2015-02-22T12:39:48Z</time>
      </trkpt>
      <trkpt lat="49.76708" lon="5.65257">
        <ele>426</ele>
        <time>2015-02-22T12:39:53Z</time>
      </trkpt>
      <trkpt lat="49.76714" lon="5.65256">
        <ele>426</ele>
        <time>2015-02-22T12:39:59Z</time>
      </trkpt>
      <trkpt lat="49.76719" lon="5.65255">
        <ele>426</ele>
        <time>2015-02-22T12:40:04Z</time>
      </trkpt>
      <trkpt lat="49.76725" lon="5.65255">
        <ele>427</ele>
        <time>2015-02-22T12:40:09Z</time>
      </trkpt>
      <trkpt lat="49.76731" lon="5.65255">
        <ele>427</ele>
        <time>2015-02-22T12:40:14Z</time>
      </trkpt>
      <trkpt lat="49.76738" lon="5.65256">
        <ele>427</ele>
        <time>2015-02-22T12:40:20Z</time>
      </trkpt>
      <trkpt lat="49.76745" lon="5.65258">
        <ele>427</ele>
        <time>2015-02-22T12:40:25Z</time>
      </trkpt>
      <trkpt lat="49.76751" lon="5.65259">
        <ele>427</ele>
        <time>2015-02-22T12:40:30Z</time>
      </trkpt>
      <trkpt lat="49.76757" lon="5.65261">
        <ele>427</ele>
        <time>2015-02-22T12:40:35Z</time>
      </trkpt>
      <trkpt lat="49.76763" lon="5.65265">
        <ele>427</ele>
        <time>2015-02-22T12:40:40Z</time>
      </trkpt>
      <trkpt lat="49.76769" lon="5.65269">
        <ele>427</ele>
        <time>2015-02-22T12:40:46Z</time>
      </trkpt>
      <trkpt lat="49.76775" lon="5.65272">
        <ele>427</ele>
        <time>2015-02-22T12:40:51Z</time>
      </trkpt>
      <trkpt lat="49.76781" lon="5.65276">
        <ele>427</ele>
        <time>2015-02-22T12:40:57Z</time>
      </trkpt>
      <trkpt lat="49.76787" lon="5.6528">
        <ele>427</ele>
        <time>2015-02-22T12:41:02Z</time>
      </trkpt>
      <trkpt lat="49.76793" lon="5.65284">
        <ele>427</ele>
        <time>2015-02-22T12:41:07Z</time>
      </trkpt>
      <trkpt lat="49.76799" lon="5.65287">
        <ele>427</ele>
        <time>2015-02-22T12:41:12Z</time>
      </trkpt>
      <trkpt lat="49.76806" lon="5.6529">
        <ele>427</ele>
        <time>2015-02-22T12:41:18Z</time>
      </trkpt>
      <trkpt lat="49.76812" lon="5.65293">
        <ele>428</ele>
        <time>2015-02-22T12:41:24Z</time>
      </trkpt>
      <trkpt lat="49.76818" lon="5.65296">
        <ele>427</ele>
        <time>2015-02-22T12:41:30Z</time>
      </trkpt>
      <trkpt lat="49.76824" lon="5.653">
        <ele>427</ele>
        <time>2015-02-22T12:41:36Z</time>
      </trkpt>
      <trkpt lat="49.76831" lon="5.65305">
        <ele>428</ele>
        <time>2015-02-22T12:41:42Z</time>
      </trkpt>
      <trkpt lat="49.76837" lon="5.65309">
        <ele>428</ele>
        <time>2015-02-22T12:41:48Z</time>
      </trkpt>
      <trkpt lat="49.76843" lon="5.65314">
        <ele>428</ele>
        <time>2015-02-22T12:41:53Z</time>
      </trkpt>
      <trkpt lat="49.76851" lon="5.6532">
        <ele>428</ele>
        <time>2015-02-22T12:41:59Z</time>
      </trkpt>
      <trkpt lat="49.76855" lon="5.65322">
        <ele>428</ele>
        <time>2015-02-22T12:42:04Z</time>
      </trkpt>
      <trkpt lat="49.7686" lon="5.65327">
        <ele>428</ele>
        <time>2015-02-22T12:42:09Z</time>
      </trkpt>
      <trkpt lat="49.76866" lon="5.65332">
        <ele>428</ele>
        <time>2015-02-22T12:42:15Z</time>
      </trkpt>
      <trkpt lat="49.76871" lon="5.65336">
        <ele>428</ele>
        <time>2015-02-22T12:42:20Z</time>
      </trkpt>
      <trkpt lat="49.76878" lon="5.65341">
        <ele>429</ele>
        <time>2015-02-22T12:42:26Z</time>
      </trkpt>
      <trkpt lat="49.76884" lon="5.65346">
        <ele>429</ele>
        <time>2015-02-22T12:42:32Z</time>
      </trkpt>
      <trkpt lat="49.7689" lon="5.65349">
        <ele>429</ele>
        <time>2015-02-22T12:42:37Z</time>
      </trkpt>
      <trkpt lat="49.76898" lon="5.65353">
        <ele>430</ele>
        <time>2015-02-22T12:42:43Z</time>
      </trkpt>
      <trkpt lat="49.76906" lon="5.65359">
        <ele>429</ele>
        <time>2015-02-22T12:42:49Z</time>
      </trkpt>
      <trkpt lat="49.76913" lon="5.65365">
        <ele>430</ele>
        <time>2015-02-22T12:42:55Z</time>
      </trkpt>
      <trkpt lat="49.76918" lon="5.6537">
        <ele>430</ele>
        <time>2015-02-22T12:43:00Z</time>
      </trkpt>
      <trkpt lat="49.76923" lon="5.65375">
        <ele>430</ele>
        <time>2015-02-22T12:43:06Z</time>
      </trkpt>
      <trkpt lat="49.76928" lon="5.65379">
        <ele>430</ele>
        <time>2015-02-22T12:43:11Z</time>
      </trkpt>
      <trkpt lat="49.76933" lon="5.65382">
        <ele>430</ele>
        <time>2015-02-22T12:43:17Z</time>
      </trkpt>
      <trkpt lat="49.76938" lon="5.65383">
        <ele>430</ele>
        <time>2015-02-22T12:43:23Z</time>
      </trkpt>
      <trkpt lat="49.76944" lon="5.65386">
        <ele>430</ele>
        <time>2015-02-22T12:43:28Z</time>
      </trkpt>
      <trkpt lat="49.76949" lon="5.65389">
        <ele>430</ele>
        <time>2015-02-22T12:43:33Z</time>
      </trkpt>
      <trkpt lat="49.76955" lon="5.65393">
        <ele>430</ele>
        <time>2015-02-22T12:43:38Z</time>
      </trkpt>
      <trkpt lat="49.76963" lon="5.65398">
        <ele>430</ele>
        <time>2015-02-22T12:43:44Z</time>
      </trkpt>
      <trkpt lat="49.7697" lon="5.65401">
        <ele>430</ele>
        <time>2015-02-22T12:43:49Z</time>
      </trkpt>
      <trkpt lat="49.76976" lon="5.65405">
        <ele>430</ele>
        <time>2015-02-22T12:43:55Z</time>
      </trkpt>
      <trkpt lat="49.76981" lon="5.65409">
        <ele>430</ele>
        <time>2015-02-22T12:44:00Z</time>
      </trkpt>
      <trkpt lat="49.76987" lon="5.65413">
        <ele>431</ele>
        <time>2015-02-22T12:44:06Z</time>
      </trkpt>
      <trkpt lat="49.76995" lon="5.65417">
        <ele>431</ele>
        <time>2015-02-22T12:44:12Z</time>
      </trkpt>
      <trkpt lat="49.77001" lon="5.65419">
        <ele>431</ele>
        <time>2015-02-22T12:44:17Z</time>
      </trkpt>
      <trkpt lat="49.77007" lon="5.6542">
        <ele>431</ele>
        <time>2015-02-22T12:44:22Z</time>
      </trkpt>
      <trkpt lat="49.77013" lon="5.65421">
        <ele>432</ele>
        <time>2015-02-22T12:44:27Z</time>
      </trkpt>
      <trkpt lat="49.77019" lon="5.65421">
        <ele>433</ele>
        <time>2015-02-22T12:44:33Z</time>
      </trkpt>
      <trkpt lat="49.77026" lon="5.65422">
        <ele>433</ele>
        <time>2015-02-22T12:44:38Z</time>
      </trkpt>
      <trkpt lat="49.77034" lon="5.65423">
        <ele>433</ele>
        <time>2015-02-22T12:44:44Z</time>
      </trkpt>
      <trkpt lat="49.77039" lon="5.6542">
        <ele>434</ele>
        <time>2015-02-22T12:44:49Z</time>
      </trkpt>
      <trkpt lat="49.77046" lon="5.65416">
        <ele>434</ele>
        <time>2015-02-22T12:44:55Z</time>
      </trkpt>
      <trkpt lat="49.7705" lon="5.6541">
        <ele>434</ele>
        <time>2015-02-22T12:45:01Z</time>
      </trkpt>
      <trkpt lat="49.77052" lon="5.65407">
        <ele>437</ele>
        <time>2015-02-22T12:45:06Z</time>
      </trkpt>
      <trkpt lat="49.77058" lon="5.65403">
        <ele>427</ele>
        <time>2015-02-22T12:45:12Z</time>
      </trkpt>
      <trkpt lat="49.77063" lon="5.65398">
        <ele>425</ele>
        <time>2015-02-22T12:45:18Z</time>
      </trkpt>
      <trkpt lat="49.77068" lon="5.65393">
        <ele>425</ele>
        <time>2015-02-22T12:45:23Z</time>
      </trkpt>
      <trkpt lat="49.77073" lon="5.65388">
        <ele>425</ele>
        <time>2015-02-22T12:45:29Z</time>
      </trkpt>
      <trkpt lat="49.77077" lon="5.65382">
        <ele>425</ele>
        <time>2015-02-22T12:45:35Z</time>
      </trkpt>
      <trkpt lat="49.77083" lon="5.65376">
        <ele>425</ele>
        <time>2015-02-22T12:45:40Z</time>
      </trkpt>
      <trkpt lat="49.77089" lon="5.65372">
        <ele>425</ele>
        <time>2015-02-22T12:45:45Z</time>
      </trkpt>
      <trkpt lat="49.77094" lon="5.65368">
        <ele>426</ele>
        <time>2015-02-22T12:45:51Z</time>
      </trkpt>
      <trkpt lat="49.771" lon="5.65366">
        <ele>426</ele>
        <time>2015-02-22T12:45:56Z</time>
      </trkpt>
      <trkpt lat="49.77105" lon="5.65364">
        <ele>427</ele>
        <time>2015-02-22T12:46:01Z</time>
      </trkpt>
      <trkpt lat="49.77113" lon="5.65361">
        <ele>427</ele>
        <time>2015-02-22T12:46:07Z</time>
      </trkpt>
      <trkpt lat="49.77118" lon="5.65357">
        <ele>427</ele>
        <time>2015-02-22T12:46:13Z</time>
      </trkpt>
      <trkpt lat="49.77122" lon="5.65357">
        <ele>427</ele>
        <time>2015-02-22T12:46:18Z</time>
      </trkpt>
      <trkpt lat="49.77128" lon="5.65355">
        <ele>428</ele>
        <time>2015-02-22T12:46:24Z</time>
      </trkpt>
      <trkpt lat="49.77132" lon="5.65353">
        <ele>428</ele>
        <time>2015-02-22T12:46:29Z</time>
      </trkpt>
      <trkpt lat="49.77138" lon="5.65351">
        <ele>428</ele>
        <time>2015-02-22T12:46:34Z</time>
      </trkpt>
      <trkpt lat="49.77145" lon="5.65351">
        <ele>429</ele>
        <time>2015-02-22T12:46:40Z</time>
      </trkpt>
      <trkpt lat="49.77151" lon="5.65351">
        <ele>430</ele>
        <time>2015-02-22T12:46:45Z</time>
      </trkpt>
      <trkpt lat="49.77156" lon="5.65353">
        <ele>431</ele>
        <time>2015-02-22T12:46:51Z</time>
      </trkpt>
      <trkpt lat="49.77162" lon="5.65354">
        <ele>431</ele>
        <time>2015-02-22T12:46:56Z</time>
      </trkpt>
      <trkpt lat="49.77168" lon="5.65357">
        <ele>431</ele>
        <time>2015-02-22T12:47:01Z</time>
      </trkpt>
      <trkpt lat="49.77176" lon="5.6536">
        <ele>432</ele>
        <time>2015-02-22T12:47:07Z</time>
      </trkpt>
      <trkpt lat="49.77182" lon="5.6536">
        <ele>432</ele>
        <time>2015-02-22T12:47:12Z</time>
      </trkpt>
      <trkpt lat="49.77189" lon="5.65363">
        <ele>433</ele>
        <time>2015-02-22T12:47:18Z</time>
      </trkpt>
      <trkpt lat="49.77195" lon="5.65366">
        <ele>433</ele>
        <time>2015-02-22T12:47:23Z</time>
      </trkpt>
      <trkpt lat="49.77201" lon="5.6537">
        <ele>434</ele>
        <time>2015-02-22T12:47:29Z</time>
      </trkpt>
      <trkpt lat="49.77208" lon="5.65373">
        <ele>434</ele>
        <time>2015-02-22T12:47:35Z</time>
      </trkpt>
      <trkpt lat="49.77215" lon="5.65376">
        <ele>435</ele>
        <time>2015-02-22T12:47:40Z</time>
      </trkpt>
      <trkpt lat="49.77221" lon="5.65379">
        <ele>435</ele>
        <time>2015-02-22T12:47:45Z</time>
      </trkpt>
      <trkpt lat="49.77226" lon="5.65383">
        <ele>434</ele>
        <time>2015-02-22T12:47:51Z</time>
      </trkpt>
      <trkpt lat="49.77232" lon="5.65386">
        <ele>435</ele>
        <time>2015-02-22T12:47:56Z</time>
      </trkpt>
      <trkpt lat="49.77237" lon="5.6539">
        <ele>435</ele>
        <time>2015-02-22T12:48:02Z</time>
      </trkpt>
      <trkpt lat="49.77243" lon="5.65396">
        <ele>434</ele>
        <time>2015-02-22T12:48:07Z</time>
      </trkpt>
      <trkpt lat="49.77247" lon="5.65401">
        <ele>434</ele>
        <time>2015-02-22T12:48:13Z</time>
      </trkpt>
      <trkpt lat="49.77252" lon="5.65404">
        <ele>434</ele>
        <time>2015-02-22T12:48:18Z</time>
      </trkpt>
      <trkpt lat="49.77258" lon="5.65406">
        <ele>434</ele>
        <time>2015-02-22T12:48:24Z</time>
      </trkpt>
      <trkpt lat="49.77266" lon="5.65401">
        <ele>434</ele>
        <time>2015-02-22T12:48:30Z</time>
      </trkpt>
      <trkpt lat="49.77269" lon="5.65394">
        <ele>434</ele>
        <time>2015-02-22T12:48:36Z</time>
      </trkpt>
      <trkpt lat="49.77274" lon="5.65387">
        <ele>435</ele>
        <time>2015-02-22T12:48:41Z</time>
      </trkpt>
      <trkpt lat="49.77278" lon="5.65379">
        <ele>435</ele>
        <time>2015-02-22T12:48:47Z</time>
      </trkpt>
      <trkpt lat="49.77282" lon="5.65373">
        <ele>436</ele>
        <time>2015-02-22T12:48:52Z</time>
      </trkpt>
      <trkpt lat="49.77287" lon="5.6537">
        <ele>435</ele>
        <time>2015-02-22T12:48:58Z</time>
      </trkpt>
      <trkpt lat="49.77292" lon="5.65367">
        <ele>435</ele>
        <time>2015-02-22T12:49:04Z</time>
      </trkpt>
      <trkpt lat="49.77296" lon="5.65364">
        <ele>434</ele>
        <time>2015-02-22T12:49:09Z</time>
      </trkpt>
      <trkpt lat="49.77301" lon="5.65361">
        <ele>434</ele>
        <time>2015-02-22T12:49:15Z</time>
      </trkpt>
      <trkpt lat="49.77308" lon="5.65361">
        <ele>433</ele>
        <time>2015-02-22T12:49:21Z</time>
      </trkpt>
      <trkpt lat="49.77314" lon="5.65359">
        <ele>433</ele>
        <time>2015-02-22T12:49:27Z</time>
      </trkpt>
      <trkpt lat="49.77321" lon="5.65357">
        <ele>433</ele>
        <time>2015-02-22T12:49:32Z</time>
      </trkpt>
      <trkpt lat="49.77327" lon="5.65356">
        <ele>433</ele>
        <time>2015-02-22T12:49:38Z</time>
      </trkpt>
      <trkpt lat="49.77332" lon="5.65355">
        <ele>433</ele>
        <time>2015-02-22T12:49:43Z</time>
      </trkpt>
      <trkpt lat="49.77337" lon="5.65352">
        <ele>432</ele>
        <time>2015-02-22T12:49:48Z</time>
      </trkpt>
      <trkpt lat="49.77344" lon="5.6535">
        <ele>433</ele>
        <time>2015-02-22T12:49:54Z</time>
      </trkpt>
      <trkpt lat="49.77348" lon="5.65349">
        <ele>433</ele>
        <time>2015-02-22T12:49:59Z</time>
      </trkpt>
      <trkpt lat="49.77355" lon="5.65348">
        <ele>433</ele>
        <time>2015-02-22T12:50:05Z</time>
      </trkpt>
      <trkpt lat="49.77361" lon="5.65347">
        <ele>432</ele>
        <time>2015-02-22T12:50:11Z</time>
      </trkpt>
      <trkpt lat="49.77365" lon="5.65347">
        <ele>432</ele>
        <time>2015-02-22T12:50:16Z</time>
      </trkpt>
      <trkpt lat="49.77372" lon="5.65347">
        <ele>432</ele>
        <time>2015-02-22T12:50:22Z</time>
      </trkpt>
      <trkpt lat="49.77379" lon="5.65344">
        <ele>433</ele>
        <time>2015-02-22T12:50:28Z</time>
      </trkpt>
      <trkpt lat="49.77385" lon="5.65341">
        <ele>434</ele>
        <time>2015-02-22T12:50:34Z</time>
      </trkpt>
      <trkpt lat="49.77388" lon="5.65338">
        <ele>434</ele>
        <time>2015-02-22T12:50:39Z</time>
      </trkpt>
      <trkpt lat="49.77395" lon="5.65339">
        <ele>434</ele>
        <time>2015-02-22T12:50:45Z</time>
      </trkpt>
      <trkpt lat="49.774" lon="5.6534">
        <ele>435</ele>
        <time>2015-02-22T12:50:51Z</time>
      </trkpt>
      <trkpt lat="49.77406" lon="5.65339">
        <ele>436</ele>
        <time>2015-02-22T12:50:57Z</time>
      </trkpt>
      <trkpt lat="49.77412" lon="5.65339">
        <ele>437</ele>
        <time>2015-02-22T12:51:03Z</time>
      </trkpt>
      <trkpt lat="49.77421" lon="5.65339">
        <ele>438</ele>
        <time>2015-02-22T12:51:09Z</time>
      </trkpt>
      <trkpt lat="49.77428" lon="5.65339">
        <ele>438</ele>
        <time>2015-02-22T12:51:14Z</time>
      </trkpt>
      <trkpt lat="49.77435" lon="5.65335">
        <ele>439</ele>
        <time>2015-02-22T12:51:20Z</time>
      </trkpt>
      <trkpt lat="49.77441" lon="5.6533">
        <ele>440</ele>
        <time>2015-02-22T12:51:26Z</time>
      </trkpt>
      <trkpt lat="49.77447" lon="5.65326">
        <ele>440</ele>
        <time>2015-02-22T12:51:31Z</time>
      </trkpt>
      <trkpt lat="49.7745" lon="5.6532">
        <ele>441</ele>
        <time>2015-02-22T12:51:36Z</time>
      </trkpt>
      <trkpt lat="49.77454" lon="5.65314">
        <ele>441</ele>
        <time>2015-02-22T12:51:41Z</time>
      </trkpt>
      <trkpt lat="49.77458" lon="5.6531">
        <ele>442</ele>
        <time>2015-02-22T12:51:46Z</time>
      </trkpt>
      <trkpt lat="49.77461" lon="5.65302">
        <ele>442</ele>
        <time>2015-02-22T12:51:52Z</time>
      </trkpt>
      <trkpt lat="49.77462" lon="5.65294">
        <ele>443</ele>
        <time>2015-02-22T12:51:57Z</time>
      </trkpt>
      <trkpt lat="49.77464" lon="5.65285">
        <ele>443</ele>
        <time>2015-02-22T12:52:03Z</time>
      </trkpt>
      <trkpt lat="49.77464" lon="5.65275">
        <ele>444</ele>
        <time>2015-02-22T12:52:08Z</time>
      </trkpt>
      <trkpt lat="49.77465" lon="5.65264">
        <ele>443</ele>
        <time>2015-02-22T12:52:14Z</time>
      </trkpt>
      <trkpt lat="49.77465" lon="5.65254">
        <ele>443</ele>
        <time>2015-02-22T12:52:19Z</time>
      </trkpt>
      <trkpt lat="49.77466" lon="5.65243">
        <ele>444</ele>
        <time>2015-02-22T12:52:24Z</time>
      </trkpt>
      <trkpt lat="49.77467" lon="5.65231">
        <ele>444</ele>
        <time>2015-02-22T12:52:30Z</time>
      </trkpt>
      <trkpt lat="49.77467" lon="5.65221">
        <ele>444</ele>
        <time>2015-02-22T12:52:35Z</time>
      </trkpt>
      <trkpt lat="49.77468" lon="5.65213">
        <ele>444</ele>
        <time>2015-02-22T12:52:40Z</time>
      </trkpt>
      <trkpt lat="49.77467" lon="5.65203">
        <ele>445</ele>
        <time>2015-02-22T12:52:45Z</time>
      </trkpt>
      <trkpt lat="49.77467" lon="5.65192">
        <ele>444</ele>
        <time>2015-02-22T12:52:51Z</time>
      </trkpt>
      <trkpt lat="49.77468" lon="5.65179">
        <ele>445</ele>
        <time>2015-02-22T12:52:57Z</time>
      </trkpt>
      <trkpt lat="49.77469" lon="5.6517">
        <ele>445</ele>
        <time>2015-02-22T12:53:02Z</time>
      </trkpt>
      <trkpt lat="49.7747" lon="5.65161">
        <ele>445</ele>
        <time>2015-02-22T12:53:07Z</time>
      </trkpt>
      <trkpt lat="49.77471" lon="5.65152">
        <ele>445</ele>
        <time>2015-02-22T12:53:12Z</time>
      </trkpt>
      <trkpt lat="49.77472" lon="5.6514">
        <ele>445</ele>
        <time>2015-02-22T12:53:18Z</time>
      </trkpt>
      <trkpt lat="49.7747" lon="5.65129">
        <ele>445</ele>
        <time>2015-02-22T12:53:24Z</time>
      </trkpt>
      <trkpt lat="49.7747" lon="5.65119">
        <ele>446</ele>
        <time>2015-02-22T12:53:29Z</time>
      </trkpt>
      <trkpt lat="49.77472" lon="5.6511">
        <ele>446</ele>
        <time>2015-02-22T12:53:35Z</time>
      </trkpt>
      <trkpt lat="49.77472" lon="5.65099">
        <ele>446</ele>
        <time>2015-02-22T12:53:40Z</time>
      </trkpt>
      <trkpt lat="49.77473" lon="5.65088">
        <ele>447</ele>
        <time>2015-02-22T12:53:46Z</time>
      </trkpt>
      <trkpt lat="49.77472" lon="5.65078">
        <ele>447</ele>
        <time>2015-02-22T12:53:51Z</time>
      </trkpt>
      <trkpt lat="49.77472" lon="5.65065">
        <ele>447</ele>
        <time>2015-02-22T12:53:57Z</time>
      </trkpt>
      <trkpt lat="49.77471" lon="5.65051">
        <ele>447</ele>
        <time>2015-02-22T12:54:03Z</time>
      </trkpt>
      <trkpt lat="49.77471" lon="5.65037">
        <ele>447</ele>
        <time>2015-02-22T12:54:09Z</time>
      </trkpt>
      <trkpt lat="49.7747" lon="5.65026">
        <ele>448</ele>
        <time>2015-02-22T12:54:14Z</time>
      </trkpt>
      <trkpt lat="49.7747" lon="5.65016">
        <ele>448</ele>
        <time>2015-02-22T12:54:19Z</time>
      </trkpt>
      <trkpt lat="49.7747" lon="5.65006">
        <ele>448</ele>
        <time>2015-02-22T12:54:24Z</time>
      </trkpt>
      <trkpt lat="49.77469" lon="5.64996">
        <ele>449</ele>
        <time>2015-02-22T12:54:30Z</time>
      </trkpt>
      <trkpt lat="49.77467" lon="5.64993">
        <ele>449</ele>
        <time>2015-02-22T12:54:36Z</time>
      </trkpt>
      <trkpt lat="49.77467" lon="5.64991">
        <ele>449</ele>
        <time>2015-02-22T12:54:41Z</time>
      </trkpt>
      <trkpt lat="49.77466" lon="5.64989">
        <ele>451</ele>
        <time>2015-02-22T12:54:47Z</time>
      </trkpt>
      <trkpt lat="49.77466" lon="5.64989">
        <ele>448</ele>
        <time>2015-02-22T12:54:52Z</time>
      </trkpt>
      <trkpt lat="49.77466" lon="5.64989">
        <ele>445</ele>
        <time>2015-02-22T12:54:57Z</time>
      </trkpt>
      <trkpt lat="49.77464" lon="5.64989">
        <ele>441</ele>
        <time>2015-02-22T12:55:03Z</time>
      </trkpt>
      <trkpt lat="49.77467" lon="5.6499">
        <ele>438</ele>
        <time>2015-02-22T12:55:08Z</time>
      </trkpt>
      <trkpt lat="49.77465" lon="5.6499">
        <ele>435</ele>
        <time>2015-02-22T12:55:14Z</time>
      </trkpt>
      <trkpt lat="49.77464" lon="5.64988">
        <ele>436</ele>
        <time>2015-02-22T12:55:19Z</time>
      </trkpt>
      <trkpt lat="49.77462" lon="5.64988">
        <ele>439</ele>
        <time>2015-02-22T12:55:25Z</time>
      </trkpt>
      <trkpt lat="49.77464" lon="5.64988">
        <ele>434</ele>
        <time>2015-02-22T12:55:31Z</time>
      </trkpt>
      <trkpt lat="49.77467" lon="5.64987">
        <ele>430</ele>
        <time>2015-02-22T12:55:36Z</time>
      </trkpt>
      <trkpt lat="49.77467" lon="5.64987">
        <ele>430</ele>
        <time>2015-02-22T12:55:42Z</time>
      </trkpt>
      <trkpt lat="49.77467" lon="5.64987">
        <ele>429</ele>
        <time>2015-02-22T12:55:48Z</time>
      </trkpt>
      <trkpt lat="49.77472" lon="5.64987">
        <ele>429</ele>
        <time>2015-02-22T12:55:53Z</time>
      </trkpt>
      <trkpt lat="49.77472" lon="5.6498">
        <ele>428</ele>
        <time>2015-02-22T12:55:59Z</time>
      </trkpt>
      <trkpt lat="49.77471" lon="5.6497">
        <ele>433</ele>
        <time>2015-02-22T12:56:04Z</time>
      </trkpt>
      <trkpt lat="49.77468" lon="5.6496">
        <ele>438</ele>
        <time>2015-02-22T12:56:10Z</time>
      </trkpt>
      <trkpt lat="49.77466" lon="5.64951">
        <ele>436</ele>
        <time>2015-02-22T12:56:16Z</time>
      </trkpt>
      <trkpt lat="49.77464" lon="5.6494">
        <ele>435</ele>
        <time>2015-02-22T12:56:22Z</time>
      </trkpt>
      <trkpt lat="49.77461" lon="5.64928">
        <ele>438</ele>
        <time>2015-02-22T12:56:28Z</time>
      </trkpt>
      <trkpt lat="49.7746" lon="5.64918">
        <ele>439</ele>
        <time>2015-02-22T12:56:33Z</time>
      </trkpt>
      <trkpt lat="49.7746" lon="5.64908">
        <ele>440</ele>
        <time>2015-02-22T12:56:39Z</time>
      </trkpt>
      <trkpt lat="49.77459" lon="5.64899">
        <ele>442</ele>
        <time>2015-02-22T12:56:44Z</time>
      </trkpt>
      <trkpt lat="49.77458" lon="5.6489">
        <ele>443</ele>
        <time>2015-02-22T12:56:49Z</time>
      </trkpt>
      <trkpt lat="49.77457" lon="5.64878">
        <ele>444</ele>
        <time>2015-02-22T12:56:55Z</time>
      </trkpt>
      <trkpt lat="49.77456" lon="5.64868">
        <ele>445</ele>
        <time>2015-02-22T12:57:00Z</time>
      </trkpt>
      <trkpt lat="49.77454" lon="5.64857">
        <ele>445</ele>
        <time>2015-02-22T12:57:06Z</time>
      </trkpt>
      <trkpt lat="49.77452" lon="5.64848">
        <ele>446</ele>
        <time>2015-02-22T12:57:11Z</time>
      </trkpt>
      <trkpt lat="49.77451" lon="5.64837">
        <ele>448</ele>
        <time>2015-02-22T12:57:17Z</time>
      </trkpt>
      <trkpt lat="49.77449" lon="5.64828">
        <ele>448</ele>
        <time>2015-02-22T12:57:22Z</time>
      </trkpt>
      <trkpt lat="49.77446" lon="5.64818">
        <ele>449</ele>
        <time>2015-02-22T12:57:28Z</time>
      </trkpt>
      <trkpt lat="49.77444" lon="5.64809">
        <ele>449</ele>
        <time>2015-02-22T12:57:34Z</time>
      </trkpt>
      <trkpt lat="49.77441" lon="5.64802">
        <ele>450</ele>
        <time>2015-02-22T12:57:39Z</time>
      </trkpt>
      <trkpt lat="49.77438" lon="5.64796">
        <ele>450</ele>
        <time>2015-02-22T12:57:44Z</time>
      </trkpt>
      <trkpt lat="49.77433" lon="5.64792">
        <ele>450</ele>
        <time>2015-02-22T12:57:50Z</time>
      </trkpt>
      <trkpt lat="49.7743" lon="5.64787">
        <ele>451</ele>
        <time>2015-02-22T12:57:55Z</time>
      </trkpt>
      <trkpt lat="49.77429" lon="5.6478">
        <ele>451</ele>
        <time>2015-02-22T12:58:00Z</time>
      </trkpt>
      <trkpt lat="49.77428" lon="5.64771">
        <ele>451</ele>
        <time>2015-02-22T12:58:06Z</time>
      </trkpt>
      <trkpt lat="49.77427" lon="5.64762">
        <ele>451</ele>
        <time>2015-02-22T12:58:11Z</time>
      </trkpt>
      <trkpt lat="49.77427" lon="5.64751">
        <ele>452</ele>
        <time>2015-02-22T12:58:17Z</time>
      </trkpt>
      <trkpt lat="49.77425" lon="5.64744">
        <ele>453</ele>
        <time>2015-02-22T12:58:22Z</time>
      </trkpt>
      <trkpt lat="49.77425" lon="5.64733">
        <ele>454</ele>
        <time>2015-02-22T12:58:28Z</time>
      </trkpt>
      <trkpt lat="49.77425" lon="5.64726">
        <ele>454</ele>
        <time>2015-02-22T12:58:33Z</time>
      </trkpt>
      <trkpt lat="49.77425" lon="5.64717">
        <ele>455</ele>
        <time>2015-02-22T12:58:39Z</time>
      </trkpt>
      <trkpt lat="49.77425" lon="5.64708">
        <ele>456</ele>
        <time>2015-02-22T12:58:45Z</time>
      </trkpt>
      <trkpt lat="49.77424" lon="5.64698">
        <ele>456</ele>
        <time>2015-02-22T12:58:51Z</time>
      </trkpt>
      <trkpt lat="49.77424" lon="5.64688">
        <ele>457</ele>
        <time>2015-02-22T12:58:56Z</time>
      </trkpt>
      <trkpt lat="49.77425" lon="5.64678">
        <ele>457</ele>
        <time>2015-02-22T12:59:02Z</time>
      </trkpt>
      <trkpt lat="49.77425" lon="5.64668">
        <ele>456</ele>
        <time>2015-02-22T12:59:07Z</time>
      </trkpt>
      <trkpt lat="49.77425" lon="5.64658">
        <ele>456</ele>
        <time>2015-02-22T12:59:13Z</time>
      </trkpt>
      <trkpt lat="49.77425" lon="5.64651">
        <ele>457</ele>
        <time>2015-02-22T12:59:19Z</time>
      </trkpt>
      <trkpt lat="49.77425" lon="5.64643">
        <ele>458</ele>
        <time>2015-02-22T12:59:25Z</time>
      </trkpt>
      <trkpt lat="49.77425" lon="5.64636">
        <ele>458</ele>
        <time>2015-02-22T12:59:30Z</time>
      </trkpt>
      <trkpt lat="49.77425" lon="5.64629">
        <ele>459</ele>
        <time>2015-02-22T12:59:35Z</time>
      </trkpt>
      <trkpt lat="49.77426" lon="5.6462">
        <ele>459</ele>
        <time>2015-02-22T12:59:41Z</time>
      </trkpt>
      <trkpt lat="49.77425" lon="5.64609">
        <ele>461</ele>
        <time>2015-02-22T12:59:47Z</time>
      </trkpt>
      <trkpt lat="49.77426" lon="5.646">
        <ele>461</ele>
        <time>2015-02-22T12:59:53Z</time>
      </trkpt>
      <trkpt lat="49.77426" lon="5.6459">
        <ele>462</ele>
        <time>2015-02-22T12:59:58Z</time>
      </trkpt>
      <trkpt lat="49.77426" lon="5.64583">
        <ele>462</ele>
        <time>2015-02-22T13:00:03Z</time>
      </trkpt>
      <trkpt lat="49.77425" lon="5.64573">
        <ele>463</ele>
        <time>2015-02-22T13:00:09Z</time>
      </trkpt>
      <trkpt lat="49.77426" lon="5.64564">
        <ele>463</ele>
        <time>2015-02-22T13:00:15Z</time>
      </trkpt>
      <trkpt lat="49.77427" lon="5.64553">
        <ele>464</ele>
        <time>2015-02-22T13:00:21Z</time>
      </trkpt>
      <trkpt lat="49.77427" lon="5.64545">
        <ele>465</ele>
        <time>2015-02-22T13:00:26Z</time>
      </trkpt>
      <trkpt lat="49.77427" lon="5.64535">
        <ele>465</ele>
        <time>2015-02-22T13:00:32Z</time>
      </trkpt>
      <trkpt lat="49.77426" lon="5.64529">
        <ele>466</ele>
        <time>2015-02-22T13:00:38Z</time>
      </trkpt>
      <trkpt lat="49.77426" lon="5.64519">
        <ele>466</ele>
        <time>2015-02-22T13:00:44Z</time>
      </trkpt>
      <trkpt lat="49.77426" lon="5.64508">
        <ele>467</ele>
        <time>2015-02-22T13:00:50Z</time>
      </trkpt>
      <trkpt lat="49.77426" lon="5.645">
        <ele>467</ele>
        <time>2015-02-22T13:00:55Z</time>
      </trkpt>
      <trkpt lat="49.77427" lon="5.64491">
        <ele>468</ele>
        <time>2015-02-22T13:01:01Z</time>
      </trkpt>
      <trkpt lat="49.77427" lon="5.64481">
        <ele>468</ele>
        <time>2015-02-22T13:01:06Z</time>
      </trkpt>
      <trkpt lat="49.77428" lon="5.64472">
        <ele>469</ele>
        <time>2015-02-22T13:01:12Z</time>
      </trkpt>
      <trkpt lat="49.77428" lon="5.64462">
        <ele>469</ele>
        <time>2015-02-22T13:01:17Z</time>
      </trkpt>
      <trkpt lat="49.7743" lon="5.64453">
        <ele>470</ele>
        <time>2015-02-22T13:01:22Z</time>
      </trkpt>
      <trkpt lat="49.7743" lon="5.64442">
        <ele>470</ele>
        <time>2015-02-22T13:01:28Z</time>
      </trkpt>
      <trkpt lat="49.77431" lon="5.64432">
        <ele>471</ele>
        <time>2015-02-22T13:01:34Z</time>
      </trkpt>
      <trkpt lat="49.77433" lon="5.64424">
        <ele>472</ele>
        <time>2015-02-22T13:01:39Z</time>
      </trkpt>
      <trkpt lat="49.77433" lon="5.64412">
        <ele>473</ele>
        <time>2015-02-22T13:01:45Z</time>
      </trkpt>
      <trkpt lat="49.77435" lon="5.64403">
        <ele>473</ele>
        <time>2015-02-22T13:01:51Z</time>
      </trkpt>
      <trkpt lat="49.77435" lon="5.64394">
        <ele>474</ele>
        <time>2015-02-22T13:01:57Z</time>
      </trkpt>
      <trkpt lat="49.77437" lon="5.64385">
        <ele>475</ele>
        <time>2015-02-22T13:02:03Z</time>
      </trkpt>
      <trkpt lat="49.77437" lon="5.64377">
        <ele>476</ele>
        <time>2015-02-22T13:02:08Z</time>
      </trkpt>
      <trkpt lat="49.77437" lon="5.64368">
        <ele>477</ele>
        <time>2015-02-22T13:02:14Z</time>
      </trkpt>
      <trkpt lat="49.77436" lon="5.64359">
        <ele>478</ele>
        <time>2015-02-22T13:02:20Z</time>
      </trkpt>
      <trkpt lat="49.77436" lon="5.6435">
        <ele>479</ele>
        <time>2015-02-22T13:02:26Z</time>
      </trkpt>
      <trkpt lat="49.77435" lon="5.64341">
        <ele>480</ele>
        <time>2015-02-22T13:02:32Z</time>
      </trkpt>
      <trkpt lat="49.77434" lon="5.64331">
        <ele>480</ele>
        <time>2015-02-22T13:02:38Z</time>
      </trkpt>
      <trkpt lat="49.77433" lon="5.64323">
        <ele>481</ele>
        <time>2015-02-22T13:02:43Z</time>
      </trkpt>
      <trkpt lat="49.77431" lon="5.64314">
        <ele>481</ele>
        <time>2015-02-22T13:02:49Z</time>
      </trkpt>
      <trkpt lat="49.7743" lon="5.64304">
        <ele>482</ele>
        <time>2015-02-22T13:02:55Z</time>
      </trkpt>
      <trkpt lat="49.77428" lon="5.64294">
        <ele>483</ele>
        <time>2015-02-22T13:03:01Z</time>
      </trkpt>
      <trkpt lat="49.77428" lon="5.64285">
        <ele>482</ele>
        <time>2015-02-22T13:03:07Z</time>
      </trkpt>
      <trkpt lat="49.77426" lon="5.64276">
        <ele>483</ele>
        <time>2015-02-22T13:03:12Z</time>
      </trkpt>
      <trkpt lat="49.77425" lon="5.64266">
        <ele>484</ele>
        <time>2015-02-22T13:03:18Z</time>
      </trkpt>
      <trkpt lat="49.77423" lon="5.64256">
        <ele>485</ele>
        <time>2015-02-22T13:03:23Z</time>
      </trkpt>
      <trkpt lat="49.77421" lon="5.64247">
        <ele>485</ele>
        <time>2015-02-22T13:03:28Z</time>
      </trkpt>
      <trkpt lat="49.7742" lon="5.64237">
        <ele>485</ele>
        <time>2015-02-22T13:03:34Z</time>
      </trkpt>
      <trkpt lat="49.77418" lon="5.64228">
        <ele>486</ele>
        <time>2015-02-22T13:03:39Z</time>
      </trkpt>
      <trkpt lat="49.77417" lon="5.64221">
        <ele>487</ele>
        <time>2015-02-22T13:03:44Z</time>
      </trkpt>
      <trkpt lat="49.77417" lon="5.6421">
        <ele>487</ele>
        <time>2015-02-22T13:03:50Z</time>
      </trkpt>
      <trkpt lat="49.77415" lon="5.64202">
        <ele>486</ele>
        <time>2015-02-22T13:03:55Z</time>
      </trkpt>
      <trkpt lat="49.77414" lon="5.64192">
        <ele>486</ele>
        <time>2015-02-22T13:04:01Z</time>
      </trkpt>
      <trkpt lat="49.77413" lon="5.64183">
        <ele>486</ele>
        <time>2015-02-22T13:04:07Z</time>
      </trkpt>
      <trkpt lat="49.77411" lon="5.64173">
        <ele>486</ele>
        <time>2015-02-22T13:04:13Z</time>
      </trkpt>
      <trkpt lat="49.77408" lon="5.64165">
        <ele>486</ele>
        <time>2015-02-22T13:04:19Z</time>
      </trkpt>
      <trkpt lat="49.77407" lon="5.64157">
        <ele>487</ele>
        <time>2015-02-22T13:04:24Z</time>
      </trkpt>
      <trkpt lat="49.77407" lon="5.64148">
        <ele>487</ele>
        <time>2015-02-22T13:04:30Z</time>
      </trkpt>
      <trkpt lat="49.77406" lon="5.64139">
        <ele>487</ele>
        <time>2015-02-22T13:04:35Z</time>
      </trkpt>
      <trkpt lat="49.77406" lon="5.64131">
        <ele>487</ele>
        <time>2015-02-22T13:04:40Z</time>
      </trkpt>
      <trkpt lat="49.77405" lon="5.64123">
        <ele>486</ele>
        <time>2015-02-22T13:04:45Z</time>
      </trkpt>
      <trkpt lat="49.77404" lon="5.64113">
        <ele>487</ele>
        <time>2015-02-22T13:04:51Z</time>
      </trkpt>
      <trkpt lat="49.77401" lon="5.64104">
        <ele>486</ele>
        <time>2015-02-22T13:04:57Z</time>
      </trkpt>
      <trkpt lat="49.77399" lon="5.64096">
        <ele>486</ele>
        <time>2015-02-22T13:05:02Z</time>
      </trkpt>
      <trkpt lat="49.77396" lon="5.64086">
        <ele>486</ele>
        <time>2015-02-22T13:05:08Z</time>
      </trkpt>
      <trkpt lat="49.77396" lon="5.64079">
        <ele>486</ele>
        <time>2015-02-22T13:05:13Z</time>
      </trkpt>
      <trkpt lat="49.77394" lon="5.6407">
        <ele>486</ele>
        <time>2015-02-22T13:05:18Z</time>
      </trkpt>
      <trkpt lat="49.77392" lon="5.6406">
        <ele>485</ele>
        <time>2015-02-22T13:05:24Z</time>
      </trkpt>
      <trkpt lat="49.7739" lon="5.64053">
        <ele>485</ele>
        <time>2015-02-22T13:05:29Z</time>
      </trkpt>
      <trkpt lat="49.77388" lon="5.64043">
        <ele>485</ele>
        <time>2015-02-22T13:05:35Z</time>
      </trkpt>
      <trkpt lat="49.77387" lon="5.64033">
        <ele>485</ele>
        <time>2015-02-22T13:05:41Z</time>
      </trkpt>
      <trkpt lat="49.77385" lon="5.64022">
        <ele>484</ele>
        <time>2015-02-22T13:05:47Z</time>
      </trkpt>
      <trkpt lat="49.77383" lon="5.64011">
        <ele>484</ele>
        <time>2015-02-22T13:05:53Z</time>
      </trkpt>
      <trkpt lat="49.7738" lon="5.64002">
        <ele>484</ele>
        <time>2015-02-22T13:05:58Z</time>
      </trkpt>
      <trkpt lat="49.77378" lon="5.63997">
        <ele>484</ele>
        <time>2015-02-22T13:06:04Z</time>
      </trkpt>
      <trkpt lat="49.77375" lon="5.63994">
        <ele>484</ele>
        <time>2015-02-22T13:06:09Z</time>
      </trkpt>
      <trkpt lat="49.77372" lon="5.6399">
        <ele>484</ele>
        <time>2015-02-22T13:06:15Z</time>
      </trkpt>
      <trkpt lat="49.7737" lon="5.63986">
        <ele>483</ele>
        <time>2015-02-22T13:06:21Z</time>
      </trkpt>
      <trkpt lat="49.77371" lon="5.63987">
        <ele>482</ele>
        <time>2015-02-22T13:06:26Z</time>
      </trkpt>
      <trkpt lat="49.7737" lon="5.63988">
        <ele>483</ele>
        <time>2015-02-22T13:06:31Z</time>
      </trkpt>
      <trkpt lat="49.77369" lon="5.63988">
        <ele>483</ele>
        <time>2015-02-22T13:06:37Z</time>
      </trkpt>
      <trkpt lat="49.77369" lon="5.63987">
        <ele>483</ele>
        <time>2015-02-22T13:06:43Z</time>
      </trkpt>
      <trkpt lat="49.7737" lon="5.63987">
        <ele>483</ele>
        <time>2015-02-22T13:06:51Z</time>
      </trkpt>
      <trkpt lat="49.7737" lon="5.63987">
        <ele>482</ele>
        <time>2015-02-22T13:06:56Z</time>
      </trkpt>
      <trkpt lat="49.77369" lon="5.63987">
        <ele>482</ele>
        <time>2015-02-22T13:07:01Z</time>
      </trkpt>
      <trkpt lat="49.77369" lon="5.63987">
        <ele>482</ele>
        <time>2015-02-22T13:07:08Z</time>
      </trkpt>
      <trkpt lat="49.77369" lon="5.63987">
        <ele>482</ele>
        <time>2015-02-22T13:07:14Z</time>
      </trkpt>
      <trkpt lat="49.77368" lon="5.63986">
        <ele>481</ele>
        <time>2015-02-22T13:07:19Z</time>
      </trkpt>
      <trkpt lat="49.77368" lon="5.63985">
        <ele>482</ele>
        <time>2015-02-22T13:07:25Z</time>
      </trkpt>
      <trkpt lat="49.77368" lon="5.63983">
        <ele>481</ele>
        <time>2015-02-22T13:07:31Z</time>
      </trkpt>
      <trkpt lat="49.77367" lon="5.63982">
        <ele>482</ele>
        <time>2015-02-22T13:07:36Z</time>
      </trkpt>
      <trkpt lat="49.77365" lon="5.63982">
        <ele>481</ele>
        <time>2015-02-22T13:07:42Z</time>
      </trkpt>
      <trkpt lat="49.77366" lon="5.63982">
        <ele>481</ele>
        <time>2015-02-22T13:07:47Z</time>
      </trkpt>
      <trkpt lat="49.77367" lon="5.63985">
        <ele>480</ele>
        <time>2015-02-22T13:07:52Z</time>
      </trkpt>
      <trkpt lat="49.77368" lon="5.63986">
        <ele>481</ele>
        <time>2015-02-22T13:08:00Z</time>
      </trkpt>
      <trkpt lat="49.77369" lon="5.63988">
        <ele>481</ele>
        <time>2015-02-22T13:08:06Z</time>
      </trkpt>
      <trkpt lat="49.77369" lon="5.6399">
        <ele>481</ele>
        <time>2015-02-22T13:08:12Z</time>
      </trkpt>
      <trkpt lat="49.77369" lon="5.63991">
        <ele>480</ele>
        <time>2015-02-22T13:08:17Z</time>
      </trkpt>
      <trkpt lat="49.77369" lon="5.63992">
        <ele>480</ele>
        <time>2015-02-22T13:08:22Z</time>
      </trkpt>
      <trkpt lat="49.77369" lon="5.63994">
        <ele>480</ele>
        <time>2015-02-22T13:08:28Z</time>
      </trkpt>
      <trkpt lat="49.77369" lon="5.63994">
        <ele>480</ele>
        <time>2015-02-22T13:08:34Z</time>
      </trkpt>
      <trkpt lat="49.77369" lon="5.63994">
        <ele>480</ele>
        <time>2015-02-22T13:08:40Z</time>
      </trkpt>
      <trkpt lat="49.77369" lon="5.63993">
        <ele>480</ele>
        <time>2015-02-22T13:08:46Z</time>
      </trkpt>
      <trkpt lat="49.77368" lon="5.63992">
        <ele>480</ele>
        <time>2015-02-22T13:08:51Z</time>
      </trkpt>
      <trkpt lat="49.77367" lon="5.6399">
        <ele>480</ele>
        <time>2015-02-22T13:08:56Z</time>
      </trkpt>
      <trkpt lat="49.77367" lon="5.63988">
        <ele>480</ele>
        <time>2015-02-22T13:09:01Z</time>
      </trkpt>
      <trkpt lat="49.77367" lon="5.63987">
        <ele>473</ele>
        <time>2015-02-22T13:09:07Z</time>
      </trkpt>
      <trkpt lat="49.77372" lon="5.63991">
        <ele>469</ele>
        <time>2015-02-22T13:09:13Z</time>
      </trkpt>
      <trkpt lat="49.77366" lon="5.63988">
        <ele>472</ele>
        <time>2015-02-22T13:09:19Z</time>
      </trkpt>
      <trkpt lat="49.7736" lon="5.63979">
        <ele>471</ele>
        <time>2015-02-22T13:09:24Z</time>
      </trkpt>
      <trkpt lat="49.77354" lon="5.63971">
        <ele>471</ele>
        <time>2015-02-22T13:09:29Z</time>
      </trkpt>
      <trkpt lat="49.77352" lon="5.63966">
        <ele>470</ele>
        <time>2015-02-22T13:09:35Z</time>
      </trkpt>
      <trkpt lat="49.77352" lon="5.63966">
        <ele>470</ele>
        <time>2015-02-22T13:09:40Z</time>
      </trkpt>
      <trkpt lat="49.77359" lon="5.63975">
        <ele>471</ele>
        <time>2015-02-22T13:09:46Z</time>
      </trkpt>
      <trkpt lat="49.77366" lon="5.63985">
        <ele>471</ele>
        <time>2015-02-22T13:09:52Z</time>
      </trkpt>
      <trkpt lat="49.77374" lon="5.63997">
        <ele>471</ele>
        <time>2015-02-22T13:09:58Z</time>
      </trkpt>
      <trkpt lat="49.77382" lon="5.6401">
        <ele>471</ele>
        <time>2015-02-22T13:10:04Z</time>
      </trkpt>
      <trkpt lat="49.77383" lon="5.64013">
        <ele>471</ele>
        <time>2015-02-22T13:10:10Z</time>
      </trkpt>
      <trkpt lat="49.77382" lon="5.64011">
        <ele>471</ele>
        <time>2015-02-22T13:10:15Z</time>
      </trkpt>
      <trkpt lat="49.7738" lon="5.6401">
        <ele>471</ele>
        <time>2015-02-22T13:10:21Z</time>
      </trkpt>
      <trkpt lat="49.7738" lon="5.64009">
        <ele>471</ele>
        <time>2015-02-22T13:10:27Z</time>
      </trkpt>
      <trkpt lat="49.77376" lon="5.64004">
        <ele>470</ele>
        <time>2015-02-22T13:10:32Z</time>
      </trkpt>
      <trkpt lat="49.77375" lon="5.64">
        <ele>470</ele>
        <time>2015-02-22T13:10:37Z</time>
      </trkpt>
      <trkpt lat="49.77375" lon="5.63996">
        <ele>470</ele>
        <time>2015-02-22T13:10:43Z</time>
      </trkpt>
      <trkpt lat="49.77376" lon="5.63994">
        <ele>470</ele>
        <time>2015-02-22T13:10:48Z</time>
      </trkpt>
      <trkpt lat="49.77376" lon="5.63995">
        <ele>471</ele>
        <time>2015-02-22T13:10:54Z</time>
      </trkpt>
      <trkpt lat="49.77376" lon="5.63998">
        <ele>471</ele>
        <time>2015-02-22T13:11:00Z</time>
      </trkpt>
      <trkpt lat="49.77371" lon="5.64001">
        <ele>471</ele>
        <time>2015-02-22T13:11:06Z</time>
      </trkpt>
      <trkpt lat="49.77375" lon="5.64007">
        <ele>471</ele>
        <time>2015-02-22T13:11:11Z</time>
      </trkpt>
      <trkpt lat="49.77378" lon="5.64008">
        <ele>471</ele>
        <time>2015-02-22T13:11:18Z</time>
      </trkpt>
      <trkpt lat="49.77379" lon="5.64007">
        <ele>471</ele>
        <time>2015-02-22T13:11:23Z</time>
      </trkpt>
      <trkpt lat="49.77381" lon="5.64007">
        <ele>471</ele>
        <time>2015-02-22T13:11:28Z</time>
      </trkpt>
      <trkpt lat="49.77383" lon="5.64007">
        <ele>471</ele>
        <time>2015-02-22T13:11:34Z</time>
      </trkpt>
      <trkpt lat="49.77385" lon="5.64006">
        <ele>471</ele>
        <time>2015-02-22T13:11:40Z</time>
      </trkpt>
      <trkpt lat="49.77382" lon="5.64005">
        <ele>471</ele>
        <time>2015-02-22T13:11:46Z</time>
      </trkpt>
      <trkpt lat="49.77378" lon="5.64006">
        <ele>471</ele>
        <time>2015-02-22T13:11:52Z</time>
      </trkpt>
      <trkpt lat="49.77375" lon="5.64004">
        <ele>471</ele>
        <time>2015-02-22T13:11:58Z</time>
      </trkpt>
      <trkpt lat="49.77374" lon="5.63998">
        <ele>471</ele>
        <time>2015-02-22T13:12:04Z</time>
      </trkpt>
      <trkpt lat="49.77372" lon="5.63989">
        <ele>471</ele>
        <time>2015-02-22T13:12:09Z</time>
      </trkpt>
      <trkpt lat="49.77367" lon="5.63985">
        <ele>470</ele>
        <time>2015-02-22T13:12:14Z</time>
      </trkpt>
      <trkpt lat="49.77364" lon="5.63986">
        <ele>471</ele>
        <time>2015-02-22T13:12:19Z</time>
      </trkpt>
      <trkpt lat="49.77361" lon="5.63983">
        <ele>471</ele>
        <time>2015-02-22T13:12:25Z</time>
      </trkpt>
      <trkpt lat="49.77361" lon="5.63984">
        <ele>470</ele>
        <time>2015-02-22T13:12:30Z</time>
      </trkpt>
      <trkpt lat="49.77362" lon="5.63985">
        <ele>470</ele>
        <time>2015-02-22T13:12:35Z</time>
      </trkpt>
      <trkpt lat="49.77361" lon="5.63986">
        <ele>470</ele>
        <time>2015-02-22T13:12:41Z</time>
      </trkpt>
      <trkpt lat="49.77361" lon="5.63985">
        <ele>470</ele>
        <time>2015-02-22T13:12:46Z</time>
      </trkpt>
      <trkpt lat="49.77361" lon="5.63985">
        <ele>470</ele>
        <time>2015-02-22T13:12:57Z</time>
      </trkpt>
      <trkpt lat="49.77361" lon="5.63985">
        <ele>470</ele>
        <time>2015-02-22T13:13:04Z</time>
      </trkpt>
      <trkpt lat="49.77361" lon="5.63985">
        <ele>470</ele>
        <time>2015-02-22T13:13:11Z</time>
      </trkpt>
      <trkpt lat="49.7736" lon="5.63984">
        <ele>470</ele>
        <time>2015-02-22T13:13:17Z</time>
      </trkpt>
      <trkpt lat="49.7736" lon="5.63984">
        <ele>470</ele>
        <time>2015-02-22T13:13:23Z</time>
      </trkpt>
      <trkpt lat="49.7736" lon="5.63984">
        <ele>470</ele>
        <time>2015-02-22T13:13:30Z</time>
      </trkpt>
      <trkpt lat="49.77361" lon="5.63984">
        <ele>470</ele>
        <time>2015-02-22T13:13:36Z</time>
      </trkpt>
      <trkpt lat="49.77361" lon="5.63984">
        <ele>470</ele>
        <time>2015-02-22T13:13:41Z</time>
      </trkpt>
      <trkpt lat="49.77362" lon="5.63984">
        <ele>470</ele>
        <time>2015-02-22T13:13:47Z</time>
      </trkpt>
      <trkpt lat="49.77362" lon="5.63984">
        <ele>470</ele>
        <time>2015-02-22T13:13:53Z</time>
      </trkpt>
      <trkpt lat="49.77363" lon="5.63984">
        <ele>470</ele>
        <time>2015-02-22T13:13:58Z</time>
      </trkpt>
      <trkpt lat="49.77363" lon="5.63984">
        <ele>470</ele>
        <time>2015-02-22T13:14:04Z</time>
      </trkpt>
      <trkpt lat="49.77363" lon="5.63984">
        <ele>470</ele>
        <time>2015-02-22T13:14:11Z</time>
      </trkpt>
      <trkpt lat="49.77363" lon="5.63985">
        <ele>470</ele>
        <time>2015-02-22T13:14:18Z</time>
      </trkpt>
      <trkpt lat="49.77362" lon="5.63985">
        <ele>470</ele>
        <time>2015-02-22T13:14:23Z</time>
      </trkpt>
      <trkpt lat="49.77362" lon="5.63985">
        <ele>470</ele>
        <time>2015-02-22T13:14:29Z</time>
      </trkpt>
      <trkpt lat="49.77361" lon="5.63986">
        <ele>470</ele>
        <time>2015-02-22T13:14:34Z</time>
      </trkpt>
      <trkpt lat="49.77362" lon="5.63988">
        <ele>469</ele>
        <time>2015-02-22T13:14:40Z</time>
      </trkpt>
      <trkpt lat="49.77362" lon="5.63989">
        <ele>470</ele>
        <time>2015-02-22T13:14:45Z</time>
      </trkpt>
      <trkpt lat="49.77361" lon="5.63989">
        <ele>470</ele>
        <time>2015-02-22T13:14:51Z</time>
      </trkpt>
      <trkpt lat="49.77358" lon="5.63989">
        <ele>470</ele>
        <time>2015-02-22T13:14:57Z</time>
      </trkpt>
      <trkpt lat="49.77357" lon="5.63987">
        <ele>470</ele>
        <time>2015-02-22T13:15:03Z</time>
      </trkpt>
      <trkpt lat="49.77358" lon="5.63986">
        <ele>470</ele>
        <time>2015-02-22T13:15:09Z</time>
      </trkpt>
      <trkpt lat="49.77359" lon="5.63984">
        <ele>470</ele>
        <time>2015-02-22T13:15:15Z</time>
      </trkpt>
      <trkpt lat="49.77359" lon="5.63982">
        <ele>470</ele>
        <time>2015-02-22T13:15:20Z</time>
      </trkpt>
      <trkpt lat="49.77359" lon="5.63979">
        <ele>471</ele>
        <time>2015-02-22T13:15:25Z</time>
      </trkpt>
      <trkpt lat="49.77359" lon="5.63978">
        <ele>471</ele>
        <time>2015-02-22T13:15:31Z</time>
      </trkpt>
      <trkpt lat="49.77361" lon="5.63978">
        <ele>471</ele>
        <time>2015-02-22T13:15:37Z</time>
      </trkpt>
      <trkpt lat="49.77362" lon="5.63976">
        <ele>471</ele>
        <time>2015-02-22T13:15:43Z</time>
      </trkpt>
      <trkpt lat="49.77362" lon="5.63976">
        <ele>471</ele>
        <time>2015-02-22T13:15:48Z</time>
      </trkpt>
      <trkpt lat="49.77362" lon="5.63977">
        <ele>470</ele>
        <time>2015-02-22T13:15:54Z</time>
      </trkpt>
      <trkpt lat="49.77362" lon="5.6398">
        <ele>470</ele>
        <time>2015-02-22T13:16:00Z</time>
      </trkpt>
      <trkpt lat="49.77361" lon="5.63981">
        <ele>470</ele>
        <time>2015-02-22T13:16:05Z</time>
      </trkpt>
      <trkpt lat="49.77361" lon="5.63981">
        <ele>470</ele>
        <time>2015-02-22T13:16:11Z</time>
      </trkpt>
      <trkpt lat="49.7736" lon="5.63981">
        <ele>470</ele>
        <time>2015-02-22T13:16:16Z</time>
      </trkpt>
      <trkpt lat="49.77361" lon="5.63981">
        <ele>470</ele>
        <time>2015-02-22T13:16:22Z</time>
      </trkpt>
      <trkpt lat="49.77362" lon="5.63982">
        <ele>470</ele>
        <time>2015-02-22T13:16:28Z</time>
      </trkpt>
      <trkpt lat="49.77362" lon="5.63982">
        <ele>470</ele>
        <time>2015-02-22T13:16:33Z</time>
      </trkpt>
      <trkpt lat="49.77363" lon="5.6398">
        <ele>467</ele>
        <time>2015-02-22T13:16:38Z</time>
      </trkpt>
      <trkpt lat="49.77364" lon="5.63979">
        <ele>469</ele>
        <time>2015-02-22T13:16:43Z</time>
      </trkpt>
      <trkpt lat="49.77364" lon="5.63979">
        <ele>471</ele>
        <time>2015-02-22T13:16:49Z</time>
      </trkpt>
      <trkpt lat="49.77365" lon="5.6398">
        <ele>471</ele>
        <time>2015-02-22T13:16:54Z</time>
      </trkpt>
      <trkpt lat="49.77365" lon="5.63979">
        <ele>471</ele>
        <time>2015-02-22T13:17:00Z</time>
      </trkpt>
      <trkpt lat="49.77366" lon="5.63973">
        <ele>471</ele>
        <time>2015-02-22T13:17:05Z</time>
      </trkpt>
      <trkpt lat="49.77368" lon="5.63966">
        <ele>471</ele>
        <time>2015-02-22T13:17:10Z</time>
      </trkpt>
      <trkpt lat="49.77372" lon="5.63959">
        <ele>470</ele>
        <time>2015-02-22T13:17:16Z</time>
      </trkpt>
      <trkpt lat="49.77374" lon="5.63952">
        <ele>470</ele>
        <time>2015-02-22T13:17:21Z</time>
      </trkpt>
      <trkpt lat="49.77375" lon="5.6395">
        <ele>470</ele>
        <time>2015-02-22T13:17:29Z</time>
      </trkpt>
      <trkpt lat="49.77376" lon="5.63944">
        <ele>470</ele>
        <time>2015-02-22T13:17:34Z</time>
      </trkpt>
      <trkpt lat="49.77378" lon="5.63937">
        <ele>470</ele>
        <time>2015-02-22T13:17:39Z</time>
      </trkpt>
      <trkpt lat="49.77381" lon="5.63928">
        <ele>470</ele>
        <time>2015-02-22T13:17:45Z</time>
      </trkpt>
      <trkpt lat="49.77384" lon="5.63918">
        <ele>470</ele>
        <time>2015-02-22T13:17:51Z</time>
      </trkpt>
      <trkpt lat="49.77386" lon="5.63909">
        <ele>470</ele>
        <time>2015-02-22T13:17:56Z</time>
      </trkpt>
      <trkpt lat="49.77389" lon="5.63899">
        <ele>470</ele>
        <time>2015-02-22T13:18:02Z</time>
      </trkpt>
      <trkpt lat="49.77392" lon="5.63888">
        <ele>470</ele>
        <time>2015-02-22T13:18:08Z</time>
      </trkpt>
      <trkpt lat="49.77395" lon="5.63877">
        <ele>470</ele>
        <time>2015-02-22T13:18:14Z</time>
      </trkpt>
      <trkpt lat="49.77399" lon="5.63866">
        <ele>469</ele>
        <time>2015-02-22T13:18:20Z</time>
      </trkpt>
      <trkpt lat="49.77402" lon="5.63855">
        <ele>469</ele>
        <time>2015-02-22T13:18:26Z</time>
      </trkpt>
      <trkpt lat="49.77405" lon="5.63844">
        <ele>468</ele>
        <time>2015-02-22T13:18:32Z</time>
      </trkpt>
      <trkpt lat="49.77408" lon="5.63838">
        <ele>468</ele>
        <time>2015-02-22T13:18:37Z</time>
      </trkpt>
      <trkpt lat="49.77412" lon="5.63831">
        <ele>468</ele>
        <time>2015-02-22T13:18:42Z</time>
      </trkpt>
      <trkpt lat="49.77415" lon="5.63822">
        <ele>467</ele>
        <time>2015-02-22T13:18:48Z</time>
      </trkpt>
      <trkpt lat="49.77419" lon="5.63816">
        <ele>467</ele>
        <time>2015-02-22T13:18:53Z</time>
      </trkpt>
      <trkpt lat="49.77422" lon="5.6381">
        <ele>466</ele>
        <time>2015-02-22T13:18:58Z</time>
      </trkpt>
      <trkpt lat="49.77425" lon="5.63803">
        <ele>466</ele>
        <time>2015-02-22T13:19:03Z</time>
      </trkpt>
      <trkpt lat="49.77429" lon="5.63793">
        <ele>466</ele>
        <time>2015-02-22T13:19:09Z</time>
      </trkpt>
      <trkpt lat="49.77431" lon="5.63786">
        <ele>466</ele>
        <time>2015-02-22T13:19:14Z</time>
      </trkpt>
      <trkpt lat="49.77436" lon="5.63777">
        <ele>465</ele>
        <time>2015-02-22T13:19:20Z</time>
      </trkpt>
      <trkpt lat="49.7744" lon="5.63767">
        <ele>465</ele>
        <time>2015-02-22T13:19:26Z</time>
      </trkpt>
      <trkpt lat="49.77443" lon="5.6376">
        <ele>464</ele>
        <time>2015-02-22T13:19:31Z</time>
      </trkpt>
      <trkpt lat="49.77448" lon="5.63751">
        <ele>464</ele>
        <time>2015-02-22T13:19:37Z</time>
      </trkpt>
      <trkpt lat="49.77452" lon="5.63741">
        <ele>464</ele>
        <time>2015-02-22T13:19:43Z</time>
      </trkpt>
      <trkpt lat="49.77457" lon="5.63731">
        <ele>463</ele>
        <time>2015-02-22T13:19:49Z</time>
      </trkpt>
      <trkpt lat="49.77461" lon="5.63722">
        <ele>463</ele>
        <time>2015-02-22T13:19:55Z</time>
      </trkpt>
      <trkpt lat="49.77464" lon="5.63714">
        <ele>463</ele>
        <time>2015-02-22T13:20:00Z</time>
      </trkpt>
      <trkpt lat="49.77468" lon="5.63705">
        <ele>462</ele>
        <time>2015-02-22T13:20:05Z</time>
      </trkpt>
      <trkpt lat="49.77472" lon="5.63695">
        <ele>462</ele>
        <time>2015-02-22T13:20:11Z</time>
      </trkpt>
      <trkpt lat="49.77475" lon="5.63684">
        <ele>461</ele>
        <time>2015-02-22T13:20:17Z</time>
      </trkpt>
      <trkpt lat="49.77479" lon="5.63673">
        <ele>461</ele>
        <time>2015-02-22T13:20:23Z</time>
      </trkpt>
      <trkpt lat="49.77483" lon="5.63664">
        <ele>460</ele>
        <time>2015-02-22T13:20:28Z</time>
      </trkpt>
      <trkpt lat="49.77487" lon="5.63655">
        <ele>460</ele>
        <time>2015-02-22T13:20:34Z</time>
      </trkpt>
      <trkpt lat="49.77491" lon="5.63646">
        <ele>460</ele>
        <time>2015-02-22T13:20:40Z</time>
      </trkpt>
      <trkpt lat="49.77496" lon="5.63637">
        <ele>460</ele>
        <time>2015-02-22T13:20:46Z</time>
      </trkpt>
      <trkpt lat="49.77499" lon="5.63629">
        <ele>460</ele>
        <time>2015-02-22T13:20:51Z</time>
      </trkpt>
      <trkpt lat="49.77503" lon="5.63619">
        <ele>459</ele>
        <time>2015-02-22T13:20:57Z</time>
      </trkpt>
      <trkpt lat="49.77507" lon="5.63612">
        <ele>459</ele>
        <time>2015-02-22T13:21:02Z</time>
      </trkpt>
      <trkpt lat="49.7751" lon="5.63602">
        <ele>459</ele>
        <time>2015-02-22T13:21:08Z</time>
      </trkpt>
      <trkpt lat="49.77514" lon="5.63592">
        <ele>459</ele>
        <time>2015-02-22T13:21:14Z</time>
      </trkpt>
      <trkpt lat="49.77517" lon="5.63584">
        <ele>459</ele>
        <time>2015-02-22T13:21:19Z</time>
      </trkpt>
      <trkpt lat="49.77521" lon="5.63574">
        <ele>460</ele>
        <time>2015-02-22T13:21:25Z</time>
      </trkpt>
      <trkpt lat="49.77525" lon="5.63566">
        <ele>459</ele>
        <time>2015-02-22T13:21:31Z</time>
      </trkpt>
      <trkpt lat="49.77529" lon="5.63558">
        <ele>459</ele>
        <time>2015-02-22T13:21:37Z</time>
      </trkpt>
      <trkpt lat="49.7753" lon="5.63554">
        <ele>459</ele>
        <time>2015-02-22T13:21:43Z</time>
      </trkpt>
      <trkpt lat="49.77534" lon="5.63549">
        <ele>458</ele>
        <time>2015-02-22T13:21:48Z</time>
      </trkpt>
      <trkpt lat="49.77538" lon="5.63541">
        <ele>459</ele>
        <time>2015-02-22T13:21:54Z</time>
      </trkpt>
      <trkpt lat="49.77542" lon="5.63532">
        <ele>459</ele>
        <time>2015-02-22T13:22:00Z</time>
      </trkpt>
      <trkpt lat="49.77546" lon="5.63525">
        <ele>459</ele>
        <time>2015-02-22T13:22:05Z</time>
      </trkpt>
      <trkpt lat="49.77549" lon="5.63518">
        <ele>459</ele>
        <time>2015-02-22T13:22:10Z</time>
      </trkpt>
      <trkpt lat="49.77553" lon="5.63509">
        <ele>459</ele>
        <time>2015-02-22T13:22:16Z</time>
      </trkpt>
      <trkpt lat="49.77557" lon="5.63501">
        <ele>459</ele>
        <time>2015-02-22T13:22:21Z</time>
      </trkpt>
      <trkpt lat="49.77561" lon="5.63493">
        <ele>459</ele>
        <time>2015-02-22T13:22:27Z</time>
      </trkpt>
      <trkpt lat="49.77564" lon="5.63486">
        <ele>459</ele>
        <time>2015-02-22T13:22:32Z</time>
      </trkpt>
      <trkpt lat="49.77568" lon="5.63477">
        <ele>459</ele>
        <time>2015-02-22T13:22:38Z</time>
      </trkpt>
      <trkpt lat="49.77573" lon="5.63469">
        <ele>459</ele>
        <time>2015-02-22T13:22:44Z</time>
      </trkpt>
      <trkpt lat="49.77578" lon="5.63461">
        <ele>459</ele>
        <time>2015-02-22T13:22:50Z</time>
      </trkpt>
      <trkpt lat="49.77581" lon="5.63454">
        <ele>460</ele>
        <time>2015-02-22T13:22:55Z</time>
      </trkpt>
      <trkpt lat="49.77584" lon="5.6345">
        <ele>459</ele>
        <time>2015-02-22T13:23:01Z</time>
      </trkpt>
      <trkpt lat="49.77586" lon="5.63448">
        <ele>459</ele>
        <time>2015-02-22T13:23:07Z</time>
      </trkpt>
      <trkpt lat="49.77586" lon="5.63446">
        <ele>459</ele>
        <time>2015-02-22T13:23:13Z</time>
      </trkpt>
      <trkpt lat="49.7759" lon="5.63442">
        <ele>459</ele>
        <time>2015-02-22T13:23:18Z</time>
      </trkpt>
      <trkpt lat="49.77596" lon="5.63434">
        <ele>460</ele>
        <time>2015-02-22T13:23:24Z</time>
      </trkpt>
      <trkpt lat="49.776" lon="5.63428">
        <ele>459</ele>
        <time>2015-02-22T13:23:29Z</time>
      </trkpt>
      <trkpt lat="49.77605" lon="5.6342">
        <ele>459</ele>
        <time>2015-02-22T13:23:35Z</time>
      </trkpt>
      <trkpt lat="49.7761" lon="5.63413">
        <ele>459</ele>
        <time>2015-02-22T13:23:40Z</time>
      </trkpt>
      <trkpt lat="49.77615" lon="5.63406">
        <ele>459</ele>
        <time>2015-02-22T13:23:46Z</time>
      </trkpt>
      <trkpt lat="49.7762" lon="5.63398">
        <ele>459</ele>
        <time>2015-02-22T13:23:52Z</time>
      </trkpt>
      <trkpt lat="49.77624" lon="5.63392">
        <ele>459</ele>
        <time>2015-02-22T13:23:58Z</time>
      </trkpt>
      <trkpt lat="49.77628" lon="5.63387">
        <ele>459</ele>
        <time>2015-02-22T13:24:04Z</time>
      </trkpt>
      <trkpt lat="49.77632" lon="5.63381">
        <ele>459</ele>
        <time>2015-02-22T13:24:10Z</time>
      </trkpt>
      <trkpt lat="49.77636" lon="5.63375">
        <ele>458</ele>
        <time>2015-02-22T13:24:15Z</time>
      </trkpt>
      <trkpt lat="49.7764" lon="5.6337">
        <ele>458</ele>
        <time>2015-02-22T13:24:20Z</time>
      </trkpt>
      <trkpt lat="49.77645" lon="5.63363">
        <ele>459</ele>
        <time>2015-02-22T13:24:26Z</time>
      </trkpt>
      <trkpt lat="49.7765" lon="5.63356">
        <ele>459</ele>
        <time>2015-02-22T13:24:32Z</time>
      </trkpt>
      <trkpt lat="49.77654" lon="5.6335">
        <ele>459</ele>
        <time>2015-02-22T13:24:37Z</time>
      </trkpt>
      <trkpt lat="49.77658" lon="5.63344">
        <ele>459</ele>
        <time>2015-02-22T13:24:43Z</time>
      </trkpt>
      <trkpt lat="49.77662" lon="5.6334">
        <ele>459</ele>
        <time>2015-02-22T13:24:49Z</time>
      </trkpt>
      <trkpt lat="49.77666" lon="5.63336">
        <ele>459</ele>
        <time>2015-02-22T13:24:54Z</time>
      </trkpt>
      <trkpt lat="49.7767" lon="5.63333">
        <ele>459</ele>
        <time>2015-02-22T13:24:59Z</time>
      </trkpt>
      <trkpt lat="49.77677" lon="5.63328">
        <ele>459</ele>
        <time>2015-02-22T13:25:05Z</time>
      </trkpt>
      <trkpt lat="49.77683" lon="5.63324">
        <ele>459</ele>
        <time>2015-02-22T13:25:10Z</time>
      </trkpt>
      <trkpt lat="49.7769" lon="5.63318">
        <ele>458</ele>
        <time>2015-02-22T13:25:16Z</time>
      </trkpt>
      <trkpt lat="49.77695" lon="5.63313">
        <ele>458</ele>
        <time>2015-02-22T13:25:21Z</time>
      </trkpt>
      <trkpt lat="49.77701" lon="5.63309">
        <ele>459</ele>
        <time>2015-02-22T13:25:26Z</time>
      </trkpt>
      <trkpt lat="49.77707" lon="5.63303">
        <ele>459</ele>
        <time>2015-02-22T13:25:31Z</time>
      </trkpt>
      <trkpt lat="49.77715" lon="5.63297">
        <ele>459</ele>
        <time>2015-02-22T13:25:37Z</time>
      </trkpt>
      <trkpt lat="49.77722" lon="5.63291">
        <ele>459</ele>
        <time>2015-02-22T13:25:43Z</time>
      </trkpt>
      <trkpt lat="49.77728" lon="5.63286">
        <ele>459</ele>
        <time>2015-02-22T13:25:48Z</time>
      </trkpt>
      <trkpt lat="49.77734" lon="5.63281">
        <ele>459</ele>
        <time>2015-02-22T13:25:54Z</time>
      </trkpt>
      <trkpt lat="49.77739" lon="5.63276">
        <ele>459</ele>
        <time>2015-02-22T13:25:59Z</time>
      </trkpt>
      <trkpt lat="49.77742" lon="5.63273">
        <ele>459</ele>
        <time>2015-02-22T13:26:05Z</time>
      </trkpt>
      <trkpt lat="49.77745" lon="5.63271">
        <ele>459</ele>
        <time>2015-02-22T13:26:10Z</time>
      </trkpt>
      <trkpt lat="49.77752" lon="5.63265">
        <ele>459</ele>
        <time>2015-02-22T13:26:16Z</time>
      </trkpt>
      <trkpt lat="49.77758" lon="5.6326">
        <ele>459</ele>
        <time>2015-02-22T13:26:22Z</time>
      </trkpt>
      <trkpt lat="49.77764" lon="5.63256">
        <ele>459</ele>
        <time>2015-02-22T13:26:27Z</time>
      </trkpt>
      <trkpt lat="49.77769" lon="5.63251">
        <ele>459</ele>
        <time>2015-02-22T13:26:32Z</time>
      </trkpt>
      <trkpt lat="49.77776" lon="5.63246">
        <ele>459</ele>
        <time>2015-02-22T13:26:38Z</time>
      </trkpt>
      <trkpt lat="49.77781" lon="5.63242">
        <ele>459</ele>
        <time>2015-02-22T13:26:43Z</time>
      </trkpt>
      <trkpt lat="49.77788" lon="5.63238">
        <ele>459</ele>
        <time>2015-02-22T13:26:49Z</time>
      </trkpt>
      <trkpt lat="49.77794" lon="5.63234">
        <ele>459</ele>
        <time>2015-02-22T13:26:55Z</time>
      </trkpt>
      <trkpt lat="49.77801" lon="5.6323">
        <ele>459</ele>
        <time>2015-02-22T13:27:01Z</time>
      </trkpt>
      <trkpt lat="49.77807" lon="5.63226">
        <ele>459</ele>
        <time>2015-02-22T13:27:07Z</time>
      </trkpt>
      <trkpt lat="49.77813" lon="5.63222">
        <ele>459</ele>
        <time>2015-02-22T13:27:12Z</time>
      </trkpt>
      <trkpt lat="49.77819" lon="5.63217">
        <ele>459</ele>
        <time>2015-02-22T13:27:18Z</time>
      </trkpt>
      <trkpt lat="49.77825" lon="5.63213">
        <ele>459</ele>
        <time>2015-02-22T13:27:23Z</time>
      </trkpt>
      <trkpt lat="49.77831" lon="5.63209">
        <ele>459</ele>
        <time>2015-02-22T13:27:29Z</time>
      </trkpt>
      <trkpt lat="49.77835" lon="5.63206">
        <ele>459</ele>
        <time>2015-02-22T13:27:35Z</time>
      </trkpt>
      <trkpt lat="49.7784" lon="5.63203">
        <ele>459</ele>
        <time>2015-02-22T13:27:41Z</time>
      </trkpt>
      <trkpt lat="49.77842" lon="5.63201">
        <ele>459</ele>
        <time>2015-02-22T13:27:47Z</time>
      </trkpt>
      <trkpt lat="49.77845" lon="5.63198">
        <ele>460</ele>
        <time>2015-02-22T13:27:52Z</time>
      </trkpt>
      <trkpt lat="49.77851" lon="5.63195">
        <ele>459</ele>
        <time>2015-02-22T13:27:58Z</time>
      </trkpt>
      <trkpt lat="49.77857" lon="5.63192">
        <ele>460</ele>
        <time>2015-02-22T13:28:04Z</time>
      </trkpt>
      <trkpt lat="49.77862" lon="5.63189">
        <ele>460</ele>
        <time>2015-02-22T13:28:09Z</time>
      </trkpt>
      <trkpt lat="49.77868" lon="5.63185">
        <ele>459</ele>
        <time>2015-02-22T13:28:15Z</time>
      </trkpt>
      <trkpt lat="49.77874" lon="5.63181">
        <ele>460</ele>
        <time>2015-02-22T13:28:21Z</time>
      </trkpt>
      <trkpt lat="49.77879" lon="5.63178">
        <ele>460</ele>
        <time>2015-02-22T13:28:26Z</time>
      </trkpt>
      <trkpt lat="49.77884" lon="5.63174">
        <ele>460</ele>
        <time>2015-02-22T13:28:31Z</time>
      </trkpt>
      <trkpt lat="49.7789" lon="5.63169">
        <ele>460</ele>
        <time>2015-02-22T13:28:37Z</time>
      </trkpt>
      <trkpt lat="49.77896" lon="5.63166">
        <ele>460</ele>
        <time>2015-02-22T13:28:42Z</time>
      </trkpt>
      <trkpt lat="49.77899" lon="5.63165">
        <ele>460</ele>
        <time>2015-02-22T13:28:48Z</time>
      </trkpt>
      <trkpt lat="49.77903" lon="5.63162">
        <ele>460</ele>
        <time>2015-02-22T13:28:54Z</time>
      </trkpt>
      <trkpt lat="49.77909" lon="5.63158">
        <ele>460</ele>
        <time>2015-02-22T13:28:59Z</time>
      </trkpt>
      <trkpt lat="49.77915" lon="5.63156">
        <ele>460</ele>
        <time>2015-02-22T13:29:04Z</time>
      </trkpt>
      <trkpt lat="49.77921" lon="5.63153">
        <ele>461</ele>
        <time>2015-02-22T13:29:09Z</time>
      </trkpt>
      <trkpt lat="49.77927" lon="5.63148">
        <ele>461</ele>
        <time>2015-02-22T13:29:15Z</time>
      </trkpt>
      <trkpt lat="49.77932" lon="5.63146">
        <ele>461</ele>
        <time>2015-02-22T13:29:20Z</time>
      </trkpt>
      <trkpt lat="49.77938" lon="5.63143">
        <ele>461</ele>
        <time>2015-02-22T13:29:25Z</time>
      </trkpt>
      <trkpt lat="49.77944" lon="5.63139">
        <ele>461</ele>
        <time>2015-02-22T13:29:31Z</time>
      </trkpt>
      <trkpt lat="49.7795" lon="5.63135">
        <ele>461</ele>
        <time>2015-02-22T13:29:37Z</time>
      </trkpt>
      <trkpt lat="49.77957" lon="5.63133">
        <ele>461</ele>
        <time>2015-02-22T13:29:43Z</time>
      </trkpt>
      <trkpt lat="49.77962" lon="5.6313">
        <ele>461</ele>
        <time>2015-02-22T13:29:48Z</time>
      </trkpt>
      <trkpt lat="49.77967" lon="5.63127">
        <ele>462</ele>
        <time>2015-02-22T13:29:53Z</time>
      </trkpt>
      <trkpt lat="49.77973" lon="5.63122">
        <ele>461</ele>
        <time>2015-02-22T13:29:59Z</time>
      </trkpt>
      <trkpt lat="49.77979" lon="5.63117">
        <ele>461</ele>
        <time>2015-02-22T13:30:05Z</time>
      </trkpt>
      <trkpt lat="49.77982" lon="5.63115">
        <ele>461</ele>
        <time>2015-02-22T13:30:10Z</time>
      </trkpt>
      <trkpt lat="49.77987" lon="5.63111">
        <ele>462</ele>
        <time>2015-02-22T13:30:16Z</time>
      </trkpt>
      <trkpt lat="49.77991" lon="5.63107">
        <ele>462</ele>
        <time>2015-02-22T13:30:21Z</time>
      </trkpt>
      <trkpt lat="49.77995" lon="5.63105">
        <ele>461</ele>
        <time>2015-02-22T13:30:26Z</time>
      </trkpt>
      <trkpt lat="49.78001" lon="5.63101">
        <ele>461</ele>
        <time>2015-02-22T13:30:32Z</time>
      </trkpt>
      <trkpt lat="49.78007" lon="5.63097">
        <ele>462</ele>
        <time>2015-02-22T13:30:38Z</time>
      </trkpt>
      <trkpt lat="49.78013" lon="5.63092">
        <ele>462</ele>
        <time>2015-02-22T13:30:44Z</time>
      </trkpt>
      <trkpt lat="49.78018" lon="5.63088">
        <ele>462</ele>
        <time>2015-02-22T13:30:49Z</time>
      </trkpt>
      <trkpt lat="49.7802" lon="5.63079">
        <ele>462</ele>
        <time>2015-02-22T13:30:55Z</time>
      </trkpt>
      <trkpt lat="49.78017" lon="5.63072">
        <ele>462</ele>
        <time>2015-02-22T13:31:01Z</time>
      </trkpt>
      <trkpt lat="49.78014" lon="5.63068">
        <ele>463</ele>
        <time>2015-02-22T13:31:06Z</time>
      </trkpt>
      <trkpt lat="49.7801" lon="5.6306">
        <ele>462</ele>
        <time>2015-02-22T13:31:12Z</time>
      </trkpt>
      <trkpt lat="49.78008" lon="5.63053">
        <ele>463</ele>
        <time>2015-02-22T13:31:17Z</time>
      </trkpt>
      <trkpt lat="49.78006" lon="5.63045">
        <ele>463</ele>
        <time>2015-02-22T13:31:23Z</time>
      </trkpt>
      <trkpt lat="49.78003" lon="5.63036">
        <ele>464</ele>
        <time>2015-02-22T13:31:29Z</time>
      </trkpt>
      <trkpt lat="49.78" lon="5.63029">
        <ele>464</ele>
        <time>2015-02-22T13:31:34Z</time>
      </trkpt>
      <trkpt lat="49.77996" lon="5.63022">
        <ele>464</ele>
        <time>2015-02-22T13:31:40Z</time>
      </trkpt>
      <trkpt lat="49.77991" lon="5.63017">
        <ele>464</ele>
        <time>2015-02-22T13:31:45Z</time>
      </trkpt>
      <trkpt lat="49.77987" lon="5.63013">
        <ele>465</ele>
        <time>2015-02-22T13:31:50Z</time>
      </trkpt>
      <trkpt lat="49.7798" lon="5.6301">
        <ele>465</ele>
        <time>2015-02-22T13:31:56Z</time>
      </trkpt>
      <trkpt lat="49.77973" lon="5.63007">
        <ele>465</ele>
        <time>2015-02-22T13:32:02Z</time>
      </trkpt>
      <trkpt lat="49.77966" lon="5.63005">
        <ele>465</ele>
        <time>2015-02-22T13:32:08Z</time>
      </trkpt>
      <trkpt lat="49.7796" lon="5.63005">
        <ele>466</ele>
        <time>2015-02-22T13:32:13Z</time>
      </trkpt>
      <trkpt lat="49.77953" lon="5.63003">
        <ele>466</ele>
        <time>2015-02-22T13:32:19Z</time>
      </trkpt>
      <trkpt lat="49.77946" lon="5.63002">
        <ele>466</ele>
        <time>2015-02-22T13:32:24Z</time>
      </trkpt>
      <trkpt lat="49.77946" lon="5.63001">
        <ele>466</ele>
        <time>2015-02-22T13:32:29Z</time>
      </trkpt>
      <trkpt lat="49.77941" lon="5.63001">
        <ele>466</ele>
        <time>2015-02-22T13:32:35Z</time>
      </trkpt>
      <trkpt lat="49.77935" lon="5.63">
        <ele>467</ele>
        <time>2015-02-22T13:32:40Z</time>
      </trkpt>
      <trkpt lat="49.77929" lon="5.62999">
        <ele>467</ele>
        <time>2015-02-22T13:32:46Z</time>
      </trkpt>
      <trkpt lat="49.77922" lon="5.62997">
        <ele>468</ele>
        <time>2015-02-22T13:32:52Z</time>
      </trkpt>
      <trkpt lat="49.77922" lon="5.62997">
        <ele>468</ele>
        <time>2015-02-22T13:32:58Z</time>
      </trkpt>
      <trkpt lat="49.77919" lon="5.62996">
        <ele>468</ele>
        <time>2015-02-22T13:33:04Z</time>
      </trkpt>
      <trkpt lat="49.77913" lon="5.62994">
        <ele>468</ele>
        <time>2015-02-22T13:33:09Z</time>
      </trkpt>
      <trkpt lat="49.77908" lon="5.62988">
        <ele>469</ele>
        <time>2015-02-22T13:33:15Z</time>
      </trkpt>
      <trkpt lat="49.77902" lon="5.62984">
        <ele>469</ele>
        <time>2015-02-22T13:33:20Z</time>
      </trkpt>
      <trkpt lat="49.77896" lon="5.62979">
        <ele>469</ele>
        <time>2015-02-22T13:33:26Z</time>
      </trkpt>
      <trkpt lat="49.7789" lon="5.62975">
        <ele>470</ele>
        <time>2015-02-22T13:33:32Z</time>
      </trkpt>
      <trkpt lat="49.77884" lon="5.62971">
        <ele>470</ele>
        <time>2015-02-22T13:33:37Z</time>
      </trkpt>
      <trkpt lat="49.77879" lon="5.62968">
        <ele>471</ele>
        <time>2015-02-22T13:33:43Z</time>
      </trkpt>
      <trkpt lat="49.77874" lon="5.62967">
        <ele>472</ele>
        <time>2015-02-22T13:33:48Z</time>
      </trkpt>
      <trkpt lat="49.77869" lon="5.62966">
        <ele>472</ele>
        <time>2015-02-22T13:33:54Z</time>
      </trkpt>
      <trkpt lat="49.77864" lon="5.62964">
        <ele>472</ele>
        <time>2015-02-22T13:33:59Z</time>
      </trkpt>
      <trkpt lat="49.77859" lon="5.62964">
        <ele>473</ele>
        <time>2015-02-22T13:34:05Z</time>
      </trkpt>
      <trkpt lat="49.77859" lon="5.62964">
        <ele>473</ele>
        <time>2015-02-22T13:34:12Z</time>
      </trkpt>
      <trkpt lat="49.77854" lon="5.62961">
        <ele>473</ele>
        <time>2015-02-22T13:34:18Z</time>
      </trkpt>
      <trkpt lat="49.77849" lon="5.62962">
        <ele>473</ele>
        <time>2015-02-22T13:34:23Z</time>
      </trkpt>
      <trkpt lat="49.77844" lon="5.62962">
        <ele>473</ele>
        <time>2015-02-22T13:34:28Z</time>
      </trkpt>
      <trkpt lat="49.77837" lon="5.62962">
        <ele>474</ele>
        <time>2015-02-22T13:34:34Z</time>
      </trkpt>
      <trkpt lat="49.77829" lon="5.62962">
        <ele>474</ele>
        <time>2015-02-22T13:34:40Z</time>
      </trkpt>
      <trkpt lat="49.77822" lon="5.62963">
        <ele>474</ele>
        <time>2015-02-22T13:34:46Z</time>
      </trkpt>
      <trkpt lat="49.77816" lon="5.62964">
        <ele>475</ele>
        <time>2015-02-22T13:34:51Z</time>
      </trkpt>
      <trkpt lat="49.7781" lon="5.62964">
        <ele>475</ele>
        <time>2015-02-22T13:34:57Z</time>
      </trkpt>
      <trkpt lat="49.77805" lon="5.62965">
        <ele>475</ele>
        <time>2015-02-22T13:35:02Z</time>
      </trkpt>
      <trkpt lat="49.77799" lon="5.62966">
        <ele>475</ele>
        <time>2015-02-22T13:35:07Z</time>
      </trkpt>
      <trkpt lat="49.77795" lon="5.62966">
        <ele>475</ele>
        <time>2015-02-22T13:35:13Z</time>
      </trkpt>
      <trkpt lat="49.77795" lon="5.62966">
        <ele>475</ele>
        <time>2015-02-22T13:35:18Z</time>
      </trkpt>
      <trkpt lat="49.7779" lon="5.62967">
        <ele>475</ele>
        <time>2015-02-22T13:35:24Z</time>
      </trkpt>
      <trkpt lat="49.77784" lon="5.62969">
        <ele>475</ele>
        <time>2015-02-22T13:35:29Z</time>
      </trkpt>
      <trkpt lat="49.77778" lon="5.62971">
        <ele>475</ele>
        <time>2015-02-22T13:35:34Z</time>
      </trkpt>
      <trkpt lat="49.77772" lon="5.62972">
        <ele>475</ele>
        <time>2015-02-22T13:35:39Z</time>
      </trkpt>
      <trkpt lat="49.77767" lon="5.62974">
        <ele>475</ele>
        <time>2015-02-22T13:35:44Z</time>
      </trkpt>
      <trkpt lat="49.77766" lon="5.62975">
        <ele>475</ele>
        <time>2015-02-22T13:35:49Z</time>
      </trkpt>
      <trkpt lat="49.77762" lon="5.62976">
        <ele>475</ele>
        <time>2015-02-22T13:35:54Z</time>
      </trkpt>
      <trkpt lat="49.77756" lon="5.62977">
        <ele>475</ele>
        <time>2015-02-22T13:36:00Z</time>
      </trkpt>
      <trkpt lat="49.77751" lon="5.62978">
        <ele>475</ele>
        <time>2015-02-22T13:36:05Z</time>
      </trkpt>
      <trkpt lat="49.77747" lon="5.62978">
        <ele>475</ele>
        <time>2015-02-22T13:36:10Z</time>
      </trkpt>
      <trkpt lat="49.77745" lon="5.6298">
        <ele>475</ele>
        <time>2015-02-22T13:36:15Z</time>
      </trkpt>
      <trkpt lat="49.77739" lon="5.62981">
        <ele>475</ele>
        <time>2015-02-22T13:36:21Z</time>
      </trkpt>
      <trkpt lat="49.77734" lon="5.62983">
        <ele>476</ele>
        <time>2015-02-22T13:36:27Z</time>
      </trkpt>
      <trkpt lat="49.7773" lon="5.62987">
        <ele>476</ele>
        <time>2015-02-22T13:36:32Z</time>
      </trkpt>
      <trkpt lat="49.77726" lon="5.6299">
        <ele>476</ele>
        <time>2015-02-22T13:36:37Z</time>
      </trkpt>
      <trkpt lat="49.77724" lon="5.62992">
        <ele>476</ele>
        <time>2015-02-22T13:36:43Z</time>
      </trkpt>
      <trkpt lat="49.77723" lon="5.62994">
        <ele>475</ele>
        <time>2015-02-22T13:36:49Z</time>
      </trkpt>
      <trkpt lat="49.77722" lon="5.62995">
        <ele>476</ele>
        <time>2015-02-22T13:36:55Z</time>
      </trkpt>
      <trkpt lat="49.77721" lon="5.62997">
        <ele>476</ele>
        <time>2015-02-22T13:37:00Z</time>
      </trkpt>
      <trkpt lat="49.7772" lon="5.63001">
        <ele>475</ele>
        <time>2015-02-22T13:37:06Z</time>
      </trkpt>
      <trkpt lat="49.77718" lon="5.63008">
        <ele>475</ele>
        <time>2015-02-22T13:37:11Z</time>
      </trkpt>
      <trkpt lat="49.77717" lon="5.63012">
        <ele>475</ele>
        <time>2015-02-22T13:37:16Z</time>
      </trkpt>
      <trkpt lat="49.77717" lon="5.63013">
        <ele>475</ele>
        <time>2015-02-22T13:37:22Z</time>
      </trkpt>
      <trkpt lat="49.77717" lon="5.63014">
        <ele>475</ele>
        <time>2015-02-22T13:37:27Z</time>
      </trkpt>
      <trkpt lat="49.77717" lon="5.63016">
        <ele>475</ele>
        <time>2015-02-22T13:37:32Z</time>
      </trkpt>
      <trkpt lat="49.77716" lon="5.63016">
        <ele>475</ele>
        <time>2015-02-22T13:37:37Z</time>
      </trkpt>
      <trkpt lat="49.77716" lon="5.63018">
        <ele>475</ele>
        <time>2015-02-22T13:37:42Z</time>
      </trkpt>
      <trkpt lat="49.77717" lon="5.63017">
        <ele>474</ele>
        <time>2015-02-22T13:37:48Z</time>
      </trkpt>
      <trkpt lat="49.77718" lon="5.63016">
        <ele>474</ele>
        <time>2015-02-22T13:37:54Z</time>
      </trkpt>
      <trkpt lat="49.77732" lon="5.63016">
        <ele>474</ele>
        <time>2015-02-22T13:38:00Z</time>
      </trkpt>
      <trkpt lat="49.7774" lon="5.63016">
        <ele>474</ele>
        <time>2015-02-22T13:38:05Z</time>
      </trkpt>
      <trkpt lat="49.77742" lon="5.63015">
        <ele>474</ele>
        <time>2015-02-22T13:38:10Z</time>
      </trkpt>
      <trkpt lat="49.7774" lon="5.63013">
        <ele>474</ele>
        <time>2015-02-22T13:38:16Z</time>
      </trkpt>
      <trkpt lat="49.7774" lon="5.63012">
        <ele>474</ele>
        <time>2015-02-22T13:38:21Z</time>
      </trkpt>
      <trkpt lat="49.77737" lon="5.6301">
        <ele>474</ele>
        <time>2015-02-22T13:38:27Z</time>
      </trkpt>
      <trkpt lat="49.77734" lon="5.63008">
        <ele>474</ele>
        <time>2015-02-22T13:38:33Z</time>
      </trkpt>
      <trkpt lat="49.7773" lon="5.63007">
        <ele>474</ele>
        <time>2015-02-22T13:38:39Z</time>
      </trkpt>
      <trkpt lat="49.77729" lon="5.63008">
        <ele>474</ele>
        <time>2015-02-22T13:38:44Z</time>
      </trkpt>
      <trkpt lat="49.7773" lon="5.63007">
        <ele>474</ele>
        <time>2015-02-22T13:38:50Z</time>
      </trkpt>
      <trkpt lat="49.7773" lon="5.63005">
        <ele>474</ele>
        <time>2015-02-22T13:38:55Z</time>
      </trkpt>
      <trkpt lat="49.77724" lon="5.63007">
        <ele>474</ele>
        <time>2015-02-22T13:39:01Z</time>
      </trkpt>
      <trkpt lat="49.77721" lon="5.63007">
        <ele>474</ele>
        <time>2015-02-22T13:39:07Z</time>
      </trkpt>
      <trkpt lat="49.77719" lon="5.63007">
        <ele>475</ele>
        <time>2015-02-22T13:39:12Z</time>
      </trkpt>
      <trkpt lat="49.77719" lon="5.63009">
        <ele>474</ele>
        <time>2015-02-22T13:39:17Z</time>
      </trkpt>
      <trkpt lat="49.77718" lon="5.6301">
        <ele>474</ele>
        <time>2015-02-22T13:39:22Z</time>
      </trkpt>
      <trkpt lat="49.77717" lon="5.6301">
        <ele>474</ele>
        <time>2015-02-22T13:39:27Z</time>
      </trkpt>
      <trkpt lat="49.77718" lon="5.63011">
        <ele>474</ele>
        <time>2015-02-22T13:39:34Z</time>
      </trkpt>
      <trkpt lat="49.77719" lon="5.6301">
        <ele>474</ele>
        <time>2015-02-22T13:39:39Z</time>
      </trkpt>
      <trkpt lat="49.7772" lon="5.6301">
        <ele>474</ele>
        <time>2015-02-22T13:39:45Z</time>
      </trkpt>
      <trkpt lat="49.77721" lon="5.63009">
        <ele>474</ele>
        <time>2015-02-22T13:39:50Z</time>
      </trkpt>
      <trkpt lat="49.77722" lon="5.63009">
        <ele>474</ele>
        <time>2015-02-22T13:39:56Z</time>
      </trkpt>
      <trkpt lat="49.77723" lon="5.6301">
        <ele>474</ele>
        <time>2015-02-22T13:40:02Z</time>
      </trkpt>
      <trkpt lat="49.77724" lon="5.6301">
        <ele>474</ele>
        <time>2015-02-22T13:40:08Z</time>
      </trkpt>
      <trkpt lat="49.77725" lon="5.6301">
        <ele>475</ele>
        <time>2015-02-22T13:40:14Z</time>
      </trkpt>
      <trkpt lat="49.77725" lon="5.63011">
        <ele>474</ele>
        <time>2015-02-22T13:40:19Z</time>
      </trkpt>
      <trkpt lat="49.77725" lon="5.63012">
        <ele>474</ele>
        <time>2015-02-22T13:40:26Z</time>
      </trkpt>
      <trkpt lat="49.77723" lon="5.63012">
        <ele>474</ele>
        <time>2015-02-22T13:40:32Z</time>
      </trkpt>
      <trkpt lat="49.77721" lon="5.63013">
        <ele>474</ele>
        <time>2015-02-22T13:40:37Z</time>
      </trkpt>
      <trkpt lat="49.77722" lon="5.63012">
        <ele>474</ele>
        <time>2015-02-22T13:40:43Z</time>
      </trkpt>
      <trkpt lat="49.77721" lon="5.63014">
        <ele>474</ele>
        <time>2015-02-22T13:40:48Z</time>
      </trkpt>
      <trkpt lat="49.7772" lon="5.63013">
        <ele>474</ele>
        <time>2015-02-22T13:40:53Z</time>
      </trkpt>
      <trkpt lat="49.77719" lon="5.63015">
        <ele>474</ele>
        <time>2015-02-22T13:40:59Z</time>
      </trkpt>
      <trkpt lat="49.77718" lon="5.63015">
        <ele>474</ele>
        <time>2015-02-22T13:41:05Z</time>
      </trkpt>
      <trkpt lat="49.77718" lon="5.63014">
        <ele>474</ele>
        <time>2015-02-22T13:41:11Z</time>
      </trkpt>
      <trkpt lat="49.77719" lon="5.63011">
        <ele>475</ele>
        <time>2015-02-22T13:41:17Z</time>
      </trkpt>
      <trkpt lat="49.77719" lon="5.6301">
        <ele>474</ele>
        <time>2015-02-22T13:41:23Z</time>
      </trkpt>
      <trkpt lat="49.7772" lon="5.6301">
        <ele>474</ele>
        <time>2015-02-22T13:41:28Z</time>
      </trkpt>
      <trkpt lat="49.7772" lon="5.6301">
        <ele>474</ele>
        <time>2015-02-22T13:41:33Z</time>
      </trkpt>
      <trkpt lat="49.7772" lon="5.63011">
        <ele>475</ele>
        <time>2015-02-22T13:41:39Z</time>
      </trkpt>
      <trkpt lat="49.77719" lon="5.63012">
        <ele>475</ele>
        <time>2015-02-22T13:41:44Z</time>
      </trkpt>
      <trkpt lat="49.7772" lon="5.63012">
        <ele>475</ele>
        <time>2015-02-22T13:41:50Z</time>
      </trkpt>
      <trkpt lat="49.7772" lon="5.63013">
        <ele>475</ele>
        <time>2015-02-22T13:41:56Z</time>
      </trkpt>
      <trkpt lat="49.77719" lon="5.63013">
        <ele>474</ele>
        <time>2015-02-22T13:42:02Z</time>
      </trkpt>
      <trkpt lat="49.77719" lon="5.63012">
        <ele>475</ele>
        <time>2015-02-22T13:42:07Z</time>
      </trkpt>
      <trkpt lat="49.77719" lon="5.6301">
        <ele>475</ele>
        <time>2015-02-22T13:42:12Z</time>
      </trkpt>
      <trkpt lat="49.77719" lon="5.63011">
        <ele>475</ele>
        <time>2015-02-22T13:42:17Z</time>
      </trkpt>
      <trkpt lat="49.7772" lon="5.63012">
        <ele>475</ele>
        <time>2015-02-22T13:42:22Z</time>
      </trkpt>
      <trkpt lat="49.77721" lon="5.63012">
        <ele>475</ele>
        <time>2015-02-22T13:42:28Z</time>
      </trkpt>
      <trkpt lat="49.77721" lon="5.63012">
        <ele>475</ele>
        <time>2015-02-22T13:42:34Z</time>
      </trkpt>
      <trkpt lat="49.77722" lon="5.63011">
        <ele>475</ele>
        <time>2015-02-22T13:42:40Z</time>
      </trkpt>
      <trkpt lat="49.77723" lon="5.63011">
        <ele>474</ele>
        <time>2015-02-22T13:42:45Z</time>
      </trkpt>
      <trkpt lat="49.77724" lon="5.6301">
        <ele>474</ele>
        <time>2015-02-22T13:42:51Z</time>
      </trkpt>
      <trkpt lat="49.77723" lon="5.6301">
        <ele>475</ele>
        <time>2015-02-22T13:42:57Z</time>
      </trkpt>
      <trkpt lat="49.77723" lon="5.6301">
        <ele>475</ele>
        <time>2015-02-22T13:43:03Z</time>
      </trkpt>
      <trkpt lat="49.77723" lon="5.6301">
        <ele>475</ele>
        <time>2015-02-22T13:43:09Z</time>
      </trkpt>
      <trkpt lat="49.77723" lon="5.63009">
        <ele>475</ele>
        <time>2015-02-22T13:43:15Z</time>
      </trkpt>
      <trkpt lat="49.77723" lon="5.6301">
        <ele>475</ele>
        <time>2015-02-22T13:43:20Z</time>
      </trkpt>
      <trkpt lat="49.77723" lon="5.6301">
        <ele>474</ele>
        <time>2015-02-22T13:43:26Z</time>
      </trkpt>
      <trkpt lat="49.77723" lon="5.6301">
        <ele>475</ele>
        <time>2015-02-22T13:43:31Z</time>
      </trkpt>
      <trkpt lat="49.77722" lon="5.63011">
        <ele>475</ele>
        <time>2015-02-22T13:43:38Z</time>
      </trkpt>
      <trkpt lat="49.77722" lon="5.63011">
        <ele>475</ele>
        <time>2015-02-22T13:43:46Z</time>
      </trkpt>
      <trkpt lat="49.77723" lon="5.63012">
        <ele>474</ele>
        <time>2015-02-22T13:43:52Z</time>
      </trkpt>
      <trkpt lat="49.77722" lon="5.63012">
        <ele>475</ele>
        <time>2015-02-22T13:43:57Z</time>
      </trkpt>
      <trkpt lat="49.77721" lon="5.63012">
        <ele>475</ele>
        <time>2015-02-22T13:44:03Z</time>
      </trkpt>
      <trkpt lat="49.77722" lon="5.63012">
        <ele>475</ele>
        <time>2015-02-22T13:44:09Z</time>
      </trkpt>
      <trkpt lat="49.77721" lon="5.63011">
        <ele>475</ele>
        <time>2015-02-22T13:44:15Z</time>
      </trkpt>
      <trkpt lat="49.7772" lon="5.63011">
        <ele>475</ele>
        <time>2015-02-22T13:44:20Z</time>
      </trkpt>
      <trkpt lat="49.7772" lon="5.63011">
        <ele>475</ele>
        <time>2015-02-22T13:44:26Z</time>
      </trkpt>
      <trkpt lat="49.7772" lon="5.63012">
        <ele>475</ele>
        <time>2015-02-22T13:44:32Z</time>
      </trkpt>
      <trkpt lat="49.77721" lon="5.63012">
        <ele>475</ele>
        <time>2015-02-22T13:44:38Z</time>
      </trkpt>
      <trkpt lat="49.77721" lon="5.63012">
        <ele>475</ele>
        <time>2015-02-22T13:44:43Z</time>
      </trkpt>
      <trkpt lat="49.77721" lon="5.63011">
        <ele>475</ele>
        <time>2015-02-22T13:44:48Z</time>
      </trkpt>
      <trkpt lat="49.77721" lon="5.63012">
        <ele>475</ele>
        <time>2015-02-22T13:44:54Z</time>
      </trkpt>
      <trkpt lat="49.7772" lon="5.63011">
        <ele>475</ele>
        <time>2015-02-22T13:44:59Z</time>
      </trkpt>
      <trkpt lat="49.77719" lon="5.63012">
        <ele>475</ele>
        <time>2015-02-22T13:45:05Z</time>
      </trkpt>
      <trkpt lat="49.77719" lon="5.63012">
        <ele>475</ele>
        <time>2015-02-22T13:45:10Z</time>
      </trkpt>
      <trkpt lat="49.77719" lon="5.63012">
        <ele>475</ele>
        <time>2015-02-22T13:45:15Z</time>
      </trkpt>
      <trkpt lat="49.77719" lon="5.63012">
        <ele>475</ele>
        <time>2015-02-22T13:45:20Z</time>
      </trkpt>
      <trkpt lat="49.77718" lon="5.63012">
        <ele>475</ele>
        <time>2015-02-22T13:45:25Z</time>
      </trkpt>
      <trkpt lat="49.77719" lon="5.63013">
        <ele>475</ele>
        <time>2015-02-22T13:45:31Z</time>
      </trkpt>
      <trkpt lat="49.7772" lon="5.63014">
        <ele>475</ele>
        <time>2015-02-22T13:45:36Z</time>
      </trkpt>
      <trkpt lat="49.7772" lon="5.63014">
        <ele>475</ele>
        <time>2015-02-22T13:45:42Z</time>
      </trkpt>
      <trkpt lat="49.7772" lon="5.63015">
        <ele>475</ele>
        <time>2015-02-22T13:45:47Z</time>
      </trkpt>
      <trkpt lat="49.7772" lon="5.63017">
        <ele>475</ele>
        <time>2015-02-22T13:45:52Z</time>
      </trkpt>
      <trkpt lat="49.7772" lon="5.63015">
        <ele>475</ele>
        <time>2015-02-22T13:45:58Z</time>
      </trkpt>
      <trkpt lat="49.7772" lon="5.63013">
        <ele>475</ele>
        <time>2015-02-22T13:46:04Z</time>
      </trkpt>
      <trkpt lat="49.7772" lon="5.63013">
        <ele>475</ele>
        <time>2015-02-22T13:46:09Z</time>
      </trkpt>
      <trkpt lat="49.7772" lon="5.63013">
        <ele>475</ele>
        <time>2015-02-22T13:46:15Z</time>
      </trkpt>
      <trkpt lat="49.7772" lon="5.63013">
        <ele>475</ele>
        <time>2015-02-22T13:46:21Z</time>
      </trkpt>
      <trkpt lat="49.7772" lon="5.63013">
        <ele>475</ele>
        <time>2015-02-22T13:46:28Z</time>
      </trkpt>
      <trkpt lat="49.7772" lon="5.63013">
        <ele>475</ele>
        <time>2015-02-22T13:46:36Z</time>
      </trkpt>
      <trkpt lat="49.77719" lon="5.63012">
        <ele>474</ele>
        <time>2015-02-22T13:46:41Z</time>
      </trkpt>
      <trkpt lat="49.77719" lon="5.63012">
        <ele>474</ele>
        <time>2015-02-22T13:46:46Z</time>
      </trkpt>
      <trkpt lat="49.77719" lon="5.63011">
        <ele>475</ele>
        <time>2015-02-22T13:46:53Z</time>
      </trkpt>
      <trkpt lat="49.7772" lon="5.6301">
        <ele>475</ele>
        <time>2015-02-22T13:46:59Z</time>
      </trkpt>
      <trkpt lat="49.7772" lon="5.6301">
        <ele>475</ele>
        <time>2015-02-22T13:47:05Z</time>
      </trkpt>
      <trkpt lat="49.77719" lon="5.63011">
        <ele>475</ele>
        <time>2015-02-22T13:47:11Z</time>
      </trkpt>
      <trkpt lat="49.77719" lon="5.63011">
        <ele>475</ele>
        <time>2015-02-22T13:47:16Z</time>
      </trkpt>
      <trkpt lat="49.77719" lon="5.63012">
        <ele>475</ele>
        <time>2015-02-22T13:47:23Z</time>
      </trkpt>
      <trkpt lat="49.77719" lon="5.63012">
        <ele>475</ele>
        <time>2015-02-22T13:47:28Z</time>
      </trkpt>
      <trkpt lat="49.77719" lon="5.63012">
        <ele>475</ele>
        <time>2015-02-22T13:47:34Z</time>
      </trkpt>
      <trkpt lat="49.7772" lon="5.63011">
        <ele>474</ele>
        <time>2015-02-22T13:47:39Z</time>
      </trkpt>
      <trkpt lat="49.7772" lon="5.63011">
        <ele>475</ele>
        <time>2015-02-22T13:47:44Z</time>
      </trkpt>
      <trkpt lat="49.7772" lon="5.63011">
        <ele>475</ele>
        <time>2015-02-22T13:47:50Z</time>
      </trkpt>
      <trkpt lat="49.77721" lon="5.63011">
        <ele>474</ele>
        <time>2015-02-22T13:47:56Z</time>
      </trkpt>
      <trkpt lat="49.7772" lon="5.63012">
        <ele>474</ele>
        <time>2015-02-22T13:48:01Z</time>
      </trkpt>
      <trkpt lat="49.77721" lon="5.63013">
        <ele>475</ele>
        <time>2015-02-22T13:48:07Z</time>
      </trkpt>
      <trkpt lat="49.77721" lon="5.63014">
        <ele>474</ele>
        <time>2015-02-22T13:48:12Z</time>
      </trkpt>
      <trkpt lat="49.7772" lon="5.63015">
        <ele>474</ele>
        <time>2015-02-22T13:48:19Z</time>
      </trkpt>
      <trkpt lat="49.7772" lon="5.63015">
        <ele>474</ele>
        <time>2015-02-22T13:48:26Z</time>
      </trkpt>
      <trkpt lat="49.77718" lon="5.63018">
        <ele>474</ele>
        <time>2015-02-22T13:48:31Z</time>
      </trkpt>
      <trkpt lat="49.77718" lon="5.63017">
        <ele>475</ele>
        <time>2015-02-22T13:48:36Z</time>
      </trkpt>
      <trkpt lat="49.7772" lon="5.63021">
        <ele>475</ele>
        <time>2015-02-22T13:48:42Z</time>
      </trkpt>
      <trkpt lat="49.77719" lon="5.63028">
        <ele>475</ele>
        <time>2015-02-22T13:48:47Z</time>
      </trkpt>
      <trkpt lat="49.7772" lon="5.63025">
        <ele>475</ele>
        <time>2015-02-22T13:48:53Z</time>
      </trkpt>
      <trkpt lat="49.77721" lon="5.63022">
        <ele>475</ele>
        <time>2015-02-22T13:48:58Z</time>
      </trkpt>
      <trkpt lat="49.77722" lon="5.6302">
        <ele>475</ele>
        <time>2015-02-22T13:49:03Z</time>
      </trkpt>
      <trkpt lat="49.77724" lon="5.63014">
        <ele>475</ele>
        <time>2015-02-22T13:49:09Z</time>
      </trkpt>
      <trkpt lat="49.77724" lon="5.63005">
        <ele>476</ele>
        <time>2015-02-22T13:49:14Z</time>
      </trkpt>
      <trkpt lat="49.77721" lon="5.63">
        <ele>476</ele>
        <time>2015-02-22T13:49:20Z</time>
      </trkpt>
      <trkpt lat="49.77716" lon="5.63">
        <ele>476</ele>
        <time>2015-02-22T13:49:25Z</time>
      </trkpt>
      <trkpt lat="49.7771" lon="5.63001">
        <ele>476</ele>
        <time>2015-02-22T13:49:31Z</time>
      </trkpt>
      <trkpt lat="49.77704" lon="5.63002">
        <ele>477</ele>
        <time>2015-02-22T13:49:37Z</time>
      </trkpt>
      <trkpt lat="49.77699" lon="5.63002">
        <ele>477</ele>
        <time>2015-02-22T13:49:42Z</time>
      </trkpt>
      <trkpt lat="49.77693" lon="5.63004">
        <ele>477</ele>
        <time>2015-02-22T13:49:47Z</time>
      </trkpt>
      <trkpt lat="49.77687" lon="5.63005">
        <ele>478</ele>
        <time>2015-02-22T13:49:52Z</time>
      </trkpt>
      <trkpt lat="49.7768" lon="5.63006">
        <ele>478</ele>
        <time>2015-02-22T13:49:58Z</time>
      </trkpt>
      <trkpt lat="49.77673" lon="5.63008">
        <ele>478</ele>
        <time>2015-02-22T13:50:04Z</time>
      </trkpt>
      <trkpt lat="49.77667" lon="5.6301">
        <ele>479</ele>
        <time>2015-02-22T13:50:09Z</time>
      </trkpt>
      <trkpt lat="49.7766" lon="5.6301">
        <ele>480</ele>
        <time>2015-02-22T13:50:15Z</time>
      </trkpt>
      <trkpt lat="49.77653" lon="5.63007">
        <ele>480</ele>
        <time>2015-02-22T13:50:21Z</time>
      </trkpt>
      <trkpt lat="49.77647" lon="5.63005">
        <ele>480</ele>
        <time>2015-02-22T13:50:27Z</time>
      </trkpt>
      <trkpt lat="49.77642" lon="5.63001">
        <ele>480</ele>
        <time>2015-02-22T13:50:32Z</time>
      </trkpt>
      <trkpt lat="49.77637" lon="5.63">
        <ele>481</ele>
        <time>2015-02-22T13:50:37Z</time>
      </trkpt>
      <trkpt lat="49.7763" lon="5.63">
        <ele>481</ele>
        <time>2015-02-22T13:50:43Z</time>
      </trkpt>
      <trkpt lat="49.77625" lon="5.62999">
        <ele>482</ele>
        <time>2015-02-22T13:50:48Z</time>
      </trkpt>
      <trkpt lat="49.77619" lon="5.62998">
        <ele>482</ele>
        <time>2015-02-22T13:50:53Z</time>
      </trkpt>
      <trkpt lat="49.77613" lon="5.62996">
        <ele>482</ele>
        <time>2015-02-22T13:50:59Z</time>
      </trkpt>
      <trkpt lat="49.77607" lon="5.62992">
        <ele>483</ele>
        <time>2015-02-22T13:51:05Z</time>
      </trkpt>
      <trkpt lat="49.77601" lon="5.62989">
        <ele>483</ele>
        <time>2015-02-22T13:51:11Z</time>
      </trkpt>
      <trkpt lat="49.77597" lon="5.62987">
        <ele>484</ele>
        <time>2015-02-22T13:51:16Z</time>
      </trkpt>
      <trkpt lat="49.7759" lon="5.62985">
        <ele>484</ele>
        <time>2015-02-22T13:51:22Z</time>
      </trkpt>
      <trkpt lat="49.77585" lon="5.62981">
        <ele>484</ele>
        <time>2015-02-22T13:51:27Z</time>
      </trkpt>
      <trkpt lat="49.77579" lon="5.62975">
        <ele>485</ele>
        <time>2015-02-22T13:51:33Z</time>
      </trkpt>
      <trkpt lat="49.77575" lon="5.62972">
        <ele>485</ele>
        <time>2015-02-22T13:51:38Z</time>
      </trkpt>
      <trkpt lat="49.77569" lon="5.6297">
        <ele>485</ele>
        <time>2015-02-22T13:51:43Z</time>
      </trkpt>
      <trkpt lat="49.77562" lon="5.62967">
        <ele>485</ele>
        <time>2015-02-22T13:51:49Z</time>
      </trkpt>
      <trkpt lat="49.77555" lon="5.62966">
        <ele>486</ele>
        <time>2015-02-22T13:51:55Z</time>
      </trkpt>
      <trkpt lat="49.77552" lon="5.62958">
        <ele>486</ele>
        <time>2015-02-22T13:52:00Z</time>
      </trkpt>
      <trkpt lat="49.77553" lon="5.62949">
        <ele>486</ele>
        <time>2015-02-22T13:52:05Z</time>
      </trkpt>
      <trkpt lat="49.77553" lon="5.62937">
        <ele>486</ele>
        <time>2015-02-22T13:52:11Z</time>
      </trkpt>
      <trkpt lat="49.77552" lon="5.62929">
        <ele>486</ele>
        <time>2015-02-22T13:52:16Z</time>
      </trkpt>
      <trkpt lat="49.7755" lon="5.6292">
        <ele>486</ele>
        <time>2015-02-22T13:52:21Z</time>
      </trkpt>
      <trkpt lat="49.77547" lon="5.62909">
        <ele>486</ele>
        <time>2015-02-22T13:52:27Z</time>
      </trkpt>
      <trkpt lat="49.77546" lon="5.629">
        <ele>486</ele>
        <time>2015-02-22T13:52:32Z</time>
      </trkpt>
      <trkpt lat="49.77546" lon="5.62889">
        <ele>486</ele>
        <time>2015-02-22T13:52:38Z</time>
      </trkpt>
      <trkpt lat="49.77546" lon="5.6288">
        <ele>486</ele>
        <time>2015-02-22T13:52:43Z</time>
      </trkpt>
      <trkpt lat="49.77549" lon="5.62869">
        <ele>487</ele>
        <time>2015-02-22T13:52:49Z</time>
      </trkpt>
      <trkpt lat="49.77553" lon="5.62861">
        <ele>486</ele>
        <time>2015-02-22T13:52:54Z</time>
      </trkpt>
      <trkpt lat="49.77556" lon="5.62854">
        <ele>486</ele>
        <time>2015-02-22T13:52:59Z</time>
      </trkpt>
      <trkpt lat="49.7756" lon="5.62847">
        <ele>486</ele>
        <time>2015-02-22T13:53:04Z</time>
      </trkpt>
      <trkpt lat="49.77563" lon="5.6284">
        <ele>486</ele>
        <time>2015-02-22T13:53:09Z</time>
      </trkpt>
      <trkpt lat="49.77565" lon="5.62836">
        <ele>486</ele>
        <time>2015-02-22T13:53:15Z</time>
      </trkpt>
      <trkpt lat="49.77567" lon="5.62833">
        <ele>486</ele>
        <time>2015-02-22T13:53:21Z</time>
      </trkpt>
      <trkpt lat="49.77568" lon="5.62832">
        <ele>486</ele>
        <time>2015-02-22T13:53:27Z</time>
      </trkpt>
      <trkpt lat="49.77571" lon="5.62827">
        <ele>486</ele>
        <time>2015-02-22T13:53:32Z</time>
      </trkpt>
      <trkpt lat="49.77575" lon="5.62821">
        <ele>485</ele>
        <time>2015-02-22T13:53:37Z</time>
      </trkpt>
      <trkpt lat="49.77577" lon="5.62815">
        <ele>485</ele>
        <time>2015-02-22T13:53:42Z</time>
      </trkpt>
      <trkpt lat="49.77582" lon="5.6281">
        <ele>485</ele>
        <time>2015-02-22T13:53:48Z</time>
      </trkpt>
      <trkpt lat="49.77585" lon="5.62805">
        <ele>484</ele>
        <time>2015-02-22T13:53:54Z</time>
      </trkpt>
      <trkpt lat="49.77587" lon="5.62804">
        <ele>483</ele>
        <time>2015-02-22T13:53:59Z</time>
      </trkpt>
      <trkpt lat="49.7759" lon="5.62801">
        <ele>483</ele>
        <time>2015-02-22T13:54:04Z</time>
      </trkpt>
      <trkpt lat="49.77594" lon="5.62795">
        <ele>483</ele>
        <time>2015-02-22T13:54:09Z</time>
      </trkpt>
      <trkpt lat="49.77598" lon="5.62788">
        <ele>484</ele>
        <time>2015-02-22T13:54:15Z</time>
      </trkpt>
      <trkpt lat="49.77597" lon="5.62779">
        <ele>483</ele>
        <time>2015-02-22T13:54:21Z</time>
      </trkpt>
      <trkpt lat="49.77595" lon="5.62771">
        <ele>483</ele>
        <time>2015-02-22T13:54:26Z</time>
      </trkpt>
      <trkpt lat="49.77592" lon="5.62764">
        <ele>483</ele>
        <time>2015-02-22T13:54:31Z</time>
      </trkpt>
      <trkpt lat="49.77587" lon="5.62754">
        <ele>483</ele>
        <time>2015-02-22T13:54:37Z</time>
      </trkpt>
      <trkpt lat="49.77583" lon="5.62747">
        <ele>482</ele>
        <time>2015-02-22T13:54:42Z</time>
      </trkpt>
      <trkpt lat="49.77578" lon="5.62737">
        <ele>482</ele>
        <time>2015-02-22T13:54:48Z</time>
      </trkpt>
      <trkpt lat="49.77574" lon="5.62731">
        <ele>482</ele>
        <time>2015-02-22T13:54:53Z</time>
      </trkpt>
      <trkpt lat="49.7757" lon="5.62725">
        <ele>482</ele>
        <time>2015-02-22T13:54:58Z</time>
      </trkpt>
      <trkpt lat="49.77562" lon="5.6272">
        <ele>482</ele>
        <time>2015-02-22T13:55:04Z</time>
      </trkpt>
      <trkpt lat="49.77556" lon="5.62715">
        <ele>482</ele>
        <time>2015-02-22T13:55:10Z</time>
      </trkpt>
      <trkpt lat="49.77549" lon="5.62713">
        <ele>482</ele>
        <time>2015-02-22T13:55:15Z</time>
      </trkpt>
      <trkpt lat="49.77544" lon="5.62712">
        <ele>482</ele>
        <time>2015-02-22T13:55:20Z</time>
      </trkpt>
      <trkpt lat="49.77538" lon="5.62711">
        <ele>482</ele>
        <time>2015-02-22T13:55:26Z</time>
      </trkpt>
      <trkpt lat="49.77533" lon="5.62711">
        <ele>481</ele>
        <time>2015-02-22T13:55:31Z</time>
      </trkpt>
      <trkpt lat="49.77528" lon="5.62711">
        <ele>481</ele>
        <time>2015-02-22T13:55:36Z</time>
      </trkpt>
      <trkpt lat="49.77523" lon="5.6271">
        <ele>482</ele>
        <time>2015-02-22T13:55:41Z</time>
      </trkpt>
      <trkpt lat="49.77517" lon="5.62708">
        <ele>482</ele>
        <time>2015-02-22T13:55:47Z</time>
      </trkpt>
      <trkpt lat="49.77511" lon="5.62704">
        <ele>482</ele>
        <time>2015-02-22T13:55:53Z</time>
      </trkpt>
      <trkpt lat="49.77505" lon="5.62704">
        <ele>482</ele>
        <time>2015-02-22T13:55:58Z</time>
      </trkpt>
      <trkpt lat="49.775" lon="5.62704">
        <ele>482</ele>
        <time>2015-02-22T13:56:03Z</time>
      </trkpt>
      <trkpt lat="49.77494" lon="5.62704">
        <ele>482</ele>
        <time>2015-02-22T13:56:09Z</time>
      </trkpt>
      <trkpt lat="49.77489" lon="5.62706">
        <ele>482</ele>
        <time>2015-02-22T13:56:14Z</time>
      </trkpt>
      <trkpt lat="49.77485" lon="5.62709">
        <ele>482</ele>
        <time>2015-02-22T13:56:19Z</time>
      </trkpt>
      <trkpt lat="49.7748" lon="5.62715">
        <ele>482</ele>
        <time>2015-02-22T13:56:24Z</time>
      </trkpt>
      <trkpt lat="49.77477" lon="5.62724">
        <ele>483</ele>
        <time>2015-02-22T13:56:30Z</time>
      </trkpt>
      <trkpt lat="49.77474" lon="5.62735">
        <ele>483</ele>
        <time>2015-02-22T13:56:36Z</time>
      </trkpt>
      <trkpt lat="49.77472" lon="5.62744">
        <ele>483</ele>
        <time>2015-02-22T13:56:41Z</time>
      </trkpt>
      <trkpt lat="49.7747" lon="5.62755">
        <ele>484</ele>
        <time>2015-02-22T13:56:47Z</time>
      </trkpt>
      <trkpt lat="49.77465" lon="5.62762">
        <ele>484</ele>
        <time>2015-02-22T13:56:53Z</time>
      </trkpt>
      <trkpt lat="49.77461" lon="5.62764">
        <ele>483</ele>
        <time>2015-02-22T13:56:58Z</time>
      </trkpt>
      <trkpt lat="49.77456" lon="5.62764">
        <ele>483</ele>
        <time>2015-02-22T13:57:04Z</time>
      </trkpt>
      <trkpt lat="49.77451" lon="5.62766">
        <ele>483</ele>
        <time>2015-02-22T13:57:09Z</time>
      </trkpt>
      <trkpt lat="49.77447" lon="5.62766">
        <ele>484</ele>
        <time>2015-02-22T13:57:15Z</time>
      </trkpt>
      <trkpt lat="49.77441" lon="5.62766">
        <ele>483</ele>
        <time>2015-02-22T13:57:20Z</time>
      </trkpt>
      <trkpt lat="49.77436" lon="5.62768">
        <ele>483</ele>
        <time>2015-02-22T13:57:25Z</time>
      </trkpt>
      <trkpt lat="49.7743" lon="5.62768">
        <ele>483</ele>
        <time>2015-02-22T13:57:31Z</time>
      </trkpt>
      <trkpt lat="49.77426" lon="5.62769">
        <ele>483</ele>
        <time>2015-02-22T13:57:36Z</time>
      </trkpt>
      <trkpt lat="49.7742" lon="5.62769">
        <ele>483</ele>
        <time>2015-02-22T13:57:41Z</time>
      </trkpt>
      <trkpt lat="49.77413" lon="5.62771">
        <ele>483</ele>
        <time>2015-02-22T13:57:47Z</time>
      </trkpt>
      <trkpt lat="49.77406" lon="5.62771">
        <ele>483</ele>
        <time>2015-02-22T13:57:52Z</time>
      </trkpt>
      <trkpt lat="49.77399" lon="5.62769">
        <ele>483</ele>
        <time>2015-02-22T13:57:58Z</time>
      </trkpt>
      <trkpt lat="49.77392" lon="5.62769">
        <ele>483</ele>
        <time>2015-02-22T13:58:03Z</time>
      </trkpt>
      <trkpt lat="49.77383" lon="5.6277">
        <ele>483</ele>
        <time>2015-02-22T13:58:09Z</time>
      </trkpt>
      <trkpt lat="49.77376" lon="5.62773">
        <ele>483</ele>
        <time>2015-02-22T13:58:14Z</time>
      </trkpt>
      <trkpt lat="49.77367" lon="5.62777">
        <ele>483</ele>
        <time>2015-02-22T13:58:20Z</time>
      </trkpt>
      <trkpt lat="49.77359" lon="5.6278">
        <ele>483</ele>
        <time>2015-02-22T13:58:26Z</time>
      </trkpt>
      <trkpt lat="49.77351" lon="5.62781">
        <ele>482</ele>
        <time>2015-02-22T13:58:31Z</time>
      </trkpt>
      <trkpt lat="49.77343" lon="5.62783">
        <ele>483</ele>
        <time>2015-02-22T13:58:37Z</time>
      </trkpt>
      <trkpt lat="49.77335" lon="5.62785">
        <ele>482</ele>
        <time>2015-02-22T13:58:43Z</time>
      </trkpt>
      <trkpt lat="49.77329" lon="5.62786">
        <ele>481</ele>
        <time>2015-02-22T13:58:48Z</time>
      </trkpt>
      <trkpt lat="49.77321" lon="5.62788">
        <ele>481</ele>
        <time>2015-02-22T13:58:54Z</time>
      </trkpt>
      <trkpt lat="49.77314" lon="5.62788">
        <ele>481</ele>
        <time>2015-02-22T13:58:59Z</time>
      </trkpt>
      <trkpt lat="49.7731" lon="5.62787">
        <ele>481</ele>
        <time>2015-02-22T13:59:04Z</time>
      </trkpt>
      <trkpt lat="49.77303" lon="5.62789">
        <ele>480</ele>
        <time>2015-02-22T13:59:10Z</time>
      </trkpt>
      <trkpt lat="49.77295" lon="5.62791">
        <ele>480</ele>
        <time>2015-02-22T13:59:16Z</time>
      </trkpt>
      <trkpt lat="49.77289" lon="5.62791">
        <ele>480</ele>
        <time>2015-02-22T13:59:21Z</time>
      </trkpt>
      <trkpt lat="49.77283" lon="5.62794">
        <ele>480</ele>
        <time>2015-02-22T13:59:26Z</time>
      </trkpt>
      <trkpt lat="49.77275" lon="5.62794">
        <ele>479</ele>
        <time>2015-02-22T13:59:32Z</time>
      </trkpt>
      <trkpt lat="49.77267" lon="5.62795">
        <ele>479</ele>
        <time>2015-02-22T13:59:38Z</time>
      </trkpt>
      <trkpt lat="49.77259" lon="5.62797">
        <ele>478</ele>
        <time>2015-02-22T13:59:44Z</time>
      </trkpt>
      <trkpt lat="49.77251" lon="5.62799">
        <ele>478</ele>
        <time>2015-02-22T13:59:50Z</time>
      </trkpt>
      <trkpt lat="49.77244" lon="5.62802">
        <ele>477</ele>
        <time>2015-02-22T13:59:56Z</time>
      </trkpt>
      <trkpt lat="49.77237" lon="5.62804">
        <ele>476</ele>
        <time>2015-02-22T14:00:01Z</time>
      </trkpt>
      <trkpt lat="49.77234" lon="5.62804">
        <ele>476</ele>
        <time>2015-02-22T14:00:07Z</time>
      </trkpt>
      <trkpt lat="49.77233" lon="5.62805">
        <ele>476</ele>
        <time>2015-02-22T14:00:12Z</time>
      </trkpt>
      <trkpt lat="49.77231" lon="5.62805">
        <ele>476</ele>
        <time>2015-02-22T14:00:18Z</time>
      </trkpt>
      <trkpt lat="49.7723" lon="5.62803">
        <ele>476</ele>
        <time>2015-02-22T14:00:24Z</time>
      </trkpt>
      <trkpt lat="49.77229" lon="5.62805">
        <ele>475</ele>
        <time>2015-02-22T14:00:29Z</time>
      </trkpt>
      <trkpt lat="49.77225" lon="5.62806">
        <ele>475</ele>
        <time>2015-02-22T14:00:34Z</time>
      </trkpt>
      <trkpt lat="49.77217" lon="5.62805">
        <ele>475</ele>
        <time>2015-02-22T14:00:40Z</time>
      </trkpt>
      <trkpt lat="49.77211" lon="5.62801">
        <ele>475</ele>
        <time>2015-02-22T14:00:45Z</time>
      </trkpt>
      <trkpt lat="49.77205" lon="5.62795">
        <ele>474</ele>
        <time>2015-02-22T14:00:50Z</time>
      </trkpt>
      <trkpt lat="49.772" lon="5.62785">
        <ele>474</ele>
        <time>2015-02-22T14:00:56Z</time>
      </trkpt>
      <trkpt lat="49.77197" lon="5.62777">
        <ele>474</ele>
        <time>2015-02-22T14:01:01Z</time>
      </trkpt>
      <trkpt lat="49.77196" lon="5.62768">
        <ele>474</ele>
        <time>2015-02-22T14:01:06Z</time>
      </trkpt>
      <trkpt lat="49.77195" lon="5.62759">
        <ele>474</ele>
        <time>2015-02-22T14:01:12Z</time>
      </trkpt>
      <trkpt lat="49.77194" lon="5.62751">
        <ele>474</ele>
        <time>2015-02-22T14:01:17Z</time>
      </trkpt>
      <trkpt lat="49.77192" lon="5.62742">
        <ele>474</ele>
        <time>2015-02-22T14:01:22Z</time>
      </trkpt>
      <trkpt lat="49.77189" lon="5.62732">
        <ele>474</ele>
        <time>2015-02-22T14:01:28Z</time>
      </trkpt>
      <trkpt lat="49.77185" lon="5.62723">
        <ele>474</ele>
        <time>2015-02-22T14:01:33Z</time>
      </trkpt>
      <trkpt lat="49.77183" lon="5.62713">
        <ele>474</ele>
        <time>2015-02-22T14:01:38Z</time>
      </trkpt>
      <trkpt lat="49.7718" lon="5.62701">
        <ele>474</ele>
        <time>2015-02-22T14:01:44Z</time>
      </trkpt>
      <trkpt lat="49.77177" lon="5.62688">
        <ele>474</ele>
        <time>2015-02-22T14:01:50Z</time>
      </trkpt>
      <trkpt lat="49.77175" lon="5.62677">
        <ele>474</ele>
        <time>2015-02-22T14:01:56Z</time>
      </trkpt>
      <trkpt lat="49.77174" lon="5.62672">
        <ele>474</ele>
        <time>2015-02-22T14:02:01Z</time>
      </trkpt>
      <trkpt lat="49.77172" lon="5.62661">
        <ele>474</ele>
        <time>2015-02-22T14:02:07Z</time>
      </trkpt>
      <trkpt lat="49.77171" lon="5.6265">
        <ele>474</ele>
        <time>2015-02-22T14:02:13Z</time>
      </trkpt>
      <trkpt lat="49.7717" lon="5.6264">
        <ele>474</ele>
        <time>2015-02-22T14:02:18Z</time>
      </trkpt>
      <trkpt lat="49.7717" lon="5.62632">
        <ele>474</ele>
        <time>2015-02-22T14:02:23Z</time>
      </trkpt>
      <trkpt lat="49.77168" lon="5.62622">
        <ele>474</ele>
        <time>2015-02-22T14:02:29Z</time>
      </trkpt>
      <trkpt lat="49.77167" lon="5.62616">
        <ele>474</ele>
        <time>2015-02-22T14:02:34Z</time>
      </trkpt>
      <trkpt lat="49.77166" lon="5.62605">
        <ele>473</ele>
        <time>2015-02-22T14:02:40Z</time>
      </trkpt>
      <trkpt lat="49.77164" lon="5.62596">
        <ele>473</ele>
        <time>2015-02-22T14:02:45Z</time>
      </trkpt>
      <trkpt lat="49.77161" lon="5.62587">
        <ele>472</ele>
        <time>2015-02-22T14:02:50Z</time>
      </trkpt>
      <trkpt lat="49.77159" lon="5.62575">
        <ele>472</ele>
        <time>2015-02-22T14:02:56Z</time>
      </trkpt>
      <trkpt lat="49.77156" lon="5.62565">
        <ele>472</ele>
        <time>2015-02-22T14:03:01Z</time>
      </trkpt>
      <trkpt lat="49.77154" lon="5.62555">
        <ele>471</ele>
        <time>2015-02-22T14:03:06Z</time>
      </trkpt>
      <trkpt lat="49.77153" lon="5.62545">
        <ele>471</ele>
        <time>2015-02-22T14:03:11Z</time>
      </trkpt>
      <trkpt lat="49.77151" lon="5.62534">
        <ele>470</ele>
        <time>2015-02-22T14:03:17Z</time>
      </trkpt>
      <trkpt lat="49.7715" lon="5.62525">
        <ele>470</ele>
        <time>2015-02-22T14:03:22Z</time>
      </trkpt>
      <trkpt lat="49.77148" lon="5.62515">
        <ele>469</ele>
        <time>2015-02-22T14:03:27Z</time>
      </trkpt>
      <trkpt lat="49.77147" lon="5.62504">
        <ele>469</ele>
        <time>2015-02-22T14:03:33Z</time>
      </trkpt>
      <trkpt lat="49.77145" lon="5.62495">
        <ele>468</ele>
        <time>2015-02-22T14:03:38Z</time>
      </trkpt>
      <trkpt lat="49.77144" lon="5.62487">
        <ele>468</ele>
        <time>2015-02-22T14:03:43Z</time>
      </trkpt>
      <trkpt lat="49.77143" lon="5.62478">
        <ele>468</ele>
        <time>2015-02-22T14:03:48Z</time>
      </trkpt>
      <trkpt lat="49.77142" lon="5.6247">
        <ele>467</ele>
        <time>2015-02-22T14:03:53Z</time>
      </trkpt>
      <trkpt lat="49.77143" lon="5.62468">
        <ele>467</ele>
        <time>2015-02-22T14:03:59Z</time>
      </trkpt>
      <trkpt lat="49.7714" lon="5.62456">
        <ele>467</ele>
        <time>2015-02-22T14:04:05Z</time>
      </trkpt>
      <trkpt lat="49.77139" lon="5.62444">
        <ele>466</ele>
        <time>2015-02-22T14:04:11Z</time>
      </trkpt>
      <trkpt lat="49.7714" lon="5.62434">
        <ele>466</ele>
        <time>2015-02-22T14:04:16Z</time>
      </trkpt>
      <trkpt lat="49.77142" lon="5.62424">
        <ele>465</ele>
        <time>2015-02-22T14:04:22Z</time>
      </trkpt>
      <trkpt lat="49.77143" lon="5.62414">
        <ele>465</ele>
        <time>2015-02-22T14:04:28Z</time>
      </trkpt>
      <trkpt lat="49.77145" lon="5.62407">
        <ele>464</ele>
        <time>2015-02-22T14:04:33Z</time>
      </trkpt>
      <trkpt lat="49.77148" lon="5.62397">
        <ele>463</ele>
        <time>2015-02-22T14:04:39Z</time>
      </trkpt>
      <trkpt lat="49.77149" lon="5.62388">
        <ele>463</ele>
        <time>2015-02-22T14:04:44Z</time>
      </trkpt>
      <trkpt lat="49.77151" lon="5.62378">
        <ele>463</ele>
        <time>2015-02-22T14:04:50Z</time>
      </trkpt>
      <trkpt lat="49.77153" lon="5.62368">
        <ele>462</ele>
        <time>2015-02-22T14:04:55Z</time>
      </trkpt>
      <trkpt lat="49.77155" lon="5.62358">
        <ele>462</ele>
        <time>2015-02-22T14:05:00Z</time>
      </trkpt>
      <trkpt lat="49.77155" lon="5.62352">
        <ele>461</ele>
        <time>2015-02-22T14:05:05Z</time>
      </trkpt>
      <trkpt lat="49.77155" lon="5.62345">
        <ele>461</ele>
        <time>2015-02-22T14:05:10Z</time>
      </trkpt>
      <trkpt lat="49.77157" lon="5.62334">
        <ele>461</ele>
        <time>2015-02-22T14:05:16Z</time>
      </trkpt>
      <trkpt lat="49.77158" lon="5.62324">
        <ele>460</ele>
        <time>2015-02-22T14:05:21Z</time>
      </trkpt>
      <trkpt lat="49.77159" lon="5.62314">
        <ele>459</ele>
        <time>2015-02-22T14:05:27Z</time>
      </trkpt>
      <trkpt lat="49.7716" lon="5.62302">
        <ele>459</ele>
        <time>2015-02-22T14:05:33Z</time>
      </trkpt>
      <trkpt lat="49.77161" lon="5.62293">
        <ele>459</ele>
        <time>2015-02-22T14:05:38Z</time>
      </trkpt>
      <trkpt lat="49.77164" lon="5.62284">
        <ele>458</ele>
        <time>2015-02-22T14:05:44Z</time>
      </trkpt>
      <trkpt lat="49.77169" lon="5.62277">
        <ele>457</ele>
        <time>2015-02-22T14:05:49Z</time>
      </trkpt>
      <trkpt lat="49.77176" lon="5.6227">
        <ele>456</ele>
        <time>2015-02-22T14:05:55Z</time>
      </trkpt>
      <trkpt lat="49.77181" lon="5.62264">
        <ele>456</ele>
        <time>2015-02-22T14:06:00Z</time>
      </trkpt>
      <trkpt lat="49.77186" lon="5.62259">
        <ele>455</ele>
        <time>2015-02-22T14:06:06Z</time>
      </trkpt>
      <trkpt lat="49.77187" lon="5.62258">
        <ele>455</ele>
        <time>2015-02-22T14:06:11Z</time>
      </trkpt>
      <trkpt lat="49.77188" lon="5.62257">
        <ele>455</ele>
        <time>2015-02-22T14:06:16Z</time>
      </trkpt>
      <trkpt lat="49.77193" lon="5.62253">
        <ele>455</ele>
        <time>2015-02-22T14:06:21Z</time>
      </trkpt>
      <trkpt lat="49.772" lon="5.62248">
        <ele>454</ele>
        <time>2015-02-22T14:06:27Z</time>
      </trkpt>
      <trkpt lat="49.77206" lon="5.62243">
        <ele>453</ele>
        <time>2015-02-22T14:06:32Z</time>
      </trkpt>
      <trkpt lat="49.77213" lon="5.62238">
        <ele>452</ele>
        <time>2015-02-22T14:06:38Z</time>
      </trkpt>
      <trkpt lat="49.77218" lon="5.62234">
        <ele>452</ele>
        <time>2015-02-22T14:06:43Z</time>
      </trkpt>
      <trkpt lat="49.77223" lon="5.62229">
        <ele>452</ele>
        <time>2015-02-22T14:06:48Z</time>
      </trkpt>
      <trkpt lat="49.7723" lon="5.62225">
        <ele>451</ele>
        <time>2015-02-22T14:06:54Z</time>
      </trkpt>
      <trkpt lat="49.77237" lon="5.62219">
        <ele>450</ele>
        <time>2015-02-22T14:07:00Z</time>
      </trkpt>
      <trkpt lat="49.7724" lon="5.62212">
        <ele>450</ele>
        <time>2015-02-22T14:07:05Z</time>
      </trkpt>
      <trkpt lat="49.77243" lon="5.62204">
        <ele>449</ele>
        <time>2015-02-22T14:07:11Z</time>
      </trkpt>
      <trkpt lat="49.77244" lon="5.62197">
        <ele>448</ele>
        <time>2015-02-22T14:07:16Z</time>
      </trkpt>
      <trkpt lat="49.77245" lon="5.62189">
        <ele>448</ele>
        <time>2015-02-22T14:07:22Z</time>
      </trkpt>
      <trkpt lat="49.77245" lon="5.62185">
        <ele>447</ele>
        <time>2015-02-22T14:07:27Z</time>
      </trkpt>
      <trkpt lat="49.77241" lon="5.62177">
        <ele>447</ele>
        <time>2015-02-22T14:07:33Z</time>
      </trkpt>
      <trkpt lat="49.7724" lon="5.62169">
        <ele>446</ele>
        <time>2015-02-22T14:07:38Z</time>
      </trkpt>
      <trkpt lat="49.77239" lon="5.6216">
        <ele>445</ele>
        <time>2015-02-22T14:07:44Z</time>
      </trkpt>
      <trkpt lat="49.77239" lon="5.62153">
        <ele>444</ele>
        <time>2015-02-22T14:07:49Z</time>
      </trkpt>
      <trkpt lat="49.7724" lon="5.6215">
        <ele>444</ele>
        <time>2015-02-22T14:07:55Z</time>
      </trkpt>
      <trkpt lat="49.77239" lon="5.62141">
        <ele>444</ele>
        <time>2015-02-22T14:08:01Z</time>
      </trkpt>
      <trkpt lat="49.77237" lon="5.62131">
        <ele>443</ele>
        <time>2015-02-22T14:08:06Z</time>
      </trkpt>
      <trkpt lat="49.77235" lon="5.6212">
        <ele>442</ele>
        <time>2015-02-22T14:08:12Z</time>
      </trkpt>
      <trkpt lat="49.77235" lon="5.62111">
        <ele>442</ele>
        <time>2015-02-22T14:08:17Z</time>
      </trkpt>
      <trkpt lat="49.77235" lon="5.62099">
        <ele>442</ele>
        <time>2015-02-22T14:08:23Z</time>
      </trkpt>
      <trkpt lat="49.77237" lon="5.6209">
        <ele>441</ele>
        <time>2015-02-22T14:08:28Z</time>
      </trkpt>
      <trkpt lat="49.77242" lon="5.62085">
        <ele>441</ele>
        <time>2015-02-22T14:08:33Z</time>
      </trkpt>
      <trkpt lat="49.77248" lon="5.62082">
        <ele>440</ele>
        <time>2015-02-22T14:08:39Z</time>
      </trkpt>
      <trkpt lat="49.77253" lon="5.62081">
        <ele>440</ele>
        <time>2015-02-22T14:08:44Z</time>
      </trkpt>
      <trkpt lat="49.77254" lon="5.62081">
        <ele>440</ele>
        <time>2015-02-22T14:08:50Z</time>
      </trkpt>
      <trkpt lat="49.77255" lon="5.62082">
        <ele>440</ele>
        <time>2015-02-22T14:08:55Z</time>
      </trkpt>
      <trkpt lat="49.77257" lon="5.62083">
        <ele>441</ele>
        <time>2015-02-22T14:09:01Z</time>
      </trkpt>
      <trkpt lat="49.77259" lon="5.62083">
        <ele>441</ele>
        <time>2015-02-22T14:09:07Z</time>
      </trkpt>
      <trkpt lat="49.77261" lon="5.62082">
        <ele>440</ele>
        <time>2015-02-22T14:09:13Z</time>
      </trkpt>
      <trkpt lat="49.77264" lon="5.62082">
        <ele>440</ele>
        <time>2015-02-22T14:09:18Z</time>
      </trkpt>
      <trkpt lat="49.77266" lon="5.62082">
        <ele>440</ele>
        <time>2015-02-22T14:09:23Z</time>
      </trkpt>
      <trkpt lat="49.77272" lon="5.62079">
        <ele>440</ele>
        <time>2015-02-22T14:09:29Z</time>
      </trkpt>
      <trkpt lat="49.77277" lon="5.62079">
        <ele>440</ele>
        <time>2015-02-22T14:09:34Z</time>
      </trkpt>
      <trkpt lat="49.77279" lon="5.62079">
        <ele>440</ele>
        <time>2015-02-22T14:09:39Z</time>
      </trkpt>
      <trkpt lat="49.77279" lon="5.62077">
        <ele>440</ele>
        <time>2015-02-22T14:09:45Z</time>
      </trkpt>
      <trkpt lat="49.77277" lon="5.62076">
        <ele>440</ele>
        <time>2015-02-22T14:09:51Z</time>
      </trkpt>
      <trkpt lat="49.77274" lon="5.62074">
        <ele>440</ele>
        <time>2015-02-22T14:09:56Z</time>
      </trkpt>
      <trkpt lat="49.77272" lon="5.62072">
        <ele>440</ele>
        <time>2015-02-22T14:10:01Z</time>
      </trkpt>
      <trkpt lat="49.77271" lon="5.62071">
        <ele>440</ele>
        <time>2015-02-22T14:10:07Z</time>
      </trkpt>
      <trkpt lat="49.77271" lon="5.62065">
        <ele>440</ele>
        <time>2015-02-22T14:10:13Z</time>
      </trkpt>
      <trkpt lat="49.77271" lon="5.62056">
        <ele>440</ele>
        <time>2015-02-22T14:10:19Z</time>
      </trkpt>
      <trkpt lat="49.7727" lon="5.62049">
        <ele>439</ele>
        <time>2015-02-22T14:10:24Z</time>
      </trkpt>
      <trkpt lat="49.77268" lon="5.62041">
        <ele>439</ele>
        <time>2015-02-22T14:10:30Z</time>
      </trkpt>
      <trkpt lat="49.77268" lon="5.62038">
        <ele>439</ele>
        <time>2015-02-22T14:10:36Z</time>
      </trkpt>
      <trkpt lat="49.77267" lon="5.62036">
        <ele>438</ele>
        <time>2015-02-22T14:10:41Z</time>
      </trkpt>
      <trkpt lat="49.77266" lon="5.62035">
        <ele>438</ele>
        <time>2015-02-22T14:10:49Z</time>
      </trkpt>
      <trkpt lat="49.77264" lon="5.6203">
        <ele>438</ele>
        <time>2015-02-22T14:10:55Z</time>
      </trkpt>
      <trkpt lat="49.77261" lon="5.6202">
        <ele>438</ele>
        <time>2015-02-22T14:11:01Z</time>
      </trkpt>
      <trkpt lat="49.77258" lon="5.62013">
        <ele>438</ele>
        <time>2015-02-22T14:11:06Z</time>
      </trkpt>
      <trkpt lat="49.77254" lon="5.62003">
        <ele>437</ele>
        <time>2015-02-22T14:11:12Z</time>
      </trkpt>
      <trkpt lat="49.7725" lon="5.61996">
        <ele>436</ele>
        <time>2015-02-22T14:11:17Z</time>
      </trkpt>
      <trkpt lat="49.77246" lon="5.61988">
        <ele>436</ele>
        <time>2015-02-22T14:11:22Z</time>
      </trkpt>
      <trkpt lat="49.7724" lon="5.61979">
        <ele>435</ele>
        <time>2015-02-22T14:11:28Z</time>
      </trkpt>
      <trkpt lat="49.77236" lon="5.61972">
        <ele>435</ele>
        <time>2015-02-22T14:11:33Z</time>
      </trkpt>
      <trkpt lat="49.77232" lon="5.61964">
        <ele>435</ele>
        <time>2015-02-22T14:11:38Z</time>
      </trkpt>
      <trkpt lat="49.77228" lon="5.61955">
        <ele>434</ele>
        <time>2015-02-22T14:11:44Z</time>
      </trkpt>
      <trkpt lat="49.77226" lon="5.61946">
        <ele>434</ele>
        <time>2015-02-22T14:11:49Z</time>
      </trkpt>
      <trkpt lat="49.77227" lon="5.6194">
        <ele>434</ele>
        <time>2015-02-22T14:11:54Z</time>
      </trkpt>
      <trkpt lat="49.77228" lon="5.61937">
        <ele>434</ele>
        <time>2015-02-22T14:11:59Z</time>
      </trkpt>
      <trkpt lat="49.77227" lon="5.61936">
        <ele>434</ele>
        <time>2015-02-22T14:12:05Z</time>
      </trkpt>
      <trkpt lat="49.77226" lon="5.61935">
        <ele>434</ele>
        <time>2015-02-22T14:12:11Z</time>
      </trkpt>
      <trkpt lat="49.77227" lon="5.61935">
        <ele>433</ele>
        <time>2015-02-22T14:12:17Z</time>
      </trkpt>
    </trkseg>
  </trk>
</gpx>